[[{"header":{"parameterUnit":"m.s-1","parameterCategory":1,"la1":30.6,"la2":29.2853,"lo1":-89.7004,"lo2":-87.6739,"dy":0.0162,"dx":0.0183,"nx":112,"ny":82,"refTime":"2024-05-07T12:00:00:Z","depth":0,"parameterNumber":2,"parameterNumberName":"U-component_of_WINDS"},"data":[0.0,0.0,0.0,0.0,0.0,0.0,0.0,0.0,0.0,0.0,0.0,0.0,0.0,0.0,0.0,0.0,0.0,0.0,0.0,0.0,0.0,0.0,0.0,0.0,0.0,0.0,0.0,0.0,0.0,0.0,0.0,0.0,0.0,0.0,0.0,0.0,0.0,0.0,0.0,0.0,0.0,0.0,0.0,0.0,0.0,0.0,0.0,0.0,0.0,0.0,0.0,0.0,0.0,0.0,0.0,0.0,0.0,0.0,0.0,0.0,0.0,0.0,0.0,0.0,0.0,0.0,0.0,0.0,0.0,0.0,0.0,0.0,0.0,0.0,0.0,0.0,0.0,0.0,0.0,0.0,0.0,0.0,0.0,0.0,0.0,0.0,0.0,0.0,0.0,0.0,0.0,4.378,4.7567,4.9683,4.9413,4.6992,4.2689,3.6108,0.0,0.0,0.0,0.0,0.0,0.0,0.0,0.0,0.0,0.0,0.0,0.0,0.0,0.0,0.0,0.0,0.0,0.0,0.0,0.0,0.0,0.0,0.0,0.0,0.0,0.0,0.0,0.0,0.0,0.0,0.0,0.0,0.0,0.0,0.0,0.0,0.0,0.0,0.0,0.0,0.0,0.0,0.0,0.0,0.0,0.0,0.0,0.0,0.0,0.0,0.0,0.0,0.0,0.0,0.0,0.0,0.0,0.0,0.0,0.0,0.0,0.0,0.0,0.0,0.0,0.0,0.0,0.0,0.0,0.0,0.0,0.0,0.0,0.0,0.0,0.0,0.0,0.0,0.0,0.0,0.0,0.0,0.0,0.0,0.0,0.0,0.0,0.0,0.0,0.0,0.0,0.0,0.0,0.0,0.0,0.0,0.0,0.0,0.0,0.0,0.0,0.0,0.0,0.0,4.0117,4.8568,5.0702,5.0952,4.951,4.6992,4.2919,3.6901,0.0,0.0,0.0,0.0,0.0,0.0,0.0,0.0,0.0,0.0,0.0,0.0,0.0,0.0,0.0,0.0,0.0,0.0,0.0,0.0,0.0,0.0,0.0,0.0,0.0,0.0,0.0,0.0,0.0,0.0,0.0,0.0,0.0,0.0,0.0,0.0,0.0,0.0,0.0,0.0,0.0,0.0,0.0,0.0,0.0,0.0,0.0,0.0,0.0,0.0,0.0,0.0,0.0,0.0,0.0,0.0,0.0,0.0,0.0,0.0,0.0,0.0,0.0,0.0,0.0,0.0,0.0,0.0,0.0,0.0,0.0,0.0,0.0,0.0,0.0,0.0,0.0,0.0,0.0,0.0,0.0,0.0,0.0,0.0,0.0,0.0,0.0,0.0,0.0,0.0,0.0,0.0,0.0,0.0,0.0,0.0,0.0,0.0,0.0,0.0,0.0,0.0,0.0,3.7682,4.2098,4.9104,5.0621,5.0469,4.8779,4.6685,4.2542,3.5724,3.2497,0.0,0.0,0.0,0.0,0.0,0.0,0.0,0.0,0.0,0.0,0.0,0.0,0.0,0.0,0.0,0.0,0.0,0.0,0.0,0.0,0.0,0.0,0.0,0.0,0.0,0.0,0.0,0.0,0.0,0.0,0.0,0.0,0.0,0.0,0.0,0.0,0.0,0.0,0.0,0.0,0.0,0.0,0.0,0.0,0.0,0.0,0.0,0.0,0.0,0.0,0.0,0.0,0.0,0.0,0.0,0.0,0.0,0.0,0.0,0.0,0.0,0.0,0.0,0.0,0.0,0.0,0.0,0.0,0.0,0.0,0.0,0.0,0.0,0.0,0.0,0.0,0.0,0.0,0.0,0.0,0.0,0.0,0.0,0.0,0.0,0.0,0.0,0.0,0.0,0.0,0.0,0.0,0.0,0.0,0.0,0.0,0.0,0.0,0.0,0.0,0.0,0.0,4.162,4.4594,4.9044,4.9946,4.9503,4.7835,4.5361,4.1109,3.4525,3.0726,0.0,0.0,0.0,0.0,0.0,0.0,0.0,0.0,0.0,0.0,0.0,0.0,0.0,0.0,0.0,0.0,0.0,0.0,0.0,0.0,0.0,0.0,0.0,0.0,0.0,0.0,0.0,0.0,0.0,0.0,0.0,0.0,0.0,0.0,0.0,0.0,0.0,0.0,0.0,0.0,0.0,0.0,0.0,0.0,0.0,0.0,0.0,0.0,0.0,0.0,0.0,0.0,0.0,0.0,0.0,0.0,0.0,0.0,0.0,0.0,0.0,0.0,0.0,0.0,0.0,0.0,0.0,0.0,0.0,0.0,0.0,0.0,0.0,0.0,0.0,0.0,0.0,0.0,0.0,0.0,0.0,0.0,0.0,0.0,0.0,0.0,0.0,0.0,0.0,0.0,0.0,0.0,0.0,0.0,0.0,0.0,0.0,0.0,0.0,0.0,0.0,0.0,4.2963,4.7414,5.0198,4.9775,4.8602,4.6934,4.2352,3.7996,3.4342,2.8023,0.0,0.0,0.0,0.0,0.0,0.0,0.0,0.0,0.0,0.0,0.0,0.0,0.0,0.0,0.0,0.0,0.0,0.0,0.0,0.0,0.0,0.0,0.0,0.0,0.0,0.0,0.0,0.0,0.0,0.0,0.0,0.0,0.0,0.0,0.0,0.0,0.0,0.0,0.0,0.0,0.0,0.0,0.0,0.0,0.0,0.0,0.0,0.0,0.0,0.0,0.0,0.0,0.0,0.0,0.0,0.0,0.0,0.0,0.0,0.0,0.0,0.0,0.0,0.0,0.0,0.0,0.0,0.0,0.0,0.0,0.0,0.0,0.0,0.0,0.0,0.0,0.0,0.0,0.0,0.0,0.0,0.0,0.0,0.0,0.0,0.0,0.0,0.0,0.0,0.0,0.0,0.0,0.0,0.0,0.0,0.0,0.0,0.0,0.0,0.0,0.0,0.0,4.101,4.5515,0.0,4.9039,4.8233,4.6009,4.2661,3.8295,3.2766,0.0,0.0,0.0,0.0,0.0,0.0,0.0,0.0,0.0,0.0,0.0,0.0,0.0,0.0,0.0,0.0,0.0,0.0,0.0,0.0,0.0,0.0,0.0,0.0,0.0,0.0,0.0,0.0,0.0,0.0,0.0,0.0,0.0,0.0,0.0,0.0,0.0,0.0,0.0,0.0,0.0,0.0,0.0,0.0,0.0,0.0,0.0,0.0,0.0,0.0,0.0,0.0,0.0,0.0,0.0,0.0,0.0,0.0,0.0,0.0,0.0,0.0,0.0,0.0,0.0,0.0,0.0,0.0,0.0,0.0,0.0,0.0,0.0,0.0,0.0,0.0,0.0,0.0,0.0,0.0,0.0,0.0,0.0,0.0,0.0,0.0,0.0,0.0,0.0,0.0,0.0,0.0,0.0,0.0,0.0,0.0,0.0,0.0,0.0,0.0,0.0,0.0,3.5507,4.0553,4.4939,0.0,4.846,4.7501,4.5489,4.2317,3.7855,3.1852,0.0,0.0,0.0,0.0,0.0,0.0,0.0,0.0,0.0,0.0,0.0,0.0,0.0,0.0,0.0,0.0,0.0,0.0,0.0,0.0,0.0,0.0,0.0,0.0,0.0,0.0,0.0,0.0,0.0,0.0,0.0,0.0,0.0,0.0,0.0,0.0,0.0,0.0,0.0,0.0,0.0,0.0,0.0,0.0,0.0,0.0,0.0,0.0,0.0,0.0,0.0,0.0,0.0,0.0,0.0,0.0,0.0,0.0,0.0,0.0,0.0,0.0,0.0,0.0,0.0,0.0,0.0,0.0,0.0,0.0,0.0,0.0,0.0,0.0,0.0,0.0,0.0,0.0,0.0,0.0,0.0,0.0,0.0,0.0,0.0,0.0,0.0,0.0,0.0,0.0,0.0,0.0,0.0,0.0,0.0,0.0,0.0,0.0,0.0,0.0,0.0,0.0,3.7313,4.2221,4.6598,4.9988,4.8116,4.6278,4.5435,4.0802,3.6102,0.0,0.0,0.0,0.0,0.0,0.0,0.0,0.0,0.0,0.0,0.0,0.0,0.0,0.0,0.0,0.0,0.0,0.0,0.0,0.0,0.0,0.0,0.0,0.0,0.0,0.0,0.0,0.0,0.0,0.0,0.0,0.0,0.0,0.0,0.0,0.0,0.0,0.0,0.0,0.0,0.0,0.0,0.0,0.0,0.0,0.0,0.0,0.0,0.0,0.0,0.0,0.0,0.0,0.0,0.0,0.0,0.0,0.0,0.0,0.0,0.0,0.0,0.0,0.0,0.0,0.0,0.0,0.0,0.0,0.0,0.0,0.0,0.0,0.0,0.0,0.0,0.0,0.0,0.0,0.0,0.0,0.0,0.0,0.0,0.0,0.0,0.0,0.0,0.0,0.0,0.0,0.0,0.0,0.0,0.0,0.0,0.0,0.0,0.0,0.0,0.0,0.0,0.0,3.582,4.2083,4.6703,4.7759,4.7184,4.6129,4.4613,4.0436,3.5814,3.0923,0.0,0.0,0.0,0.0,0.0,0.0,0.0,0.0,0.0,0.0,0.0,0.0,0.0,0.0,0.0,0.0,0.0,0.0,0.0,0.0,0.0,0.0,0.0,0.0,0.0,0.0,0.0,0.0,0.0,0.0,0.0,0.0,0.0,0.0,0.0,0.0,0.0,0.0,0.0,0.0,0.0,0.0,0.0,0.0,0.0,0.0,0.0,0.0,0.0,0.0,0.0,0.0,0.0,0.0,0.0,0.0,0.0,0.0,0.0,0.0,0.0,0.0,0.0,0.0,0.0,0.0,0.0,0.0,0.0,0.0,0.0,0.0,0.0,0.0,0.0,0.0,0.0,0.0,0.0,0.0,0.0,0.0,0.0,0.0,0.0,0.0,0.0,0.0,0.0,0.0,0.0,0.0,0.0,0.0,0.0,0.0,0.0,0.0,0.0,0.0,0.0,0.0,3.5948,4.149,4.5687,4.7048,4.6628,4.5803,4.471,4.1431,3.7229,3.2114,0.0,0.0,0.0,0.0,0.0,0.0,0.0,0.0,0.0,0.0,0.0,0.0,0.0,0.0,0.0,0.0,0.0,0.0,0.0,0.0,0.0,0.0,0.0,0.0,0.0,0.0,0.0,0.0,0.0,0.0,0.0,0.0,0.0,0.0,0.0,0.0,0.0,0.0,0.0,0.0,0.0,0.0,0.0,0.0,0.0,0.0,0.0,0.0,0.0,0.0,0.0,0.0,0.0,0.0,0.0,0.0,0.0,0.0,0.0,0.0,0.0,0.0,0.0,0.0,0.0,0.0,0.0,0.0,0.0,0.0,0.0,0.0,0.0,0.0,0.0,0.0,0.0,0.0,0.0,0.0,0.0,0.0,0.0,0.0,0.0,0.0,0.0,0.0,0.0,0.0,0.0,0.0,0.0,0.0,0.0,0.0,0.0,0.0,0.0,0.0,0.0,0.0,3.7072,4.0766,4.4135,4.7248,4.63,4.5381,4.5285,4.3022,3.9544,3.4735,0.0,0.0,0.0,0.0,0.0,0.0,0.0,0.0,0.0,0.0,0.0,0.0,0.0,0.0,0.0,0.0,0.0,0.0,0.0,0.0,0.0,0.0,0.0,0.0,0.0,0.0,0.0,0.0,0.0,0.0,0.0,0.0,0.0,0.0,0.0,0.0,0.0,0.0,0.0,0.0,0.0,0.0,0.0,0.0,0.0,0.0,0.0,0.0,0.0,0.0,0.0,0.0,0.0,0.0,0.0,0.0,0.0,0.0,0.0,0.0,3.608,0.0,0.0,0.0,0.0,0.0,0.0,0.0,0.0,0.0,0.0,0.0,0.0,0.0,0.0,0.0,0.0,0.0,0.0,0.0,0.0,0.0,0.0,0.0,0.0,0.0,0.0,0.0,0.0,0.0,0.0,0.0,0.0,0.0,0.0,0.0,0.0,0.0,0.0,0.0,0.0,0.0,3.643,4.1061,4.4498,4.586,4.5743,4.5263,4.4518,4.2176,3.9426,3.6353,0.0,0.0,0.0,0.0,0.0,0.0,0.0,0.0,0.0,0.0,0.0,0.0,0.0,0.0,0.0,0.0,0.0,0.0,0.0,0.0,0.0,0.0,0.0,0.0,0.0,0.0,0.0,0.0,0.0,0.0,0.0,0.0,0.0,0.0,0.0,0.0,0.0,0.0,0.0,0.0,0.0,0.0,0.0,0.0,0.0,0.0,0.0,0.0,0.0,0.0,0.0,0.0,0.0,0.0,0.0,0.0,0.0,0.0,0.0,0.0,0.0,3.7916,0.0,0.0,0.0,0.0,0.0,0.0,0.0,0.0,0.0,0.0,0.0,0.0,0.0,0.0,0.0,0.0,0.0,0.0,0.0,0.0,0.0,0.0,0.0,0.0,0.0,0.0,0.0,0.0,0.0,0.0,0.0,0.0,0.0,0.0,0.0,0.0,0.0,0.0,0.0,0.0,3.6784,4.1385,4.4611,4.5361,4.5513,4.534,4.4863,4.2921,4.0787,3.865,3.4477,0.0,0.0,0.0,0.0,0.0,0.0,0.0,0.0,0.0,0.0,0.0,0.0,0.0,0.0,0.0,0.0,0.0,0.0,0.0,0.0,0.0,0.0,0.0,0.0,0.0,0.0,0.0,0.0,0.0,0.0,0.0,0.0,0.0,0.0,0.0,0.0,0.0,0.0,0.0,0.0,0.0,0.0,0.0,0.0,0.0,0.0,0.0,0.0,0.0,0.0,0.0,0.0,0.0,0.0,0.0,4.7618,4.8864,4.9428,4.918,4.492,4.296,4.2541,0.0,0.0,0.0,0.0,0.0,0.0,0.0,0.0,0.0,0.0,0.0,0.0,0.0,0.0,0.0,0.0,0.0,0.0,0.0,0.0,0.0,0.0,0.0,0.0,0.0,4.1112,4.117,0.0,0.0,0.0,0.0,0.0,0.0,0.0,0.0,0.0,0.0,0.0,0.0,3.7827,4.181,4.4592,4.5343,4.5495,4.5531,4.5513,4.3993,4.2492,4.1239,3.7763,3.4515,0.0,0.0,0.0,0.0,0.0,0.0,0.0,0.0,0.0,0.0,0.0,0.0,0.0,0.0,0.0,0.0,0.0,0.0,0.0,0.0,0.0,0.0,0.0,0.0,0.0,0.0,0.0,0.0,0.0,0.0,0.0,0.0,2.8593,3.1035,0.0,0.0,0.0,0.0,0.0,0.0,0.0,0.0,0.0,0.0,0.0,0.0,0.0,0.0,4.6338,4.887,5.0506,5.1235,5.2969,5.4091,5.4641,5.4152,5.3904,5.3816,5.314,0.0,4.6121,4.3438,0.0,0.0,0.0,0.0,0.0,0.0,0.0,0.0,0.0,0.0,0.0,0.0,0.0,0.0,0.0,0.0,0.0,0.0,0.0,0.0,0.0,0.0,4.2775,4.4018,4.4055,4.394,0.0,3.8745,3.3058,3.0761,0.0,0.0,0.0,0.0,0.0,0.0,0.0,0.0,3.9627,4.2569,4.4607,4.5399,4.5586,4.564,4.5586,4.4061,4.3291,4.3758,3.9884,3.7344,3.684,3.2958,0.0,0.0,0.0,0.0,0.0,0.0,0.0,0.0,0.0,0.0,0.0,0.0,0.0,0.0,0.0,0.0,0.0,0.0,0.0,0.0,0.0,0.0,0.0,0.0,0.0,0.0,0.0,0.0,0.0,2.9089,3.24,3.4004,3.4678,3.4457,0.0,0.0,0.0,0.0,0.0,0.0,0.0,0.0,0.0,4.7643,4.8904,5.0156,5.1455,5.3511,5.4713,5.5084,5.6249,5.6808,5.6729,5.6826,5.6633,5.619,5.6691,5.5302,5.2466,4.8971,4.6329,4.421,0.0,0.0,0.0,0.0,0.0,0.0,4.1859,0.0,0.0,0.0,0.0,0.0,0.0,0.0,0.0,0.0,0.0,0.0,0.0,0.0,0.0,4.6602,4.7193,4.7403,4.6715,4.4058,4.0747,0.0,3.6594,3.5588,3.1799,0.0,0.0,0.0,0.0,0.0,4.0877,4.3467,4.5024,4.4893,4.5368,4.5288,4.4289,4.3522,4.3025,4.284,4.0652,3.9106,3.8542,3.5844,3.2556,0.0,0.0,0.0,0.0,0.0,0.0,0.0,0.0,0.0,0.0,0.0,0.0,0.0,0.0,0.0,0.0,0.0,0.0,0.0,0.0,0.0,0.0,0.0,0.0,0.0,0.0,0.0,0.0,3.2883,3.5976,3.7065,3.9093,3.9341,0.0,0.0,0.0,0.0,0.0,0.0,4.7512,4.8837,5.0487,5.2603,5.3509,5.4545,5.5758,5.7018,5.7735,5.7911,5.8452,5.8432,5.7892,5.8317,5.8047,5.733,5.8199,5.8162,5.7236,5.3681,5.1522,5.0175,4.7256,4.6101,0.0,4.5866,4.5519,4.5356,4.705,4.7157,4.6355,4.4995,0.0,4.3367,4.0607,0.0,0.0,0.0,0.0,4.3155,4.3634,0.0,4.7676,4.8118,4.9171,4.9609,4.7965,4.8139,4.7162,0.0,4.2161,4.1334,3.6293,0.0,0.0,0.0,0.0,4.12,4.2225,4.4295,4.5426,4.479,4.5307,4.5076,4.3554,4.3233,4.2797,4.2074,4.1058,4.0257,3.9783,3.8139,3.5461,3.1651,0.0,0.0,0.0,0.0,0.0,0.0,0.0,0.0,0.0,0.0,0.0,0.0,0.0,0.0,0.0,0.0,0.0,0.0,0.0,0.0,0.0,0.0,0.0,0.0,0.0,0.0,0.0,0.0,0.0,4.0544,4.3675,0.0,0.0,0.0,0.0,4.556,4.8036,5.025,5.1999,5.4471,5.6246,5.7135,5.8012,5.845,5.8402,5.8486,5.8896,5.957,5.9628,5.9588,5.9468,5.8799,5.8047,5.7255,5.8124,5.8433,5.82,5.6463,5.4707,5.2935,5.118,5.0486,5.0389,4.963,4.9751,5.022,4.9579,4.9313,4.9183,4.9106,4.7953,4.6435,4.5417,4.3981,0.0,0.0,4.3847,4.4322,4.599,4.6546,4.7084,4.8755,4.9154,4.9382,5.0134,5.0303,4.9015,0.0,4.3406,4.2902,4.2537,0.0,0.0,4.1165,4.1604,4.2316,4.397,4.5009,4.5603,4.5545,4.5637,4.5327,4.4402,4.3574,4.3057,4.2951,4.1349,4.076,4.1547,3.9902,3.774,3.5097,3.0942,0.0,0.0,0.0,0.0,0.0,0.0,0.0,0.0,0.0,0.0,0.0,0.0,0.0,0.0,0.0,0.0,0.0,0.0,0.0,0.0,0.0,0.0,0.0,0.0,0.0,0.0,0.0,0.0,4.5695,4.7991,0.0,0.0,4.8222,4.9718,5.1649,5.3164,5.4757,5.6427,5.7405,5.8018,5.825,5.9084,5.9481,5.9452,5.992,6.0288,6.0597,6.0555,6.0285,5.9804,6.0017,5.9669,5.8954,5.9263,5.9669,5.9997,5.8916,5.768,5.6289,5.4053,5.3186,5.309,5.2278,5.2144,5.2319,5.2028,5.1914,5.1837,5.1797,5.1353,5.0584,4.9142,4.8681,4.845,4.7563,4.7693,4.8245,4.8879,4.9054,4.9207,4.9886,5.0019,4.992,4.9671,5.0054,4.9844,4.7735,4.7144,4.6474,4.4882,4.4288,4.4057,4.4171,4.465,4.5453,4.6658,4.66,4.6039,4.499,4.4877,4.4071,4.2116,4.1628,4.1197,4.0575,3.9999,3.981,4.0065,3.9457,3.7926,3.5411,3.2197,2.8458,0.0,0.0,0.0,0.0,0.0,0.0,0.0,0.0,0.0,0.0,0.0,0.0,0.0,0.0,0.0,0.0,0.0,0.0,0.0,0.0,0.0,0.0,0.0,0.0,0.0,0.0,4.7128,4.8497,5.1434,5.2794,5.133,5.2756,5.4465,5.6155,5.7088,5.8078,5.9186,5.9507,5.9769,6.0011,6.0251,6.0491,6.0766,6.0654,6.0906,6.1524,6.0865,6.046,6.0268,6.05,6.0172,5.9436,5.9746,6.0152,6.0538,5.9997,5.9378,5.8603,5.6906,5.6057,5.5711,5.492,5.4438,5.413,5.3822,5.3475,5.3203,5.3142,5.2929,5.2447,5.1312,5.1158,5.1118,4.9901,4.9975,5.0435,5.0435,5.0457,5.0478,5.0521,5.0521,5.0368,4.9731,5.0097,5.0349,4.9752,4.9407,4.8679,4.705,4.6992,4.6992,4.6455,4.6877,4.749,4.8102,4.7696,4.6827,4.5449,4.5266,4.4209,4.1673,4.1401,4.0877,3.9711,3.9669,3.9688,3.9637,3.9029,3.7789,3.5837,3.2879,2.9984,2.7143,0.0,0.0,0.0,0.0,0.0,0.0,0.0,0.0,0.0,0.0,0.0,0.0,0.0,0.0,0.0,0.0,0.0,0.0,0.0,0.0,0.0,0.0,0.0,4.2721,4.6906,4.9789,4.8983,5.4047,5.664,5.4148,5.6894,5.8855,5.8875,5.9652,6.0137,6.0137,6.0934,6.1755,6.2506,6.1729,6.1659,6.2422,6.0708,6.0692,6.2394,6.0634,6.0226,6.1018,6.0229,5.9399,5.8626,5.9437,5.9804,5.9824,5.9746,5.9725,5.9745,5.9666,5.9126,5.8277,5.7487,5.6638,5.5769,5.4863,5.3974,5.328,5.328,5.2642,5.189,5.1932,5.1275,5.0538,5.05,5.05,5.05,5.05,5.0542,5.0603,5.0603,5.0603,5.0603,5.0603,5.0622,5.0662,5.0721,4.995,4.9294,4.9335,4.8683,4.8145,4.8164,4.818,0.0,4.8144,4.8179,4.7869,4.7003,4.6873,4.5853,4.3362,4.306,4.2297,4.0604,4.0476,4.0463,4.0502,3.8876,3.7543,3.6651,3.3214,3.1388,3.1282,0.0,0.0,0.0,0.0,0.0,0.0,0.0,0.0,0.0,0.0,0.0,0.0,0.0,0.0,0.0,0.0,0.0,0.0,0.0,0.0,0.0,0.0,4.8457,4.8782,5.0583,5.2699,5.4928,5.662,5.7815,5.8348,5.9257,6.0061,6.0644,6.0909,6.105,6.105,6.1283,6.1196,6.0728,6.11,6.1087,6.0613,6.0711,6.1311,6.2394,6.1892,6.1795,6.2008,6.1795,6.1215,6.0364,6.0016,6.019,6.0693,6.0036,6.0133,6.0597,5.9282,5.8218,5.7446,5.7274,5.6638,5.5847,5.5434,5.5141,5.4946,5.4946,5.4389,5.358,5.3009,5.2241,5.1452,5.0757,5.0582,5.0542,5.0521,5.0521,5.0542,5.0582,5.0643,5.0643,5.0603,5.1064,5.1486,5.1485,5.1273,5.0909,5.0353,4.9507,4.9123,4.9798,0.0,0.0,4.9024,4.8581,4.7887,4.7056,4.6405,4.5466,4.4102,4.2277,4.1011,4.0518,3.9906,3.9849,4.0463,3.9955,3.8931,3.7429,3.5775,3.4333,0.0,0.0,0.0,0.0,0.0,0.0,0.0,0.0,0.0,0.0,0.0,0.0,0.0,0.0,0.0,0.0,0.0,0.0,0.0,0.0,0.0,0.0,4.8209,5.1187,5.2719,5.3669,5.4684,5.593,5.7322,5.8576,5.9558,6.0293,6.089,6.1357,6.1394,6.14,6.14,6.1366,6.1279,6.1077,6.1546,6.1727,6.1539,6.1639,6.2123,6.2955,6.2201,6.2046,6.2394,6.2027,6.1582,0.0,6.0615,6.0673,6.106,6.0539,6.0654,0.0,0.0,0.0,0.0,0.0,5.6348,5.5885,5.5765,5.5703,5.5698,5.6082,5.5369,5.4389,5.4278,5.3145,5.1798,5.1257,5.0892,5.0623,5.0562,5.0563,5.0563,5.0542,5.0623,5.0663,5.0582,5.0947,5.1313,5.1333,0.0,0.0,5.0797,5.0201,5.0009,5.0529,4.9798,4.9394,0.0,4.9581,4.8964,4.8135,4.7598,4.6773,4.5488,4.3698,0.0,0.0,0.0,4.0677,4.0432,4.0326,0.0,0.0,0.0,3.7908,0.0,0.0,0.0,0.0,3.7154,3.7411,0.0,0.0,0.0,0.0,0.0,0.0,0.0,0.0,0.0,0.0,0.0,0.0,0.0,0.0,0.0,0.0,5.0569,5.2571,5.4749,5.5899,5.5968,5.4558,5.7118,5.9045,5.9199,6.0526,6.1408,6.1408,6.1408,6.14,6.14,0.0,0.0,0.0,0.0,6.3006,6.3798,6.3029,6.305,6.3825,6.2278,6.1892,6.253,6.1756,6.135,6.1253,6.1253,6.1311,6.1389,6.1273,6.1176,6.108,6.0925,5.9959,5.8452,5.685,5.6155,0.0,0.0,0.0,0.0,5.6742,5.5893,5.4677,5.5472,5.3951,5.1949,5.1853,5.1335,5.0818,5.0622,5.072,5.0798,5.0656,5.0737,5.0798,5.0677,5.0696,5.0737,5.0817,5.1334,5.1582,5.0932,5.0837,5.0779,5.0645,5.0567,0.0,5.0547,5.0603,5.0331,4.9449,0.0,0.0,4.7178,4.6142,4.5259,4.4489,4.3611,4.2408,4.0805,4.0825,4.0807,4.0668,4.0764,4.186,4.3985,4.3985,4.4297,4.4827,4.0272,4.009,0.0,0.0,0.0,0.0,0.0,0.0,0.0,0.0,0.0,0.0,0.0,0.0,0.0,0.0,0.0,4.9717,5.2441,5.4385,5.4192,5.5509,5.6873,5.7877,5.8579,5.9552,6.0945,6.1314,6.1479,6.1479,6.1421,6.1389,6.14,6.1997,0.0,6.2516,6.3143,6.3571,6.3804,6.363,6.3941,6.4735,0.0,0.0,6.3439,6.3265,6.2801,6.2162,6.2104,6.2491,6.3129,6.2314,6.1597,6.0941,6.0287,5.9824,5.9418,5.8257,5.7445,5.6865,5.6804,5.6742,5.6694,5.6934,5.6299,5.5491,5.5645,5.4437,0.0,5.2087,5.1778,5.149,5.0715,5.1062,5.1582,5.1538,5.1581,5.1584,5.1542,5.1559,5.1557,5.1579,5.1713,5.1749,5.1617,5.1622,5.1433,5.0779,5.0086,4.9663,4.9734,4.9735,4.9428,4.8524,4.8447,4.8295,4.7895,4.6472,4.5491,4.5282,4.4496,4.3846,4.3388,4.4039,4.4343,4.4217,4.484,4.5361,4.5784,4.5735,4.5735,4.5738,4.4109,4.3718,0.0,0.0,0.0,0.0,0.0,0.0,0.0,0.0,0.0,0.0,0.0,4.5785,4.6179,0.0,5.1689,5.2519,5.4443,5.5697,5.5264,5.6288,5.7107,5.7107,5.7838,5.8695,5.9561,6.0769,6.1312,6.0884,6.1571,6.2022,6.206,6.1982,6.2338,6.3172,6.3548,6.3959,6.4405,6.4831,6.5025,6.4986,6.4561,6.4097,6.3631,6.3187,6.2973,6.2953,6.2911,6.3183,6.3533,6.2601,6.173,6.0959,6.0555,6.0132,5.9629,5.8661,5.806,5.7713,5.7651,5.7627,5.7659,5.8107,5.7376,5.6434,5.6876,5.5245,5.3224,5.3223,5.2568,5.1894,5.1872,5.216,5.2372,5.1907,5.1792,5.1698,5.1294,5.1176,5.1289,5.1774,5.1811,5.1811,5.1851,5.1873,5.1625,5.0779,5.0317,5.0067,5.0102,5.0103,4.9912,4.9508,4.9468,4.945,4.9413,4.7818,4.6837,4.6801,4.5975,4.5649,4.5991,4.6392,4.6536,4.6405,4.6801,4.6958,4.6841,4.6815,4.6739,4.6633,4.6199,4.5704,0.0,0.0,0.0,0.0,0.0,0.0,0.0,0.0,4.4726,4.7695,4.9274,5.061,5.2132,5.3103,5.4123,5.5484,5.6445,5.6944,5.6784,5.731,5.7154,5.5634,5.6775,5.7769,5.7934,5.9951,6.1028,6.0503,6.1816,6.2667,6.2701,6.2292,6.2629,6.3864,6.4145,6.4614,6.5276,6.5973,6.5935,6.5218,6.4522,6.4077,6.3822,6.3106,6.3143,6.3775,6.393,6.3772,6.3425,6.2731,6.1767,6.0725,6.0725,6.0301,5.9567,5.8852,5.8464,5.831,5.831,5.8424,5.863,5.9111,5.836,5.7343,5.7684,5.5876,5.3781,5.4145,5.3356,5.2491,5.2836,5.3047,5.2951,5.2026,5.1794,5.1621,5.0968,5.0792,5.0962,5.1718,5.1968,5.2005,5.1893,5.1875,5.1586,5.0741,5.0664,5.0702,5.0701,5.0682,5.0644,5.0471,5.0452,5.0452,5.0433,4.9163,4.8356,4.8318,4.7453,4.724,4.7867,4.7862,4.785,4.7867,4.7862,4.7846,4.7889,4.7719,4.7591,4.7511,4.7286,4.6769,3.6364,3.8378,4.0837,4.3352,4.3567,4.494,0.0,0.0,5.0429,5.4589,5.4998,5.4889,5.5845,5.668,5.7285,5.7484,5.8247,5.8545,5.7763,5.7724,5.7432,5.6469,5.7154,5.7992,5.8769,5.9804,6.0692,6.1303,6.2243,6.275,6.2701,6.4016,6.4504,6.3922,6.5273,6.6088,6.6241,6.6263,6.6225,6.605,6.5973,6.5507,6.4749,6.4588,6.4566,6.4701,6.5415,6.4829,6.3419,6.3367,6.1918,5.9755,5.9755,5.9656,5.9515,5.9547,5.9027,5.831,5.8371,5.8852,5.9329,5.8655,5.8351,5.7967,5.6458,5.5765,5.5208,5.3762,5.376,5.3855,5.2352,5.2585,5.2951,5.2026,5.1794,5.1774,5.1698,5.1655,5.1691,5.1787,5.2382,5.2631,5.1928,5.1794,5.1545,5.0798,5.0702,5.0702,5.0701,5.0702,5.0414,4.97,4.9586,4.9548,4.9548,4.9375,4.924,4.9182,4.8356,4.7874,4.7905,4.7884,4.8204,4.8829,4.8781,4.9024,4.9614,4.8894,4.8426,4.8173,4.7495,4.7118,4.37,4.4816,4.5503,0.0,4.9583,5.116,5.392,5.4206,5.4683,5.748,5.7382,5.6909,5.7235,5.7562,5.7792,0.0,5.8955,5.9196,5.731,5.7485,5.7122,5.5256,5.5762,5.68,5.8172,5.9484,6.0594,6.1448,6.2232,6.3109,6.4109,6.3809,6.4375,6.6004,6.5758,6.6069,6.7096,6.6573,6.6264,6.6185,6.5199,6.5023,6.5476,6.3968,6.3808,6.4701,6.5028,6.4489,6.331,6.2872,6.1736,6.025,5.9749,5.9557,5.9557,5.9579,5.9675,5.9768,5.9791,6.0022,6.0153,5.9287,5.869,5.8115,5.684,5.5436,5.4244,5.401,5.3857,5.3703,5.3451,5.3663,5.3741,5.2836,5.2197,5.1677,5.1258,5.1485,5.196,5.2504,5.2487,5.2389,5.2523,5.2139,5.1525,5.0778,5.0682,5.0702,5.0702,5.0702,5.0568,5.024,5.0163,5.0164,5.0164,4.9663,4.9547,5.0027,4.9179,4.8867,4.9341,4.9315,4.9423,4.9692,4.9619,4.9714,4.9952,4.953,4.9277,4.9174,4.8777,4.8597,4.8287,4.9384,0.0,5.1366,5.3897,5.5821,5.522,5.6044,5.7499,5.9414,5.8417,5.7456,5.8342,5.7942,5.7695,5.8407,5.9586,5.9651,5.7519,5.7558,5.7115,5.5262,5.5133,5.6074,5.8281,5.9328,6.03,6.1394,6.2191,6.3375,6.5103,6.3732,6.4125,6.684,6.5737,6.568,6.6864,6.6477,6.6148,6.5857,6.4618,6.4616,6.563,6.3753,6.3646,6.4955,6.4955,6.4455,6.3589,6.2762,6.1627,6.0334,5.9469,5.9165,5.9165,5.9119,5.9681,6.0419,6.0165,6.0265,6.0285,5.9142,5.8393,5.7723,5.6604,5.5143,5.3951,5.4355,5.4182,5.3972,5.4395,5.4318,5.3972,5.3356,5.2333,5.1486,5.1394,5.1814,5.2466,5.3374,5.3049,5.2797,5.3392,5.2564,5.1602,5.1046,5.0797,5.0663,5.0702,5.0702,5.0702,5.0702,5.0702,5.0683,5.0663,5.0047,4.991,5.0523,4.9863,4.972,5.0352,5.0302,5.0255,5.0163,5.0108,5.0031,4.9952,4.9862,4.9778,4.975,4.9653,4.9593,4.7842,5.0688,5.3615,5.2858,5.522,5.7738,5.7762,5.7815,5.8589,6.1093,5.8289,5.638,5.9706,5.8309,5.7445,5.992,6.0358,6.0073,5.9157,5.8312,5.7765,5.7693,5.6218,5.6524,0.0,5.9494,5.9686,6.1279,6.221,6.3439,6.511,6.4346,6.4291,6.5242,6.5153,6.5099,6.5063,6.5838,6.5799,6.5044,6.4906,6.4885,6.4943,6.4714,6.5062,6.5859,6.5859,6.5378,6.4493,6.3628,6.1733,5.936,5.8553,5.8203,5.815,5.8131,5.8769,5.9502,5.8591,5.8883,5.9348,5.7562,5.7005,5.6722,5.5004,5.4962,5.5366,5.4617,5.4987,5.5453,5.4703,5.3876,5.3241,5.3222,5.1933,5.1164,5.2779,5.3145,5.3433,5.4299,5.4434,5.4434,5.4453,5.2988,5.1814,5.1855,5.1123,5.0623,5.0683,5.0702,5.0702,5.0702,5.0702,5.0663,5.0603,5.0584,5.0523,5.0412,5.0393,5.0352,5.0302,5.0255,5.0163,5.0108,5.0031,4.9925,4.9807,4.9807,4.9721,4.9623,4.9604,4.9563,5.2858,5.4635,5.5923,5.6743,5.8246,5.9397,5.8875,5.9179,5.9637,5.9917,5.748,5.5644,5.6796,5.6323,5.6024,5.6879,5.9412,6.0553,5.852,5.9474,5.9533,5.7219,5.7441,0.0,0.0,0.0,0.0,6.2873,6.1783,6.2434,6.5821,6.4607,6.4729,6.6727,6.6167,6.5819,6.5799,6.5548,6.5237,6.4925,6.4883,6.4222,6.3141,6.4209,6.4812,6.5032,6.5032,6.4853,6.4456,6.3641,6.2381,6.0923,6.0142,5.984,5.9758,5.9182,5.9215,5.9496,5.9072,5.8803,5.8466,5.729,5.6947,5.678,5.5624,5.4682,5.4064,5.4329,5.3815,5.324,5.3507,5.3373,5.3203,5.3203,5.2298,5.1758,5.2932,5.3182,5.3392,5.4318,5.4491,5.4491,5.443,5.3467,5.2466,5.191,5.1162,5.0663,5.0702,5.0702,5.0702,5.0702,5.0702,5.0663,5.0603,5.0562,5.05,5.0412,5.0325,5.0255,5.0236,5.0182,5.0133,5.0108,5.0031,4.9952,4.9871,4.9835,4.9721,4.9593,4.9593,4.9514,5.7035,5.8187,5.8675,5.9768,6.0686,6.0959,5.9495,5.9331,5.9165,5.7994,5.569,5.382,5.3535,5.3222,5.3513,5.5045,5.7617,5.9363,5.9201,6.0378,6.0626,5.8975,5.8975,5.9206,0.0,0.0,0.0,6.3268,6.1963,6.2575,6.6212,6.4746,6.4827,6.7058,6.6205,6.5856,6.6165,6.5642,6.5194,6.4842,6.482,6.4197,6.3133,6.4205,6.4831,6.507,6.5045,6.4994,6.491,6.4052,6.2964,6.1728,6.0911,6.0393,6.0029,5.9122,5.884,5.8909,5.8884,5.8371,5.7593,5.6663,5.6399,5.6326,5.5791,5.4869,5.4081,5.4306,5.3832,5.322,5.314,5.3392,5.3587,5.328,5.2509,5.2181,5.3414,5.3393,5.3488,5.4703,5.4703,5.4587,5.4814,5.3889,5.2737,5.1544,5.0989,5.0702,5.0702,5.0702,5.0702,5.0702,5.0702,5.0663,5.0582,5.05,5.0435,5.0325,5.0231,5.0163,5.0163,5.0108,5.0057,5.0057,5.0005,4.9933,4.9898,4.9807,4.9721,4.9634,4.9593,4.9452,6.0061,6.1174,6.1837,6.1837,6.2345,6.2189,5.9612,5.8375,5.7252,5.5404,5.2979,5.0933,0.0,0.0,5.0273,5.4316,5.5349,5.7037,6.1076,6.1153,6.1329,0.0,0.0,0.0,0.0,0.0,0.0,6.258,0.0,6.3651,6.6212,6.4821,6.4672,6.6303,6.5548,6.5469,6.616,6.6055,6.5589,6.474,6.4778,6.4752,6.4682,6.4682,6.5139,6.5897,6.582,6.5774,6.5678,6.4772,6.3376,6.1704,6.0799,5.9892,5.8986,5.8091,5.7794,5.7856,5.7991,5.7508,5.6668,5.5725,5.5408,5.5413,5.5423,5.5408,5.5216,5.453,5.4866,5.5145,5.3563,5.3834,5.428,5.3453,5.2626,5.251,5.4184,5.3876,5.3741,5.5376,5.5088,5.478,5.5453,5.4241,5.2605,5.0853,5.0643,5.0702,5.0702,5.0702,5.0702,5.0702,5.0702,5.0643,5.0521,5.0435,5.0325,5.0212,5.0133,5.0108,5.0108,5.0031,4.9986,4.9986,4.9933,4.9898,4.9879,4.9778,4.9692,4.9692,4.9551,4.9409,6.2032,6.2969,6.3633,6.3633,6.2345,6.0568,5.8636,5.704,5.5091,5.2042,4.9891,4.792,0.0,0.0,0.0,5.0449,5.5898,0.0,6.0669,6.3843,0.0,6.4049,0.0,6.449,6.3826,6.2585,0.0,0.0,6.2463,6.2827,6.5358,6.5652,6.6219,6.7232,6.7678,6.7638,6.7151,6.643,6.5324,6.3852,6.4489,6.4752,6.4682,6.4682,6.5139,6.5897,6.582,6.5402,6.4734,6.4496,6.3274,6.1554,6.1382,6.0408,5.9071,5.8833,5.8035,5.7085,5.7065,5.651,5.5744,5.5465,5.548,5.5435,5.4863,5.4252,5.387,5.4249,5.364,5.3047,5.387,5.4276,5.4454,5.4226,5.3993,5.4147,5.5306,5.4823,5.4493,5.5574,5.5572,5.5049,5.403,5.3491,5.2645,5.0932,5.0702,5.0702,5.0702,5.0702,5.0702,5.0702,5.0663,5.0603,5.05,5.0435,5.0325,5.0212,5.0133,5.0082,5.0031,4.9978,4.9925,4.9925,4.9925,4.9871,4.9835,4.9807,4.9721,4.9604,4.9495,4.934,6.4472,6.5058,6.5312,6.4954,6.3193,6.0607,5.7016,5.483,5.239,4.8154,4.6241,4.4524,4.1931,4.4343,4.7065,0.0,0.0,0.0,6.1182,6.437,6.6159,0.0,6.6154,0.0,6.5336,6.4426,6.4079,0.0,6.3265,6.3278,6.5054,6.5909,6.6552,6.6961,6.7424,6.7383,6.6836,6.6676,6.5916,6.4598,6.5057,6.5264,6.5235,6.5235,6.5461,6.5897,0.0,6.5194,6.44,6.4345,6.3188,6.1457,6.1124,6.0399,5.9398,5.8311,5.7611,5.7086,5.6371,5.5798,5.5396,5.5383,5.5456,5.5451,5.5036,5.4619,5.4276,5.4389,5.4007,5.3605,5.3793,5.4451,5.4879,5.4109,5.4204,5.4608,5.517,5.4839,5.4701,5.5591,5.5724,5.5164,5.3491,5.3203,5.2626,5.0952,5.0702,5.0702,5.0702,5.0663,5.0663,5.0702,5.0623,5.0542,5.05,5.0412,5.0302,5.0212,5.0108,5.0057,5.0005,4.9898,4.9843,4.9843,4.9816,4.9788,4.975,4.9721,4.9663,4.9593,4.9434,4.9257,6.6815,6.6937,6.6609,6.5804,6.3939,6.0822,5.5127,5.214,4.9114,4.4055,4.2337,4.0977,3.8526,4.0457,4.3507,4.6875,0.0,5.5349,6.1902,6.3871,6.5215,6.6783,6.711,6.718,6.705,6.6197,6.5538,6.5317,6.4726,6.4605,6.5078,6.5972,6.6496,6.6573,6.6492,6.637,6.6187,6.6892,6.683,6.5996,6.5928,6.5923,6.5897,6.5897,6.5897,6.5872,0.0,0.0,6.42,6.4078,6.2947,6.1236,6.0472,6.0004,5.946,5.7225,5.6778,5.7167,5.5854,5.5403,5.5384,5.5402,5.5408,5.5413,5.5416,5.5442,5.5311,5.46,5.4949,5.5222,5.3793,5.4607,5.54,5.3896,5.4068,5.4587,5.4666,5.4624,5.4814,5.5549,5.5703,5.5164,5.3491,5.3203,5.2626,5.0952,5.0683,5.0702,5.0702,5.0643,5.0623,5.0683,5.0563,5.05,5.05,5.0371,5.0278,5.0188,5.0063,5.0005,4.9986,4.9871,4.975,4.9627,4.9683,4.9655,4.9512,4.9566,4.9574,4.9574,4.9371,4.9193,6.7654,6.7351,6.6618,6.5789,6.2115,5.768,5.3815,4.9384,4.4855,4.0405,3.8782,3.7611,3.572,3.9217,4.3315,4.6075,5.1203,5.6516,6.1256,6.4496,6.6748,0.0,6.9089,6.9645,6.8914,0.0,0.0,0.0,0.0,0.0,6.5174,6.6551,6.7696,6.8413,6.8372,6.7961,6.7161,6.736,6.6968,6.5996,6.6005,6.5938,6.5897,6.5846,6.582,6.5755,0.0,0.0,6.3216,6.3092,6.198,6.0308,6.0133,5.919,5.7821,5.6719,5.6026,5.5584,5.5344,5.5313,5.5384,5.5402,5.5432,5.5346,5.4718,5.4617,5.4643,5.4466,5.4545,5.4799,5.5164,5.5472,5.5647,5.54,5.5418,5.5513,5.5614,5.5614,5.5591,5.5686,5.5703,5.5164,5.3491,5.3142,5.2585,5.0933,5.0643,5.0623,5.0623,5.0663,5.0702,5.0702,5.0563,5.05,5.05,5.0371,5.0278,5.0188,5.0133,5.0019,4.9936,4.983,4.9456,4.8654,4.9332,4.934,4.8622,4.9273,4.9544,4.9415,4.9276,4.9164,6.7986,6.7464,6.6609,6.5804,6.1661,5.6547,5.1761,4.7038,4.2295,3.7546,3.5876,3.4888,3.358,3.6843,4.0447,4.2617,4.728,5.2594,5.825,6.1211,6.3943,6.7056,6.8895,6.9947,6.9966,6.9134,0.0,0.0,0.0,0.0,6.4496,6.5565,6.6632,6.7464,6.6612,6.634,6.672,6.6314,6.6055,6.5996,6.5958,6.5909,6.5846,6.582,6.5747,6.5682,0.0,0.0,6.3638,6.3024,6.1987,6.0651,5.9247,5.8444,5.792,5.6253,5.5703,5.5703,5.5301,5.5222,5.5294,5.5352,5.5408,5.538,5.5067,5.502,5.5064,5.5083,5.5105,5.5203,5.5588,5.5724,5.5745,5.5745,5.5724,5.5703,5.5724,5.5745,5.5745,5.5703,5.5703,5.5299,5.4087,5.347,5.2719,5.1451,5.0912,5.0777,5.1137,5.0872,5.0623,5.0603,5.0478,5.0393,5.0438,5.0325,5.0236,5.0188,5.0089,5.0012,4.9922,4.9787,4.9523,4.902,4.9394,4.9382,4.8957,4.9363,4.9502,4.9452,4.9295,4.9164,6.7771,6.7322,6.6561,6.5565,6.1252,5.5786,5.0117,4.5063,4.0223,3.5419,3.3598,3.2767,3.2438,3.4764,3.7559,4.0031,4.373,4.871,5.5622,5.8358,6.149,6.6486,6.8561,0.0,7.0511,6.9913,0.0,0.0,0.0,0.0,0.0,6.4693,6.5296,6.5915,6.4677,6.46,6.5853,6.517,6.5219,6.6001,6.5928,6.5853,6.5793,6.5767,6.5674,6.558,0.0,0.0,0.0,6.3356,6.2502,6.1419,5.914,5.8451,5.8407,5.6099,5.5588,5.5911,5.5313,5.5121,5.5229,5.5255,5.5333,5.5432,5.5551,5.5458,5.5385,5.5602,5.5525,5.5412,5.5412,5.559,5.5745,5.5724,5.5703,5.5682,5.5618,5.564,5.5624,5.5472,5.5434,5.5085,5.4086,5.3334,5.2564,5.1657,5.118,5.1102,5.1628,5.1193,5.0886,5.0996,5.0581,5.0425,5.0661,5.0569,5.0574,5.0722,5.0469,5.0252,5.0123,4.9854,4.9558,4.9329,4.9427,4.9415,4.9215,4.9415,4.9459,4.9427,4.9262,4.9113,6.6717,6.6854,6.6424,6.4824,5.9944,5.4361,4.9911,4.3723,3.7929,3.4267,3.2253,3.1571,3.3007,3.4194,3.6532,4.1386,4.4485,4.8714,5.5634,5.941,6.3081,6.7453,6.9455,7.0503,7.0511,7.0427,0.0,0.0,0.0,0.0,0.0,6.5058,6.51,6.5102,6.4947,6.4948,6.5102,6.4964,6.5247,6.599,6.5851,6.5814,6.5793,6.5599,6.5523,6.5456,0.0,0.0,0.0,6.3842,6.3264,6.2292,6.1221,5.9904,5.8483,5.672,5.5681,5.5113,5.5019,5.5094,5.5183,5.5229,5.5307,5.5408,5.548,5.4986,5.4568,5.5316,5.499,5.4434,5.4434,5.5017,5.5618,5.5703,5.564,5.5618,5.5682,5.564,5.5407,5.4741,5.4545,5.3985,5.2312,5.1919,5.1568,5.073,5.1188,5.1622,5.1698,5.1641,5.1848,5.2523,5.1266,5.0696,5.1503,5.151,5.1744,5.2438,5.1739,5.1154,5.0913,5.0137,4.9262,4.8359,4.9102,4.9102,4.8328,4.9102,4.9427,4.923,4.923,4.9046,6.4785,6.5292,6.4882,6.3164,5.8597,5.3268,4.8427,4.2806,3.7451,3.3434,3.2112,3.1893,3.2558,3.3353,3.512,3.8741,4.0209,4.3292,5.0217,5.3224,5.7059,6.3429,6.571,0.0,0.0,0.0,0.0,0.0,0.0,0.0,0.0,6.4081,6.4537,6.4986,6.4018,6.3961,6.4926,6.4863,6.5222,6.6005,6.5859,6.5755,6.5674,6.5552,6.5465,6.5435,0.0,0.0,0.0,6.4127,6.3682,6.309,6.1131,5.9677,5.8483,5.6815,5.567,5.496,5.496,5.5,5.5066,5.5066,5.5149,5.5255,5.5408,5.4882,5.4307,5.468,5.4162,5.351,5.351,5.4166,5.4821,5.4844,5.5205,5.5551,5.5573,5.5189,5.4725,5.4441,5.3942,5.3344,5.2653,5.2091,5.1647,5.128,5.1491,5.1507,5.0922,5.0887,5.083,5.0612,5.044,5.0903,5.226,5.1839,5.1821,5.2596,5.1779,5.1185,5.1006,5.0165,4.9469,4.9046,4.9358,4.934,4.899,4.9259,4.9358,4.9244,4.9164,4.903,6.2052,6.295,6.2794,6.131,5.725,5.2253,4.7081,4.2321,3.7747,3.3375,3.2524,3.2637,3.2891,3.3395,3.4558,3.6911,3.8155,4.0874,4.6778,4.9924,5.4037,6.0477,0.0,0.0,0.0,0.0,0.0,0.0,0.0,0.0,0.0,6.3282,6.3684,6.423,6.3377,6.3303,6.4152,6.434,6.4833,6.5654,6.5711,6.5674,6.558,6.5465,6.5425,0.0,0.0,0.0,0.0,6.4514,6.4168,6.3911,6.1548,5.998,5.8843,5.7144,5.5818,5.4871,5.4871,5.4901,5.4971,5.5,5.5057,5.5121,5.5281,5.4587,5.3833,5.4173,5.3445,5.2717,5.3215,5.3598,5.4005,5.4503,5.5059,5.5404,5.5197,5.4699,5.412,5.3644,5.305,5.2529,5.228,5.174,5.1335,5.1266,5.1503,5.1331,5.0374,5.0325,5.0138,4.9476,4.9496,5.0107,5.1539,5.1732,5.1929,5.222,5.1792,5.1396,5.1017,5.0145,4.9649,4.9608,4.9784,4.9734,4.944,4.9602,4.9519,4.923,4.9098,4.8946,5.846,5.9788,6.0237,5.9354,5.5884,5.1355,4.6183,4.2346,3.8641,3.4273,3.3393,3.3652,3.4512,3.4687,3.5252,3.7014,4.0135,4.3576,4.71,5.201,5.6528,6.0002,0.0,6.3572,0.0,0.0,0.0,0.0,0.0,0.0,0.0,0.0,6.2519,6.2538,6.3339,6.336,6.2433,6.3143,6.3949,6.4836,6.5359,6.5552,6.5494,6.5352,0.0,0.0,0.0,0.0,0.0,6.5042,6.4939,6.4718,6.3031,6.1363,5.9677,5.7932,5.6236,5.4799,5.4799,5.486,5.4901,5.4971,5.5057,5.5094,5.5094,5.3987,5.2921,5.3929,5.2949,5.2002,5.3664,5.3484,5.3322,5.4987,5.5389,5.5202,5.4469,5.425,5.3728,5.213,5.1759,5.1446,5.0585,5.0386,5.0278,5.0231,5.0999,5.1252,5.0326,5.0255,5.0278,5.0212,4.8719,4.8071,4.8972,5.1271,5.2272,5.1387,5.1992,5.1964,5.1045,5.0078,4.9604,4.9585,5.0322,5.0228,4.9308,5.0169,5.0071,4.9101,4.8962,4.8768,5.1531,5.2702,5.2878,5.0863,4.9321,4.6963,4.1796,3.9328,3.6897,3.2519,3.2573,3.3476,3.3769,3.4297,3.6034,4.0125,4.1189,4.3333,4.8571,5.1746,5.5016,5.9031,6.3577,6.6137,0.0,0.0,0.0,0.0,0.0,0.0,0.0,0.0,6.2502,6.2486,6.2722,6.2665,6.2276,6.3637,6.4436,6.4682,6.5287,6.558,6.5552,6.5484,0.0,0.0,0.0,0.0,0.0,6.45,6.3864,6.3118,6.1985,6.0118,5.797,5.6822,5.5694,5.4736,5.4736,5.4767,5.4829,5.486,5.4901,5.4971,5.5028,5.3933,5.2558,5.1735,5.11,5.0923,5.2073,5.2169,5.2226,5.3364,5.3613,5.3555,5.3263,5.2283,5.1481,5.1534,5.0617,4.9935,5.0221,5.0255,5.0255,5.0259,5.046,5.0068,4.8681,4.8491,4.801,4.6843,4.6763,4.7848,5.0424,5.1224,5.2018,5.2957,5.258,5.2437,5.27,5.1285,5.0459,5.0402,5.0604,5.0247,4.9308,4.9524,4.9426,4.8962,4.8892,4.8732,4.5656,4.6788,4.6885,4.5633,4.4816,4.3154,3.8651,3.7207,3.5767,3.2046,3.2422,3.3493,3.3828,3.4062,3.5585,3.9793,4.0561,4.2526,4.79,0.0,0.0,5.9036,0.0,0.0,0.0,0.0,0.0,0.0,0.0,0.0,0.0,0.0,6.2037,6.2004,6.224,6.2162,6.1753,6.3361,6.4157,6.4157,6.5133,6.558,6.5552,0.0,0.0,0.0,0.0,0.0,0.0,6.3283,6.2553,6.1828,6.0657,5.9019,5.7181,5.6298,5.5435,5.4692,5.4692,5.4736,5.4799,5.4829,5.4633,5.4322,5.4116,5.3438,5.2361,5.0713,5.0212,5.0455,5.1681,5.1757,5.1866,5.3321,5.3213,5.266,5.2279,5.1135,5.0215,5.0418,4.9662,4.9229,5.003,5.0163,5.0182,5.0163,5.0158,4.9499,4.7848,4.7619,4.6949,4.5251,4.5555,4.6958,4.9625,5.0095,5.0563,5.1348,5.1613,5.1868,5.2084,5.1292,5.0673,5.0346,5.0541,5.0183,4.9276,4.9146,4.8978,4.8785,4.8787,4.8697,0.0,4.1791,4.2103,4.2809,4.1833,3.9875,3.6559,3.5771,0.0,3.2517,3.2645,3.3532,3.4589,3.414,3.4549,3.7463,3.9306,4.1858,0.0,5.0461,0.0,0.0,0.0,0.0,0.0,0.0,0.0,0.0,0.0,0.0,0.0,0.0,0.0,6.121,6.1872,6.1813,6.1002,6.2448,6.3229,6.3315,6.4788,6.5456,6.5417,0.0,0.0,0.0,0.0,0.0,0.0,6.1508,6.1026,6.0681,5.9184,5.7983,5.6998,5.6139,5.5333,5.4692,5.4692,5.4723,5.4799,5.489,5.4254,5.3402,5.2703,5.2536,5.2241,5.0645,5.0188,5.0544,5.2113,5.1967,5.1974,5.4303,5.3644,5.2298,5.1485,5.0621,4.9803,4.9093,4.8922,4.9131,4.9949,5.0082,5.0082,5.0031,5.0,4.941,4.7783,4.7547,4.6882,4.5333,4.5067,4.5602,4.7178,4.8188,4.8465,4.7777,4.9709,5.0636,5.0052,5.0478,5.0397,4.9687,5.0196,5.0048,4.9197,4.8978,4.8785,4.8587,4.8732,4.8624,3.4432,0.0,3.7223,3.6091,3.6521,3.6635,0.0,3.3493,3.2643,3.1378,3.1266,3.2272,3.5096,3.5488,3.7311,4.3234,4.453,4.6296,5.0594,0.0,0.0,0.0,0.0,0.0,0.0,0.0,0.0,0.0,0.0,0.0,0.0,0.0,0.0,6.121,6.1273,6.1174,6.0935,6.18,6.2241,6.2273,6.3855,6.4594,6.4575,0.0,0.0,0.0,0.0,0.0,6.1564,6.0007,5.8957,5.8218,5.7794,5.6606,5.5136,5.4896,5.4693,5.4476,5.4476,5.4576,5.4736,5.4841,5.4322,5.3518,5.2731,5.2009,5.1288,5.0393,5.0082,5.0285,5.1402,5.1014,5.0665,5.1954,5.1485,5.064,5.0399,4.967,4.9207,4.9511,4.9148,4.9003,4.98,4.9952,4.9978,5.0057,4.9473,4.8915,4.8542,4.734,4.6613,4.6815,4.5628,4.5502,4.7178,4.8034,4.9238,5.0975,5.0937,5.1322,5.241,5.1381,5.0629,5.0365,4.9772,4.9303,4.8978,4.8874,4.8732,4.8587,4.8642,4.8587,3.2226,3.3729,3.5271,3.4725,3.5308,3.5656,3.4296,3.2693,3.1258,3.0375,3.0526,3.1605,3.4261,3.5442,3.7871,4.3572,4.4855,0.0,0.0,0.0,0.0,0.0,0.0,0.0,0.0,0.0,0.0,0.0,0.0,0.0,0.0,0.0,0.0,0.0,6.108,6.0959,6.0891,6.1603,6.1972,6.201,6.3165,6.3695,6.3695,0.0,0.0,0.0,0.0,0.0,5.9505,5.8201,5.7294,5.6715,5.6324,5.5479,5.4505,5.4505,5.4472,5.4458,5.4458,5.4312,5.4151,5.4224,5.344,5.2409,5.2011,5.1244,5.0439,5.0119,5.0031,5.0195,5.1121,5.0677,5.0309,5.157,5.0924,4.9978,4.9871,4.9246,4.8791,4.9098,4.888,4.8897,4.9683,4.9843,4.9871,4.9971,4.9565,4.9148,4.8787,4.7567,4.6878,4.734,4.5849,4.5469,4.7106,4.7284,4.804,4.9787,5.0474,5.0847,5.1005,5.0435,4.9859,4.9309,4.8747,4.859,4.8839,4.8768,4.866,4.855,4.8605,4.8532,3.2422,3.3866,3.5389,3.572,3.5991,3.5968,3.5096,3.2884,3.0821,3.0214,3.0574,3.1698,3.3968,3.5597,0.0,0.0,0.0,0.0,5.4697,5.8929,0.0,0.0,0.0,0.0,0.0,0.0,0.0,0.0,0.0,0.0,0.0,0.0,0.0,0.0,6.1099,6.0976,6.0911,6.1507,6.1824,6.1873,6.2494,6.2767,6.2767,6.2508,0.0,0.0,0.0,0.0,5.721,5.6413,5.5962,5.5712,5.5032,5.4654,5.4472,5.4472,5.4472,5.4505,5.4505,5.4056,5.3482,5.3482,5.2378,5.1045,5.1178,5.0544,4.9835,4.9952,4.9978,5.013,5.0897,5.0529,5.0293,5.1679,5.0921,4.9843,4.9721,4.9221,4.8739,4.8617,4.8664,4.8957,4.9579,4.9721,4.9778,4.9797,4.9816,4.9625,4.8954,4.7935,4.7375,4.756,4.5899,4.5443,4.7051,4.6533,4.6382,4.6929,4.8991,4.9563,4.8104,4.8571,4.8501,4.763,4.7661,4.8002,4.8601,4.8586,4.8569,4.8457,4.8532,4.8439,3.3905,3.6111,3.7497,3.5428,3.6007,3.6875,3.5994,3.3782,3.2077,3.2674,3.2322,3.3314,3.7964,3.9086,4.1168,0.0,0.0,0.0,0.0,0.0,0.0,0.0,0.0,0.0,0.0,0.0,0.0,0.0,0.0,0.0,0.0,0.0,0.0,0.0,0.0,6.096,6.0891,6.0911,6.0872,6.084,6.1486,6.1803,6.1696,6.0951,6.0453,0.0,0.0,5.6679,5.6247,5.539,5.4906,5.4708,5.4576,5.4472,5.4424,5.4424,5.4424,5.4424,5.4472,5.4056,5.3482,5.3482,5.2445,5.1159,5.1206,5.058,4.9871,4.9843,4.9871,4.9944,5.0077,4.9966,4.9891,5.0156,5.0005,4.9807,4.9721,4.9655,4.9561,4.9445,4.9416,4.9472,4.9604,4.9634,4.9663,4.9692,4.9712,4.9712,4.9636,4.822,4.7521,4.834,4.6145,4.531,4.6968,4.6967,4.6561,4.5884,4.6896,4.7323,4.6974,4.6981,4.6954,4.6792,4.7382,4.7689,4.7625,4.8255,4.8532,4.8306,4.8344,4.8344,3.2968,3.5207,3.7113,3.6824,3.913,4.1238,4.0352,3.8146,3.6236,3.6163,3.5451,3.5873,3.9193,0.0,4.3917,4.9935,0.0,0.0,0.0,0.0,0.0,0.0,0.0,0.0,0.0,0.0,0.0,0.0,0.0,0.0,0.0,0.0,0.0,0.0,0.0,6.0749,6.0261,6.0111,6.0248,6.0655,6.0816,6.0876,6.077,5.984,5.9121,0.0,0.0,5.5906,5.539,5.495,5.4686,5.4505,5.4505,5.4439,5.4409,5.4409,5.4108,5.3842,5.4322,5.3421,5.2156,5.2659,5.1735,5.0505,5.0449,5.0193,4.9898,4.9835,4.9835,4.9843,4.9788,4.9778,4.975,4.9692,4.9692,4.9531,4.905,4.9372,4.9589,4.9001,4.9361,4.9663,4.9563,4.9623,4.9653,4.9649,4.9682,4.9731,4.9778,4.8588,4.7957,4.854,4.6977,4.6036,4.6318,4.6327,4.6475,4.6911,4.645,4.6109,4.5979,4.5966,4.5922,4.5908,4.6145,4.6453,4.674,4.7535,4.7813,4.7664,4.7664,4.7864,3.2324,3.401,3.5931,3.8237,4.1156,4.356,4.3903,4.1969,4.0095,4.0023,3.9481,3.9427,4.0766,4.3486,0.0,5.1926,0.0,0.0,0.0,0.0,0.0,0.0,0.0,0.0,0.0,0.0,0.0,0.0,0.0,0.0,0.0,0.0,0.0,0.0,0.0,0.0,5.9665,5.9537,5.9773,6.0372,6.0127,5.997,5.9883,5.9052,5.8104,5.7081,5.6424,5.5636,5.4767,5.4736,5.4622,5.4472,5.4472,5.4326,5.4108,5.4108,5.3635,5.3067,5.3908,5.2781,5.1051,5.1918,5.1139,4.9843,4.9807,4.9816,4.9843,4.9778,4.975,4.975,4.9721,4.9692,4.9663,4.9604,4.9424,4.9104,4.8415,4.87,4.8947,4.8388,4.888,4.9437,4.9483,4.9582,4.9642,4.9596,4.9631,4.9682,4.974,4.884,4.8284,4.8475,4.7569,4.6701,4.5977,4.5771,4.6218,4.7666,4.6302,4.55,4.5642,4.5475,4.535,4.5287,4.5203,4.5475,4.6205,4.6965,4.7335,4.7407,4.7369,4.7569,3.3649,3.4059,3.4563,3.8674,3.933,3.9984,4.3929,4.2841,4.1675,4.404,4.4469,4.4473,4.4605,4.8041,5.1258,0.0,0.0,0.0,0.0,0.0,0.0,0.0,0.0,0.0,0.0,0.0,0.0,0.0,0.0,0.0,0.0,0.0,0.0,0.0,0.0,0.0,5.9515,5.9446,5.9413,5.9415,5.9185,5.9064,5.8995,5.8805,5.782,5.6285,5.6078,5.5523,5.4692,5.4571,5.4472,5.439,5.439,5.3939,5.3282,5.3282,5.2822,5.2284,5.3112,5.2291,5.1032,5.1918,5.1069,4.9721,4.9721,4.9721,4.9692,4.9634,4.9604,4.9623,4.9692,4.9634,4.9623,4.9593,4.8972,4.8359,4.8224,4.772,4.7466,4.8093,4.8281,4.8581,4.9358,4.9509,4.949,4.9509,4.9509,4.9551,4.9623,4.8781,4.8194,4.8224,4.7384,4.6768,4.6651,4.5886,4.5799,4.6656,4.5815,4.5653,4.6382,4.5677,4.5287,4.5287,4.5287,4.5597,4.6188,4.7017,4.7684,4.8214,4.8135,4.773,3.1841,3.3248,3.4864,3.7562,3.9193,4.1109,4.4903,4.6249,4.7127,4.8658,4.8552,4.8005,0.0,0.0,5.1687,0.0,0.0,0.0,0.0,0.0,0.0,0.0,0.0,0.0,0.0,0.0,0.0,0.0,0.0,0.0,0.0,0.0,0.0,0.0,0.0,0.0,0.0,5.8112,5.7723,5.7621,5.8004,5.8454,5.8881,5.8216,5.727,5.6209,5.6159,5.5574,5.4692,5.4641,5.4543,5.4352,5.3846,5.3451,5.3113,5.2588,5.1907,5.1356,5.2278,5.1499,5.0237,5.1126,5.0617,4.9692,4.9634,4.9663,4.9692,4.9623,4.9593,4.9593,4.9563,4.9551,4.9401,4.8856,4.848,4.7972,4.692,4.692,4.7015,4.676,4.7579,4.8407,4.8657,4.8713,4.8713,4.864,4.8652,4.8683,4.8743,4.8802,4.8727,4.8311,4.7353,4.695,4.7442,4.6624,4.6448,4.7215,4.6527,4.5955,4.5751,4.537,4.4962,4.4461,4.4879,4.5186,4.5326,4.6671,4.739,4.7572,4.7552,4.7624,3.0784,3.2543,3.4847,3.7148,3.9412,4.2151,4.6167,4.8447,5.02,5.1878,5.1093,5.0176,5.0399,0.0,0.0,0.0,0.0,0.0,0.0,0.0,0.0,0.0,0.0,0.0,0.0,0.0,0.0,0.0,0.0,0.0,0.0,0.0,0.0,0.0,0.0,0.0,0.0,5.7119,5.6665,5.6553,5.6758,5.7292,5.809,5.7882,5.7062,5.5811,5.5996,5.5574,5.4673,5.4377,5.4166,5.3958,5.3414,5.2869,5.2325,5.1743,5.1011,5.046,5.1412,5.079,4.9695,5.0595,5.0293,4.9623,4.9593,4.9593,4.9623,4.9563,4.9563,4.9582,4.949,4.9509,4.9358,4.8739,4.8213,4.7529,4.6412,4.6234,4.6177,4.5839,4.6704,4.7644,4.813,4.8018,4.7894,4.8084,4.7927,4.7819,4.7789,4.8471,4.8865,4.8638,4.7716,4.746,4.8268,4.7239,4.688,4.7646,4.694,4.6364,4.6034,4.543,4.4971,4.4642,4.4631,4.4841,4.5217,4.6359,4.6838,4.6746,4.7222,4.7459,3.0993,3.2059,3.4242,3.7714,3.988,4.2487,4.762,4.8867,4.9891,5.3303,5.1956,5.0926,5.3502,5.1867,0.0,0.0,0.0,0.0,0.0,0.0,0.0,0.0,0.0,0.0,0.0,0.0,0.0,0.0,0.0,0.0,0.0,0.0,0.0,0.0,0.0,0.0,0.0,5.6646,5.6488,5.635,5.5427,5.5455,5.6348,5.7946,5.7289,5.4939,5.5618,5.546,5.4616,5.3626,5.3188,5.3188,5.317,5.2156,5.0691,5.0673,5.0166,4.9602,5.0485,5.0209,4.9621,5.0503,5.019,4.9509,4.9471,4.9471,4.949,4.949,4.949,4.9471,4.9471,4.949,4.949,4.949,4.8213,4.7012,4.6993,4.5697,4.474,4.5528,4.564,4.6154,4.7894,4.7459,4.7154,4.7941,4.744,4.6982,4.6892,4.7646,4.8464,4.9196,4.8496,4.8268,4.9008,4.7555,4.6908,4.7627,4.6921,4.6814,4.7546,4.5971,4.5456,4.6168,4.4617,4.4583,4.6083,4.6083,4.6047,4.5938,4.7457,4.7309,2.8688,3.1161,3.471,3.6352,4.0806,4.5486,4.8232,4.9794,5.1468,5.4322,5.3815,5.2897,5.3053,0.0,0.0,0.0,0.0,0.0,0.0,0.0,0.0,0.0,0.0,0.0,0.0,0.0,0.0,0.0,0.0,0.0,0.0,0.0,0.0,0.0,0.0,0.0,0.0,0.0,5.4699,5.4553,5.4143,5.472,5.6182,5.6683,5.5818,5.3978,5.5385,5.512,5.3691,5.323,5.305,5.2938,5.1794,5.1012,5.0436,5.0022,4.9646,4.9427,4.9826,4.9739,4.9434,4.913,4.9251,4.9283,4.8101,4.8138,4.8476,4.7852,4.7672,4.7653,4.7535,4.8016,4.8527,4.857,4.7763,4.6843,4.6223,4.5266,4.459,4.4815,4.5293,4.5838,4.6285,4.6173,4.6038,4.6178,4.6083,4.6259,4.6907,4.7159,4.7402,4.7658,4.736,4.7243,4.741,4.6395,4.5829,4.5992,4.5212,4.5069,4.5805,4.5312,4.482,4.4386,4.441,4.4669,4.5111,4.5681,4.5938,4.5902,4.636,4.6342,2.9873,3.3054,3.7093,3.8661,4.2432,4.639,4.8821,5.0952,5.2975,0.0,5.4068,5.3112,5.3639,0.0,0.0,0.0,0.0,0.0,0.0,0.0,0.0,0.0,0.0,0.0,0.0,0.0,0.0,0.0,0.0,0.0,0.0,0.0,0.0,0.0,0.0,0.0,0.0,0.0,5.3903,5.3765,5.3621,5.4292,5.5579,5.5927,5.512,5.352,5.4138,5.4018,5.3217,5.2761,5.2578,5.2394,5.0712,5.0025,4.9842,4.8765,4.8778,4.9283,4.9058,4.922,4.9358,4.8536,4.8581,4.8708,4.7346,4.729,4.7552,4.6974,4.6873,4.6904,4.6824,4.7229,4.7759,4.8089,4.7564,4.6861,4.6336,4.5293,4.4487,4.4487,4.4852,4.5236,4.5594,4.5319,4.5156,4.5401,4.5219,4.5372,4.6274,4.6356,4.6487,4.6915,4.6836,4.6607,4.6246,4.5438,4.4749,4.4321,4.3491,4.3169,4.3587,4.4188,4.4398,4.4094,4.4156,4.4378,4.4709,4.5186,4.5259,4.4947,4.559,4.5736,3.2719,3.6059,3.9984,4.2779,4.4364,4.6092,4.9268,5.1884,5.3947,5.4966,0.0,5.2366,0.0,0.0,0.0,0.0,0.0,0.0,0.0,0.0,0.0,0.0,0.0,0.0,0.0,0.0,0.0,0.0,0.0,0.0,0.0,0.0,0.0,0.0,0.0,0.0,5.4087,5.3868,5.3715,0.0,5.3585,5.3989,5.4836,5.5479,5.4956,5.3465,5.258,5.2629,5.3259,5.2212,5.1767,5.1598,4.9864,4.9177,4.8958,4.743,4.786,4.9177,4.8278,4.8602,4.9227,4.8269,4.7995,4.7841,4.6948,4.6724,4.6761,4.6569,4.6611,4.6757,4.6667,4.6754,4.7009,4.7679,4.7365,4.6899,4.6869,4.5565,4.4411,4.4487,4.4401,4.4579,4.5425,4.4851,4.4547,4.5275,4.471,4.4475,4.5294,4.5387,4.5716,4.6562,4.6551,4.6134,4.5331,4.4487,4.3613,4.2723,4.1883,4.1366,4.1323,4.2825,4.3959,4.4573,4.3789,4.3791,4.4599,4.4525,4.414,4.3534,4.5002,4.526,2.9269,3.2447,3.6664,4.0656,4.4832,4.8164,4.8908,5.0045,5.1562,5.3747,5.3801,5.3615,0.0,0.0,0.0,0.0,0.0,0.0,0.0,0.0,0.0,0.0,0.0,0.0,0.0,0.0,0.0,0.0,0.0,0.0,0.0,0.0,0.0,0.0,0.0,5.4705,5.3022,5.292,5.2813,0.0,5.2626,5.3391,5.4817,5.4956,5.4812,5.4371,5.3381,5.3442,5.4039,5.1804,5.0895,5.0726,4.8963,4.8212,4.8105,4.7897,4.8402,4.9038,4.7702,4.78,4.8232,4.673,4.6692,4.6963,4.5481,4.5462,4.5819,4.5094,4.4897,4.4886,4.4856,4.5294,4.5805,4.6015,4.6042,4.595,4.5851,4.5094,4.4458,4.4373,4.4373,4.441,4.4509,4.4356,4.427,4.4438,4.4246,4.4172,4.4528,4.4487,4.458,4.4838,4.4838,4.4453,4.3524,4.2723,4.2124,4.1869,4.1107,4.0881,4.1422,4.2258,4.2783,4.2916,4.2669,4.2981,4.3858,4.3164,4.3023,4.3429,4.3777,4.3797,2.8332,3.2201,3.6941,4.1733,4.5254,4.7651,4.8041,4.9151,5.0464,5.1765,5.1751,0.0,0.0,0.0,0.0,0.0,0.0,0.0,0.0,0.0,0.0,0.0,0.0,0.0,0.0,0.0,0.0,0.0,0.0,0.0,0.0,0.0,0.0,0.0,5.5001,5.4011,5.2133,5.2063,5.2167,5.2456,5.2371,5.2964,5.4132,5.4101,5.4056,5.3903,5.2597,5.2263,5.254,5.0791,4.9808,4.9308,4.8352,4.79,4.776,4.7484,4.7909,4.8482,4.7353,4.7264,4.7406,4.611,4.5988,4.609,4.4833,4.474,4.4983,4.4485,4.4373,4.4401,4.4373,4.4662,4.495,4.492,4.526,4.557,4.5529,4.4894,4.4344,4.4296,4.4296,4.4304,4.4233,4.4233,4.4184,4.4104,4.4036,4.4036,4.4147,4.4165,4.4214,4.4244,4.4244,4.3741,4.2462,4.189,4.1256,4.0438,3.9954,3.9859,4.0244,4.0898,4.1425,4.1811,4.175,4.1937,4.2408,4.2338,4.2491,4.2878,4.3246,4.334,2.7453,3.2499,3.8043,4.2809,4.489,4.5936,4.659,4.8016,4.9268,4.9515,0.0,0.0,0.0,0.0,0.0,0.0,0.0,0.0,0.0,0.0,0.0,0.0,0.0,0.0,0.0,0.0,0.0,0.0,0.0,0.0,0.0,0.0,5.4593,5.4393,5.4326,5.3456,5.1713,5.151,5.1699,5.2275,5.2475,5.287,5.3377,5.3333,5.3193,5.2954,5.1531,5.093,5.0886,4.9884,4.9046,4.8328,4.8103,4.7932,4.7723,4.6936,4.721,4.7852,4.6824,4.6615,4.6636,4.5772,4.5452,4.5292,4.4617,4.4411,4.443,4.4344,4.4401,4.4487,4.4411,4.4411,4.443,4.4314,4.4808,4.5263,4.5263,4.471,4.4226,4.4248,4.4207,4.4184,4.4221,4.4202,4.4135,4.4005,4.4005,4.4005,4.4005,4.4104,4.4153,4.4153,4.4153,4.352,4.1994,4.1783,4.1123,3.9621,3.9303,3.9143,3.9113,3.9571,4.0117,4.0749,4.0997,4.1167,4.1313,4.1974,4.2378,4.2491,4.3118,4.3394,2.3344,2.9833,3.6761,3.9668,4.2181,4.3975,4.4072,4.4883,4.6013,0.0,0.0,0.0,0.0,0.0,0.0,0.0,0.0,0.0,0.0,0.0,0.0,0.0,0.0,0.0,0.0,0.0,0.0,0.0,0.0,0.0,0.0,5.3894,5.4554,5.4408,5.4342,5.3723,5.2475,5.1751,5.1387,5.1376,5.271,5.3327,5.3301,5.3301,5.2956,5.2322,5.192,5.1858,5.1888,5.019,4.9434,4.9234,4.8346,4.8002,4.7858,4.6999,4.7223,4.7684,4.5554,4.5275,4.5735,4.4928,4.4637,4.4618,4.4505,4.4487,4.4487,4.4487,4.444,4.4411,4.4411,4.4314,4.4244,4.4214,4.4307,4.4333,4.4234,4.4251,4.4255,4.4067,4.4036,4.4036,4.4055,4.4036,4.4005,4.4005,4.4005,4.4005,4.4005,4.4005,4.4005,4.3947,4.3992,4.3652,4.265,4.2619,4.2259,4.1311,4.0606,4.0111,3.9944,3.9372,3.9043,3.9019,4.0396,4.1475,4.2253,4.2283,4.2638,4.3265,4.3339,4.3323,2.462,2.9311,3.4029,3.8576,4.0556,4.1789,4.3265,4.4258,4.4966,0.0,0.0,0.0,0.0,0.0,0.0,0.0,0.0,0.0,0.0,0.0,0.0,0.0,0.0,0.0,0.0,0.0,0.0,0.0,0.0,0.0,5.2272,5.2848,5.3359,5.372,5.3196,0.0,5.2043,5.1129,5.0802,5.1112,5.1744,5.1994,5.1889,5.1375,5.1224,5.1362,5.1268,5.0723,4.9951,4.9633,4.8915,4.8096,4.8546,4.8408,4.7946,4.7604,4.743,4.7112,4.5659,4.5125,4.5021,4.4627,4.4542,4.4551,4.4515,4.4515,4.4515,4.4515,4.444,4.4383,4.4383,4.4325,4.4237,4.4214,4.4214,4.4165,4.4036,4.4116,4.4195,4.4036,4.4005,4.4005,4.4005,4.4005,4.4005,4.4005,4.4005,4.4005,4.4005,4.4055,4.4055,4.3961,4.4055,4.3739,4.2811,4.2736,4.2229,4.0996,4.054,4.0055,3.9505,3.9135,3.891,3.8792,3.9858,4.063,4.0993,4.1879,4.2216,4.2109,4.2551,4.2647,2.4788,2.7717,3.0346,3.5998,3.8074,3.9365,4.1746,0.0,4.3841,0.0,0.0,0.0,0.0,0.0,0.0,0.0,0.0,0.0,0.0,0.0,0.0,0.0,0.0,0.0,0.0,0.0,0.0,0.0,0.0,0.0,5.1873,5.1805,5.2008,5.253,5.1873,5.142,5.1257,5.0462,5.0282,5.0685,5.0835,5.0858,5.0748,5.0103,5.0016,5.0391,5.0341,4.9659,4.8551,4.9177,4.8677,4.7623,4.8821,4.8789,4.8009,4.7835,4.7217,4.6356,4.5621,4.5003,4.4524,4.4458,4.4496,4.4524,4.4487,4.4487,4.4515,4.4487,4.444,4.4383,4.4354,4.4325,4.4248,4.4165,4.4195,4.4177,4.4036,4.4085,4.4135,4.4005,4.4005,4.4005,4.4005,4.4005,4.4005,4.4005,4.4005,4.4005,4.4005,4.4055,4.4073,4.3992,4.3887,4.3608,4.312,4.2662,4.192,4.0773,4.0389,3.983,3.9016,3.9182,3.9143,3.8881,3.9774,4.0115,3.9932,4.1313,4.1699,4.113,4.1855,4.2118,2.0836,2.3309,2.5676,3.0069,3.366,3.654,3.8272,0.0,0.0,0.0,0.0,0.0,0.0,0.0,0.0,0.0,0.0,0.0,0.0,0.0,0.0,0.0,0.0,0.0,0.0,0.0,0.0,0.0,0.0,0.0,5.0964,5.0955,5.0889,5.0741,5.0681,5.0577,5.0359,5.0127,4.9936,4.9787,5.056,5.0828,5.0691,5.0654,5.0241,4.9565,4.9415,4.9371,4.9358,4.9321,4.9252,4.9177,4.927,4.8821,4.7985,4.7192,4.6307,4.5473,4.4739,4.4391,4.4314,4.4314,4.4373,4.4411,4.4411,4.444,4.4487,4.4411,4.4411,4.4354,4.4237,4.4214,4.4165,4.4036,4.4147,4.4255,4.4036,4.4005,4.4005,4.4005,4.4005,4.4005,4.4005,4.4005,4.4005,4.4005,4.4005,4.4005,4.4005,4.3961,4.3897,4.3915,4.323,4.3063,4.3786,4.2495,4.1627,4.1534,4.0685,3.983,3.9016,3.966,3.9656,3.884,4.0338,4.078,3.9994,4.0777,4.1148,4.113,4.1855,4.2118,1.9477,2.1299,2.3527,2.7252,2.9943,3.2264,3.4602,3.6848,0.0,0.0,0.0,0.0,0.0,0.0,0.0,0.0,0.0,0.0,0.0,0.0,0.0,0.0,0.0,0.0,0.0,0.0,0.0,0.0,0.0,0.0,5.0074,5.0117,5.0554,5.1472,4.9894,4.9161,4.9391,4.8707,4.881,4.975,4.8871,4.9001,4.9977,4.937,4.9246,4.949,4.9295,4.9276,4.9321,4.9276,4.9244,4.9244,4.9244,4.8757,4.7935,4.7043,4.6221,4.5387,4.4595,4.4344,4.4373,4.4314,4.4344,4.4383,4.4344,4.4344,4.4373,4.4335,4.4344,4.4322,4.4226,4.4221,4.4178,4.4023,4.4067,4.4085,4.4005,4.4005,4.4005,4.4005,4.4005,4.4005,4.4005,4.4005,4.4005,4.4005,4.4005,4.4005,4.4005,4.3974,4.3974,4.3974,4.3732,4.3658,4.3923,4.2971,4.2117,4.1556,4.0693,4.0052,3.9716,3.9446,3.9446,3.9637,3.9651,3.9737,3.9932,4.0708,4.0836,4.0359,4.1134,4.1434,1.8116,1.9513,2.1643,2.5066,2.6749,2.8504,3.2027,0.0,0.0,0.0,0.0,0.0,0.0,0.0,0.0,0.0,0.0,0.0,0.0,0.0,0.0,0.0,0.0,0.0,0.0,0.0,0.0,0.0,0.0,0.0,4.9614,4.9382,4.9567,5.024,4.8548,4.7776,4.8019,4.7606,4.7761,4.8438,4.7495,4.7644,4.8716,4.8326,4.8352,4.864,4.9019,4.9211,4.9257,4.888,4.8735,4.8716,4.845,4.7871,4.7055,4.6508,4.5749,4.4953,4.4442,4.4285,4.4266,4.4207,4.4255,4.4314,4.4285,4.4266,4.4296,4.4258,4.4061,4.3815,4.3748,4.3744,4.372,4.3646,4.3627,4.367,4.3999,4.4036,4.4005,4.4005,4.4005,4.4005,4.4005,4.4005,4.4005,4.4005,4.4005,4.4005,4.4005,4.3974,4.3974,4.4005,4.3732,4.3677,4.3986,4.302,4.2136,4.1556,4.0693,4.0071,3.9734,3.9704,3.9834,4.008,4.0019,4.0105,4.0304,4.0579,4.0561,4.0322,4.1097,4.1544,0.0,0.0,0.0,2.3185,2.4038,2.5369,3.0435,0.0,0.0,0.0,0.0,0.0,0.0,0.0,0.0,0.0,0.0,0.0,0.0,0.0,0.0,0.0,0.0,0.0,0.0,0.0,0.0,0.0,0.0,4.9664,4.9586,4.8845,4.7909,4.6797,4.6586,4.6431,4.6282,4.6967,4.6819,4.5848,4.6581,4.6936,4.703,4.7691,4.7604,4.6986,4.8464,4.9104,4.9067,4.8166,4.7816,4.7723,4.6981,4.6178,4.5395,4.5469,4.4867,4.4005,4.4153,4.4104,4.4005,4.4005,4.4085,4.4184,4.4195,4.4237,4.4288,4.421,4.3565,4.2883,4.2787,4.2765,4.2839,4.2899,4.2876,4.3088,4.4016,4.4085,4.4005,4.4005,4.4005,4.3986,4.3968,4.3968,4.3968,4.3968,4.3968,4.3968,4.4005,4.3961,4.3929,4.4005,4.3256,4.3076,4.3931,4.2556,4.1609,4.159,4.0741,3.9885,3.909,4.0492,4.0929,4.0099,4.159,4.1963,4.1148,4.0322,4.0341,4.113,4.1855,4.2538,1.783,0.0,0.0,0.0,0.0,0.0,2.3909,2.6139,0.0,0.0,0.0,0.0,0.0,0.0,0.0,0.0,0.0,0.0,0.0,0.0,0.0,0.0,0.0,0.0,0.0,0.0,0.0,0.0,4.8739,4.9343,4.8681,4.8908,4.8067,4.5916,4.6239,4.6393,4.6367,4.5742,4.5935,4.6879,4.5679,4.581,4.7042,4.6461,4.6457,4.693,4.7204,4.7341,4.7423,4.7634,4.7735,4.7642,4.6857,4.6057,4.5319,4.5249,4.4711,4.4005,4.4011,4.3992,4.4005,4.4005,4.4036,4.4055,4.4055,4.4067,4.4079,4.4048,4.349,4.2757,4.2143,4.2411,4.2779,4.2809,4.3274,4.3726,4.3999,4.4036,4.4005,4.4005,4.4005,4.3819,4.3225,4.3132,4.3132,4.3132,4.3132,4.3336,4.3931,4.3974,4.3974,4.4005,4.3769,4.3732,4.3986,4.3058,4.2192,4.1556,4.1267,4.0984,4.0603,4.0996,4.1369,4.1658,4.153,4.164,4.1974,4.1167,4.0891,4.113,4.1904,4.2642,1.9812,1.9798,2.0313,2.0914,0.0,0.0,2.3226,2.4735,2.6469,0.0,0.0,0.0,0.0,0.0,0.0,0.0,0.0,0.0,0.0,0.0,0.0,0.0,0.0,0.0,0.0,0.0,0.0,0.0,4.7688,4.8338,4.7761,4.8298,4.7642,4.5477,4.5696,4.5811,4.5765,4.5067,4.5202,4.6172,4.4974,4.5162,4.6582,4.5873,4.5851,4.6368,4.6551,4.6464,4.6184,4.6559,4.6731,4.6671,4.5769,4.5143,4.4703,4.4665,4.435,4.3961,4.3961,4.3757,4.3509,4.3503,4.328,4.3051,4.3008,4.3268,4.3547,4.3497,4.2946,4.2169,4.137,4.1731,4.237,4.2723,4.315,4.3596,4.3931,4.3745,4.3596,4.3931,4.4005,4.3856,4.3373,4.3299,4.3299,4.3299,4.3299,4.3466,4.3949,4.4005,4.4005,4.4005,4.4005,4.4005,4.4005,4.3547,4.2903,4.2106,4.2038,4.1761,4.1267,4.1549,4.194,4.2286,4.2176,4.2323,4.28,4.1992,4.1772,4.2121,4.258,4.3023,2.2389,2.2133,2.2649,2.4777,2.3052,0.0,2.5377,2.5751,2.579,0.0,0.0,0.0,0.0,0.0,0.0,0.0,0.0,0.0,0.0,0.0,0.0,0.0,0.0,0.0,0.0,0.0,4.559,4.4749,4.6151,4.6931,4.6771,4.7275,4.6857,4.536,4.5087,4.4967,4.4895,4.477,4.4685,4.4632,4.4468,4.4881,4.5754,4.5546,4.5469,4.5506,4.6146,4.5979,4.5264,4.517,4.5257,4.532,4.4371,4.3942,4.3929,4.3974,4.3961,4.3947,4.3992,4.3534,4.2959,4.2835,4.2374,4.1797,4.1635,4.2143,4.2736,4.2576,4.2092,4.137,4.0504,4.0977,4.1887,4.2519,4.2797,4.3132,4.3856,4.3448,4.315,4.3875,4.4005,4.3986,4.3875,4.3875,4.3906,4.3875,4.3875,4.3924,4.4017,4.4036,4.4005,4.4005,4.4005,4.4005,4.4005,4.3961,4.3577,4.2853,4.2829,4.2421,4.149,4.2234,4.2613,4.2466,4.3164,4.3532,4.3532,4.2782,4.28,4.3497,4.3497,4.3497,2.5188,2.4793,2.4618,0.0,0.0,0.0,2.2028,2.2693,2.3881,0.0,0.0,0.0,0.0,0.0,0.0,0.0,0.0,0.0,0.0,0.0,0.0,0.0,0.0,0.0,0.0,0.0,4.4898,4.4715,4.5448,4.5902,4.5873,4.6414,4.629,4.5337,4.5106,4.4991,4.4967,4.4796,4.4738,4.4764,4.4524,4.4562,4.4869,4.4645,4.4568,4.4645,4.4666,4.4617,4.4498,4.4327,4.4718,4.532,4.4371,4.4005,4.3974,4.3929,4.4011,4.4123,4.4035,4.3974,4.38,4.3114,4.2779,4.2526,4.1828,4.1763,4.1791,4.108,4.1219,4.1266,3.9733,4.094,4.2445,4.1943,4.2816,4.3819,4.3968,4.3875,4.385,4.4116,4.4153,4.393,4.315,4.3122,4.3181,4.3122,4.3092,4.3383,4.4132,4.4195,4.4153,4.4153,4.4153,4.4104,4.4005,4.3974,4.3621,4.2853,4.341,4.3348,4.2458,4.3198,4.361,4.3498,4.3646,4.3738,4.3738,4.3419,4.3332,4.3497,4.3497,4.3497,0.0,0.0,0.0,2.6883,0.0,0.0,0.0,2.4062,2.4238,2.5992,0.0,0.0,0.0,0.0,0.0,0.0,0.0,0.0,0.0,0.0,0.0,0.0,0.0,0.0,0.0,0.0,4.4062,4.4008,4.421,4.4506,4.488,4.5472,4.5611,4.5211,4.5057,4.4754,4.4355,4.4581,4.4504,4.4159,4.4363,4.4749,4.5281,4.4674,4.4665,4.5078,4.4541,4.4285,4.4285,4.4147,4.4377,4.4743,4.4284,4.4055,4.4005,4.4042,4.411,4.4178,4.4066,4.354,4.2876,4.2426,4.1789,4.1129,4.1073,4.1325,4.1576,4.1118,4.0996,4.081,3.9974,4.0661,4.159,4.159,4.2549,4.3453,4.3453,4.3818,4.4177,4.4244,4.4304,4.4154,4.3636,4.3621,4.365,4.3621,4.3591,4.377,4.4229,4.4255,4.4244,4.4244,4.4214,4.4184,4.4147,4.4023,4.3825,4.3527,4.3769,4.3743,4.3323,4.3693,4.3883,4.3804,4.3804,4.3804,4.3804,4.3686,4.36,4.3548,4.3532,4.3497,0.0,0.0,0.0,0.0,0.0,2.7031,0.0,0.0,0.0,2.7186,0.0,0.0,0.0,0.0,0.0,0.0,0.0,0.0,0.0,0.0,0.0,0.0,0.0,0.0,0.0,0.0,4.2449,4.2331,4.2208,4.2621,4.3673,4.4454,4.4954,4.5106,4.4986,4.4516,4.3701,4.4222,4.4146,4.3523,4.4025,4.4758,4.5704,4.4871,4.4853,4.5491,4.4674,4.4296,4.4255,4.4195,4.4165,4.4153,4.4153,4.4104,4.4005,4.4135,4.4191,4.4185,4.4079,4.3125,4.1935,4.1994,4.0894,3.9682,4.0123,4.0663,4.1126,4.1126,4.0773,4.0346,4.0178,4.0411,4.0783,4.1285,4.2162,4.2928,4.2928,4.3658,4.4314,4.4314,4.4354,4.4383,4.4314,4.4314,4.4344,4.4314,4.4314,4.4314,4.4344,4.4314,4.4314,4.4314,4.4255,4.4274,4.4285,4.4104,4.4011,4.4184,4.4042,4.3929,4.3929,4.3929,4.3897,4.3818,4.3837,4.3837,4.3837,4.3804,4.3719,4.3582,4.3548,4.3513,0.0,0.0,0.0,0.0,2.9366,0.0,0.0,0.0,2.6342,2.5098,0.0,0.0,0.0,0.0,0.0,0.0,0.0,0.0,0.0,0.0,0.0,0.0,0.0,0.0,0.0,0.0,0.0,3.8771,3.8704,3.9658,4.1963,4.3369,4.4452,4.5173,4.4991,4.4516,4.3701,4.3655,4.3605,4.358,4.3495,4.3912,4.4756,4.4524,4.4468,4.4543,4.4195,4.4116,4.4184,4.4011,4.3961,4.4005,4.4005,4.4005,4.4005,4.4005,4.4104,4.4221,4.424,4.3632,4.2874,4.2997,4.182,4.0262,3.9565,3.9342,3.938,3.938,3.9863,4.0215,3.9454,4.0402,4.1398,4.0766,4.1828,4.2986,4.2986,4.3687,4.4314,4.4383,4.4383,4.4383,4.4314,4.4401,4.4458,4.4383,4.4344,4.4344,4.4458,4.4373,4.4314,4.4383,4.4383,4.4373,4.4314,4.4214,4.4184,4.4184,4.4055,4.3974,4.3974,4.3974,4.3974,4.3974,4.3974,4.3974,4.3974,4.3851,4.3719,4.3582,4.3582,4.3548,0.0,0.0,0.0,0.0,0.0,0.0,2.7272,0.0,2.6473,0.0,0.0,0.0,0.0,0.0,0.0,0.0,0.0,0.0,0.0,0.0,0.0,0.0,0.0,0.0,0.0,0.0,0.0,0.0,0.0,3.8618,4.1582,4.2699,4.3842,4.5154,4.4991,4.4294,4.3008,4.334,4.3265,4.2793,4.3096,4.3671,4.4449,4.3858,4.381,4.4181,4.3666,4.3681,4.4085,4.4097,4.4048,4.4005,4.4005,4.3992,4.3979,4.4085,4.4116,4.4104,4.4129,4.3286,4.2182,4.1772,4.1436,4.1219,4.1338,4.0996,4.0607,4.0607,4.0235,3.9834,3.9946,4.0178,4.0383,4.0514,4.1128,4.1781,4.2249,4.3091,4.3868,4.4365,4.4458,4.4458,4.443,4.4458,4.4487,4.444,4.4411,4.443,4.4487,4.4458,4.443,4.4458,4.4411,4.4383,4.443,4.4314,4.4255,4.4314,4.4195,4.4104,4.4104,4.4036,4.4055,4.4104,4.3992,4.3961,4.3961,4.3883,4.3767,4.3582,4.3548,4.3497,3.0419,0.0,0.0,0.0,0.0,0.0,0.0,0.0,0.0,0.0,0.0,0.0,0.0,0.0,2.4102,2.3232,0.0,0.0,0.0,0.0,0.0,0.0,0.0,0.0,0.0,0.0,0.0,0.0,0.0,0.0,4.0508,4.155,4.2908,4.4772,4.4444,4.3672,4.2481,4.2697,4.2504,4.1876,4.2318,4.295,4.3718,4.3025,4.3108,4.3767,4.32,4.3364,4.3986,4.4079,4.4048,4.3992,4.3961,4.3915,4.3888,4.4048,4.4061,4.3936,4.3726,4.2951,4.1893,4.0839,4.12,4.208,4.244,4.198,4.139,4.139,4.042,3.9522,4.012,3.9848,3.9575,4.0154,4.0525,4.0896,4.1496,4.2524,4.3415,4.3764,4.4223,4.4495,4.4242,4.4364,4.4515,4.4515,4.4515,4.4515,4.4515,4.4515,4.4515,4.4515,4.4646,4.4683,4.4505,4.4607,4.4587,4.4373,4.4255,4.4184,4.4184,4.4055,4.4055,4.4135,4.3992,4.3929,4.3929,4.3897,4.3832,4.3682,4.36,4.355,0.0,0.0,0.0,2.6887,0.0,0.0,0.0,0.0,2.6746,0.0,0.0,0.0,0.0,2.501,2.4105,2.3237,2.3065,0.0,0.0,0.0,0.0,0.0,0.0,0.0,0.0,0.0,0.0,0.0,0.0,0.0,3.7882,3.9553,4.1457,4.3876,4.3064,4.2538,4.2393,4.152,4.1071,4.1052,4.0923,4.1304,4.2066,4.1975,4.2343,4.3023,4.2858,4.3262,4.4005,4.3851,4.3837,4.3902,4.3837,4.3808,4.3812,4.39,4.3911,4.3818,4.31,4.2891,4.2677,4.1036,4.1576,4.2731,4.1898,4.1128,4.0552,4.0552,3.9991,3.9418,3.941,3.9462,3.952,3.9514,4.0178,4.0816,4.0911,4.2234,4.313,4.2243,4.3495,4.444,4.3597,4.4044,4.4515,4.4515,4.4515,4.4515,4.4515,4.4515,4.4515,4.4515,4.519,4.5341,4.459,4.5142,4.5196,4.4371,4.4244,4.4184,4.4184,4.4055,4.4005,4.4005,4.4005,4.4005,4.4005,4.3929,4.3915,4.3897,4.3818,4.3686,0.0,0.0,3.2871,2.9205,0.0,0.0,0.0,0.0,0.0,0.0,0.0,0.0,0.0,2.5464,2.4966,2.4107,2.2971,2.201,0.0,0.0,0.0,0.0,0.0,0.0,0.0,0.0,0.0,0.0,0.0,0.0,0.0,3.9493,4.0902,4.2198,4.2373,4.217,4.1598,4.1264,4.1085,4.1062,4.0941,4.1229,4.1919,4.1368,4.1745,4.285,4.2302,4.2813,4.4005,4.3888,4.3878,4.3896,4.3826,4.3793,4.3793,4.3822,4.3818,4.374,4.2984,4.2767,4.2723,4.2196,4.2382,4.2772,4.2463,4.189,4.1185,4.07,4.0053,3.96,4.0176,3.9939,3.9727,4.0303,4.0252,4.0365,4.1512,4.2215,4.2831,4.3615,4.429,4.4591,4.4248,4.4444,4.4632,4.4632,4.4632,4.4605,4.4578,4.4605,4.4605,4.4515,4.4823,4.4907,4.457,4.4795,4.4749,4.4373,4.4325,4.4344,4.4344,4.4255,4.4207,4.4207,4.4067,4.3974,4.3929,4.3897,4.3883,4.3818,4.3851,4.3734,3.1779,3.2658,0.0,0.0,2.9824,0.0,2.6366,0.0,0.0,0.0,0.0,0.0,0.0,2.6113,2.5403,2.4549,2.3205,2.2049,0.0,2.1284,0.0,0.0,0.0,0.0,0.0,0.0,0.0,0.0,0.0,0.0,0.0,0.0,3.9602,4.096,4.1411,4.1475,4.1244,4.0855,4.0636,4.0608,4.0513,4.0716,4.1102,4.0577,4.1116,4.2454,4.1941,4.2611,4.4005,4.392,4.3892,4.3896,4.3775,4.3775,4.3789,4.3749,4.3531,4.3254,4.2847,4.2712,4.2693,4.2767,4.2797,4.2797,4.2828,4.2124,4.1222,4.0763,4.0087,3.9658,4.0259,4.0021,3.9782,4.0382,4.0325,4.0382,4.1189,4.2063,4.2812,4.3297,4.3888,4.4329,4.4252,4.4304,4.4424,4.4629,4.4712,4.4712,4.4659,4.4693,4.4685,4.4578,4.4877,4.5047,4.5011,4.472,4.4524,4.444,4.4411,4.4383,4.4383,4.4344,4.4285,4.4255,4.4147,4.4085,4.4011,4.4042,4.4011,4.3934,4.3979,4.3883]},{"header":{"parameterUnit":"m.s-1","parameterCategory":1,"la1":30.6,"la2":29.2853,"lo1":-89.7004,"lo2":-87.6739,"dy":0.0162,"dx":0.0183,"nx":112,"ny":82,"refTime":"2024-05-07T12:00:00:Z","depth":0,"parameterNumber":3,"parameterNumberName":"V-component_of_WINDS"},"data":[0.0,0.0,0.0,0.0,0.0,0.0,0.0,0.0,0.0,0.0,0.0,0.0,0.0,0.0,0.0,0.0,0.0,0.0,0.0,0.0,0.0,0.0,0.0,0.0,0.0,0.0,0.0,0.0,0.0,0.0,0.0,0.0,0.0,0.0,0.0,0.0,0.0,0.0,0.0,0.0,0.0,0.0,0.0,0.0,0.0,0.0,0.0,0.0,0.0,0.0,0.0,0.0,0.0,0.0,0.0,0.0,0.0,0.0,0.0,0.0,0.0,0.0,0.0,0.0,0.0,0.0,0.0,0.0,0.0,0.0,0.0,0.0,0.0,0.0,0.0,0.0,0.0,0.0,0.0,0.0,0.0,0.0,0.0,0.0,0.0,0.0,0.0,0.0,0.0,0.0,0.0,-0.7818,-0.8387,-0.876,-0.8713,-0.8497,-0.7816,-0.6448,0.0,0.0,0.0,0.0,0.0,0.0,0.0,0.0,0.0,0.0,0.0,0.0,0.0,0.0,0.0,0.0,0.0,0.0,0.0,0.0,0.0,0.0,0.0,0.0,0.0,0.0,0.0,0.0,0.0,0.0,0.0,0.0,0.0,0.0,0.0,0.0,0.0,0.0,0.0,0.0,0.0,0.0,0.0,0.0,0.0,0.0,0.0,0.0,0.0,0.0,0.0,0.0,0.0,0.0,0.0,0.0,0.0,0.0,0.0,0.0,0.0,0.0,0.0,0.0,0.0,0.0,0.0,0.0,0.0,0.0,0.0,0.0,0.0,0.0,0.0,0.0,0.0,0.0,0.0,0.0,0.0,0.0,0.0,0.0,0.0,0.0,0.0,0.0,0.0,0.0,0.0,0.0,0.0,0.0,0.0,0.0,0.0,0.0,0.0,0.0,0.0,0.0,0.0,0.0,-0.7435,-0.8892,-0.9054,-0.8984,-0.873,-0.8497,-0.7858,-0.6673,0.0,0.0,0.0,0.0,0.0,0.0,0.0,0.0,0.0,0.0,0.0,0.0,0.0,0.0,0.0,0.0,0.0,0.0,0.0,0.0,0.0,0.0,0.0,0.0,0.0,0.0,0.0,0.0,0.0,0.0,0.0,0.0,0.0,0.0,0.0,0.0,0.0,0.0,0.0,0.0,0.0,0.0,0.0,0.0,0.0,0.0,0.0,0.0,0.0,0.0,0.0,0.0,0.0,0.0,0.0,0.0,0.0,0.0,0.0,0.0,0.0,0.0,0.0,0.0,0.0,0.0,0.0,0.0,0.0,0.0,0.0,0.0,0.0,0.0,0.0,0.0,0.0,0.0,0.0,0.0,0.0,0.0,0.0,0.0,0.0,0.0,0.0,0.0,0.0,0.0,0.0,0.0,0.0,0.0,0.0,0.0,0.0,0.0,0.0,0.0,0.0,0.0,0.0,-0.7069,-0.7897,-0.9212,-0.9496,-0.9354,-0.9041,-0.8864,-0.8173,-0.6702,-0.6317,0.0,0.0,0.0,0.0,0.0,0.0,0.0,0.0,0.0,0.0,0.0,0.0,0.0,0.0,0.0,0.0,0.0,0.0,0.0,0.0,0.0,0.0,0.0,0.0,0.0,0.0,0.0,0.0,0.0,0.0,0.0,0.0,0.0,0.0,0.0,0.0,0.0,0.0,0.0,0.0,0.0,0.0,0.0,0.0,0.0,0.0,0.0,0.0,0.0,0.0,0.0,0.0,0.0,0.0,0.0,0.0,0.0,0.0,0.0,0.0,0.0,0.0,0.0,0.0,0.0,0.0,0.0,0.0,0.0,0.0,0.0,0.0,0.0,0.0,0.0,0.0,0.0,0.0,0.0,0.0,0.0,0.0,0.0,0.0,0.0,0.0,0.0,0.0,0.0,0.0,0.0,0.0,0.0,0.0,0.0,0.0,0.0,0.0,0.0,0.0,0.0,0.0,-0.7902,-0.8466,-0.9422,-0.9595,-0.9622,-0.9298,-0.9023,-0.8177,-0.6633,-0.6112,0.0,0.0,0.0,0.0,0.0,0.0,0.0,0.0,0.0,0.0,0.0,0.0,0.0,0.0,0.0,0.0,0.0,0.0,0.0,0.0,0.0,0.0,0.0,0.0,0.0,0.0,0.0,0.0,0.0,0.0,0.0,0.0,0.0,0.0,0.0,0.0,0.0,0.0,0.0,0.0,0.0,0.0,0.0,0.0,0.0,0.0,0.0,0.0,0.0,0.0,0.0,0.0,0.0,0.0,0.0,0.0,0.0,0.0,0.0,0.0,0.0,0.0,0.0,0.0,0.0,0.0,0.0,0.0,0.0,0.0,0.0,0.0,0.0,0.0,0.0,0.0,0.0,0.0,0.0,0.0,0.0,0.0,0.0,0.0,0.0,0.0,0.0,0.0,0.0,0.0,0.0,0.0,0.0,0.0,0.0,0.0,0.0,0.0,0.0,0.0,0.0,0.0,-0.8157,-0.9109,-0.9417,-0.945,-0.9447,-0.9123,-0.8232,-0.73,-0.6442,-0.5384,0.0,0.0,0.0,0.0,0.0,0.0,0.0,0.0,0.0,0.0,0.0,0.0,0.0,0.0,0.0,0.0,0.0,0.0,0.0,0.0,0.0,0.0,0.0,0.0,0.0,0.0,0.0,0.0,0.0,0.0,0.0,0.0,0.0,0.0,0.0,0.0,0.0,0.0,0.0,0.0,0.0,0.0,0.0,0.0,0.0,0.0,0.0,0.0,0.0,0.0,0.0,0.0,0.0,0.0,0.0,0.0,0.0,0.0,0.0,0.0,0.0,0.0,0.0,0.0,0.0,0.0,0.0,0.0,0.0,0.0,0.0,0.0,0.0,0.0,0.0,0.0,0.0,0.0,0.0,0.0,0.0,0.0,0.0,0.0,0.0,0.0,0.0,0.0,0.0,0.0,0.0,0.0,0.0,0.0,0.0,0.0,0.0,0.0,0.0,0.0,0.0,0.0,-0.7971,-0.895,0.0,-0.9754,-0.9704,-0.9465,-0.8583,-0.7704,-0.6666,0.0,0.0,0.0,0.0,0.0,0.0,0.0,0.0,0.0,0.0,0.0,0.0,0.0,0.0,0.0,0.0,0.0,0.0,0.0,0.0,0.0,0.0,0.0,0.0,0.0,0.0,0.0,0.0,0.0,0.0,0.0,0.0,0.0,0.0,0.0,0.0,0.0,0.0,0.0,0.0,0.0,0.0,0.0,0.0,0.0,0.0,0.0,0.0,0.0,0.0,0.0,0.0,0.0,0.0,0.0,0.0,0.0,0.0,0.0,0.0,0.0,0.0,0.0,0.0,0.0,0.0,0.0,0.0,0.0,0.0,0.0,0.0,0.0,0.0,0.0,0.0,0.0,0.0,0.0,0.0,0.0,0.0,0.0,0.0,0.0,0.0,0.0,0.0,0.0,0.0,0.0,0.0,0.0,0.0,0.0,0.0,0.0,0.0,0.0,0.0,0.0,0.0,-0.6902,-0.8067,-0.9143,0.0,-0.9859,-0.9772,-0.9565,-0.8609,-0.7616,-0.6553,0.0,0.0,0.0,0.0,0.0,0.0,0.0,0.0,0.0,0.0,0.0,0.0,0.0,0.0,0.0,0.0,0.0,0.0,0.0,0.0,0.0,0.0,0.0,0.0,0.0,0.0,0.0,0.0,0.0,0.0,0.0,0.0,0.0,0.0,0.0,0.0,0.0,0.0,0.0,0.0,0.0,0.0,0.0,0.0,0.0,0.0,0.0,0.0,0.0,0.0,0.0,0.0,0.0,0.0,0.0,0.0,0.0,0.0,0.0,0.0,0.0,0.0,0.0,0.0,0.0,0.0,0.0,0.0,0.0,0.0,0.0,0.0,0.0,0.0,0.0,0.0,0.0,0.0,0.0,0.0,0.0,0.0,0.0,0.0,0.0,0.0,0.0,0.0,0.0,0.0,0.0,0.0,0.0,0.0,0.0,0.0,0.0,0.0,0.0,0.0,0.0,0.0,-0.7337,-0.8686,-0.9799,-1.0284,-0.9789,-0.9415,-0.9347,-0.8116,-0.7017,0.0,0.0,0.0,0.0,0.0,0.0,0.0,0.0,0.0,0.0,0.0,0.0,0.0,0.0,0.0,0.0,0.0,0.0,0.0,0.0,0.0,0.0,0.0,0.0,0.0,0.0,0.0,0.0,0.0,0.0,0.0,0.0,0.0,0.0,0.0,0.0,0.0,0.0,0.0,0.0,0.0,0.0,0.0,0.0,0.0,0.0,0.0,0.0,0.0,0.0,0.0,0.0,0.0,0.0,0.0,0.0,0.0,0.0,0.0,0.0,0.0,0.0,0.0,0.0,0.0,0.0,0.0,0.0,0.0,0.0,0.0,0.0,0.0,0.0,0.0,0.0,0.0,0.0,0.0,0.0,0.0,0.0,0.0,0.0,0.0,0.0,0.0,0.0,0.0,0.0,0.0,0.0,0.0,0.0,0.0,0.0,0.0,0.0,0.0,0.0,0.0,0.0,0.0,-0.672,-0.818,-0.9184,-0.9175,-0.9065,-0.8967,-0.9077,-0.7952,-0.6962,-0.6221,0.0,0.0,0.0,0.0,0.0,0.0,0.0,0.0,0.0,0.0,0.0,0.0,0.0,0.0,0.0,0.0,0.0,0.0,0.0,0.0,0.0,0.0,0.0,0.0,0.0,0.0,0.0,0.0,0.0,0.0,0.0,0.0,0.0,0.0,0.0,0.0,0.0,0.0,0.0,0.0,0.0,0.0,0.0,0.0,0.0,0.0,0.0,0.0,0.0,0.0,0.0,0.0,0.0,0.0,0.0,0.0,0.0,0.0,0.0,0.0,0.0,0.0,0.0,0.0,0.0,0.0,0.0,0.0,0.0,0.0,0.0,0.0,0.0,0.0,0.0,0.0,0.0,0.0,0.0,0.0,0.0,0.0,0.0,0.0,0.0,0.0,0.0,0.0,0.0,0.0,0.0,0.0,0.0,0.0,0.0,0.0,0.0,0.0,0.0,0.0,0.0,0.0,-0.6988,-0.8159,-0.8984,-0.9252,-0.8958,-0.88,-0.8995,-0.8053,-0.7152,-0.6242,0.0,0.0,0.0,0.0,0.0,0.0,0.0,0.0,0.0,0.0,0.0,0.0,0.0,0.0,0.0,0.0,0.0,0.0,0.0,0.0,0.0,0.0,0.0,0.0,0.0,0.0,0.0,0.0,0.0,0.0,0.0,0.0,0.0,0.0,0.0,0.0,0.0,0.0,0.0,0.0,0.0,0.0,0.0,0.0,0.0,0.0,0.0,0.0,0.0,0.0,0.0,0.0,0.0,0.0,0.0,0.0,0.0,0.0,0.0,0.0,0.0,0.0,0.0,0.0,0.0,0.0,0.0,0.0,0.0,0.0,0.0,0.0,0.0,0.0,0.0,0.0,0.0,0.0,0.0,0.0,0.0,0.0,0.0,0.0,0.0,0.0,0.0,0.0,0.0,0.0,0.0,0.0,0.0,0.0,0.0,0.0,0.0,0.0,0.0,0.0,0.0,0.0,-0.7542,-0.8294,-0.8979,-0.9935,-0.921,-0.8718,-0.8905,-0.8265,-0.7418,-0.6359,0.0,0.0,0.0,0.0,0.0,0.0,0.0,0.0,0.0,0.0,0.0,0.0,0.0,0.0,0.0,0.0,0.0,0.0,0.0,0.0,0.0,0.0,0.0,0.0,0.0,0.0,0.0,0.0,0.0,0.0,0.0,0.0,0.0,0.0,0.0,0.0,0.0,0.0,0.0,0.0,0.0,0.0,0.0,0.0,0.0,0.0,0.0,0.0,0.0,0.0,0.0,0.0,0.0,0.0,0.0,0.0,0.0,0.0,0.0,0.0,-0.6038,0.0,0.0,0.0,0.0,0.0,0.0,0.0,0.0,0.0,0.0,0.0,0.0,0.0,0.0,0.0,0.0,0.0,0.0,0.0,0.0,0.0,0.0,0.0,0.0,0.0,0.0,0.0,0.0,0.0,0.0,0.0,0.0,0.0,0.0,0.0,0.0,0.0,0.0,0.0,0.0,0.0,-0.6752,-0.7703,-0.8448,-0.8707,-0.8375,-0.8287,-0.8653,-0.8007,-0.7307,-0.6738,0.0,0.0,0.0,0.0,0.0,0.0,0.0,0.0,0.0,0.0,0.0,0.0,0.0,0.0,0.0,0.0,0.0,0.0,0.0,0.0,0.0,0.0,0.0,0.0,0.0,0.0,0.0,0.0,0.0,0.0,0.0,0.0,0.0,0.0,0.0,0.0,0.0,0.0,0.0,0.0,0.0,0.0,0.0,0.0,0.0,0.0,0.0,0.0,0.0,0.0,0.0,0.0,0.0,0.0,0.0,0.0,0.0,0.0,0.0,0.0,0.0,-0.643,0.0,0.0,0.0,0.0,0.0,0.0,0.0,0.0,0.0,0.0,0.0,0.0,0.0,0.0,0.0,0.0,0.0,0.0,0.0,0.0,0.0,0.0,0.0,0.0,0.0,0.0,0.0,0.0,0.0,0.0,0.0,0.0,0.0,0.0,0.0,0.0,0.0,0.0,0.0,0.0,-0.6984,-0.767,-0.8268,-0.8612,-0.8333,-0.8301,-0.8517,-0.7955,-0.7467,-0.6989,-0.6468,0.0,0.0,0.0,0.0,0.0,0.0,0.0,0.0,0.0,0.0,0.0,0.0,0.0,0.0,0.0,0.0,0.0,0.0,0.0,0.0,0.0,0.0,0.0,0.0,0.0,0.0,0.0,0.0,0.0,0.0,0.0,0.0,0.0,0.0,0.0,0.0,0.0,0.0,0.0,0.0,0.0,0.0,0.0,0.0,0.0,0.0,0.0,0.0,0.0,0.0,0.0,0.0,0.0,0.0,0.0,-0.6692,-0.7085,-0.7277,-0.735,-0.6914,-0.6804,-0.6833,0.0,0.0,0.0,0.0,0.0,0.0,0.0,0.0,0.0,0.0,0.0,0.0,0.0,0.0,0.0,0.0,0.0,0.0,0.0,0.0,0.0,0.0,0.0,0.0,0.0,-0.8458,-0.8657,0.0,0.0,0.0,0.0,0.0,0.0,0.0,0.0,0.0,0.0,0.0,0.0,-0.7353,-0.7843,-0.8265,-0.8711,-0.8432,-0.8233,-0.8333,-0.7955,-0.7588,-0.7272,-0.717,-0.6787,0.0,0.0,0.0,0.0,0.0,0.0,0.0,0.0,0.0,0.0,0.0,0.0,0.0,0.0,0.0,0.0,0.0,0.0,0.0,0.0,0.0,0.0,0.0,0.0,0.0,0.0,0.0,0.0,0.0,0.0,0.0,0.0,-0.2376,-0.292,0.0,0.0,0.0,0.0,0.0,0.0,0.0,0.0,0.0,0.0,0.0,0.0,0.0,0.0,-0.5792,-0.6325,-0.6761,-0.7201,-0.7209,-0.7361,-0.7801,-0.749,-0.7576,-0.8043,-0.7942,0.0,-0.7202,-0.6783,0.0,0.0,0.0,0.0,0.0,0.0,0.0,0.0,0.0,0.0,0.0,0.0,0.0,0.0,0.0,0.0,0.0,0.0,0.0,0.0,0.0,0.0,-0.9092,-0.9256,-0.9364,-0.934,0.0,-0.8324,-0.7178,-0.689,0.0,0.0,0.0,0.0,0.0,0.0,0.0,0.0,-0.7076,-0.7602,-0.7966,-0.8414,-0.8038,-0.7842,-0.8038,-0.7571,-0.7439,-0.7716,-0.7302,-0.7174,-0.7412,-0.6705,0.0,0.0,0.0,0.0,0.0,0.0,0.0,0.0,0.0,0.0,0.0,0.0,0.0,0.0,0.0,0.0,0.0,0.0,0.0,0.0,0.0,0.0,0.0,0.0,0.0,0.0,0.0,0.0,0.0,-0.2034,-0.255,-0.305,-0.3186,-0.3242,0.0,0.0,0.0,0.0,0.0,0.0,0.0,0.0,0.0,-0.5744,-0.5896,-0.627,-0.6888,-0.7282,-0.7568,-0.7741,-0.8281,-0.8237,-0.8099,-0.8113,-0.8085,-0.8147,-0.8094,-0.8142,-0.7958,-0.7428,-0.7131,-0.6903,0.0,0.0,0.0,0.0,0.0,0.0,-0.7005,0.0,0.0,0.0,0.0,0.0,0.0,0.0,0.0,0.0,0.0,0.0,0.0,0.0,0.0,-0.9587,-0.9816,-0.986,-0.9717,-0.9064,-0.829,0.0,-0.7445,-0.6998,-0.6325,0.0,0.0,0.0,0.0,0.0,-0.73,-0.7567,-0.7736,-0.7916,-0.7694,-0.7579,-0.7511,-0.7478,-0.749,-0.7747,-0.7443,-0.7425,-0.7666,-0.7211,-0.6624,0.0,0.0,0.0,0.0,0.0,0.0,0.0,0.0,0.0,0.0,0.0,0.0,0.0,0.0,0.0,0.0,0.0,0.0,0.0,0.0,0.0,0.0,0.0,0.0,0.0,0.0,0.0,0.0,-0.2372,-0.291,-0.3243,-0.3592,-0.3875,0.0,0.0,0.0,0.0,0.0,0.0,-0.4994,-0.5456,-0.5976,-0.6692,-0.6689,-0.706,-0.7712,-0.8013,-0.8243,-0.8526,-0.9127,-0.9124,-0.8652,-0.8716,-0.8675,-0.8312,-0.8309,-0.8563,-0.8682,-0.8023,-0.793,-0.7947,-0.7273,-0.7199,0.0,-0.7059,-0.7006,-0.7285,-0.7452,-0.7891,-0.8174,-0.8339,0.0,-0.8332,-0.7893,0.0,0.0,0.0,0.0,-0.937,-0.9275,0.0,-0.97,-0.968,-0.9892,-1.0093,-0.965,-0.9575,-0.9381,0.0,-0.8291,-0.7941,-0.7055,0.0,0.0,0.0,0.0,-0.7265,-0.7636,-0.7711,-0.7704,-0.7596,-0.7582,-0.7543,-0.7289,-0.7429,-0.7546,-0.7703,-0.761,-0.7643,-0.7733,-0.7586,-0.7134,-0.6368,0.0,0.0,0.0,0.0,0.0,0.0,0.0,0.0,0.0,0.0,0.0,0.0,0.0,0.0,0.0,0.0,0.0,0.0,0.0,0.0,0.0,0.0,0.0,0.0,0.0,0.0,0.0,0.0,0.0,-0.3815,-0.4302,0.0,0.0,0.0,0.0,-0.4688,-0.5049,-0.5282,-0.5465,-0.5485,-0.5788,-0.6636,-0.6353,-0.666,-0.7689,-0.809,-0.8671,-0.9435,-0.9444,-0.9571,-0.9818,-0.9181,-0.8805,-0.894,-0.8816,-0.8994,-0.9218,-0.8564,-0.842,-0.8502,-0.8221,-0.8109,-0.8094,-0.7639,-0.788,-0.8404,-0.7963,-0.8142,-0.8672,-0.8659,-0.8671,-0.8501,-0.8315,-0.8449,0.0,0.0,-0.912,-0.9421,-0.9461,-0.947,-0.9472,-0.9477,-0.9777,-0.9935,-0.9859,-1.0006,-0.9972,0.0,-0.8437,-0.7951,-0.7884,0.0,0.0,-0.7351,-0.7336,-0.7461,-0.7753,-0.7936,-0.7939,-0.7928,-0.7739,-0.7585,-0.743,-0.7292,-0.7302,-0.7573,-0.7757,-0.7923,-0.8076,-0.7937,-0.7593,-0.7061,-0.6225,0.0,0.0,0.0,0.0,0.0,0.0,0.0,0.0,0.0,0.0,0.0,0.0,0.0,0.0,0.0,0.0,0.0,0.0,0.0,0.0,0.0,0.0,0.0,0.0,0.0,0.0,0.0,0.0,-0.4098,-0.4304,0.0,0.0,-0.4962,-0.5116,-0.5429,-0.5588,-0.5755,-0.5931,-0.616,-0.6482,-0.7023,-0.7124,-0.7567,-0.8091,-0.8555,-0.8876,-0.8921,-0.9456,-0.9413,-0.8938,-0.897,-0.8918,-0.8548,-0.8593,-0.8785,-0.9101,-0.8805,-0.9007,-0.9293,-0.8924,-0.8781,-0.8765,-0.828,-0.8375,-0.8755,-0.8357,-0.8571,-0.914,-0.9366,-0.9402,-0.9375,-0.933,-0.9242,-0.9308,-0.9569,-0.9812,-1.0035,-1.0056,-0.998,-1.0011,-0.9697,-0.9836,-0.993,-0.988,-0.9956,-0.9915,-0.9603,-0.9271,-0.8928,-0.8521,-0.8508,-0.8464,-0.8286,-0.8275,-0.8117,-0.7913,-0.7903,-0.7704,-0.7226,-0.7309,-0.7276,-0.6765,-0.6966,-0.7171,-0.7429,-0.7323,-0.7378,-0.7607,-0.767,-0.7458,-0.6883,-0.6624,-0.6179,0.0,0.0,0.0,0.0,0.0,0.0,0.0,0.0,0.0,0.0,0.0,0.0,0.0,0.0,0.0,0.0,0.0,0.0,0.0,0.0,0.0,0.0,0.0,0.0,0.0,0.0,-0.3606,-0.435,-0.4613,-0.4967,-0.5282,-0.5545,-0.5725,-0.5902,-0.6,-0.6104,-0.6221,-0.6517,-0.681,-0.7103,-0.7398,-0.783,-0.8135,-0.8659,-0.8831,-0.8647,-0.9368,-0.9306,-0.8873,-0.8907,-0.8859,-0.8485,-0.853,-0.8722,-0.9048,-0.9101,-0.9272,-0.9544,-0.9268,-0.9255,-0.9198,-0.8576,-0.8622,-0.8816,-0.8645,-0.8949,-0.9381,-0.961,-0.969,-0.972,-0.9626,-0.9597,-0.9705,-0.9926,-1.0054,-1.0147,-1.0147,-1.0036,-0.9926,-0.9706,-0.9706,-0.9677,-0.9779,-0.9738,-0.9673,-0.9671,-0.9604,-0.9462,-0.9039,-0.9028,-0.8922,-0.8715,-0.8582,-0.8374,-0.8157,-0.7982,-0.7731,-0.7198,-0.7473,-0.7398,-0.6694,-0.7021,-0.73,-0.727,-0.7173,-0.7177,-0.7346,-0.741,-0.7345,-0.7047,-0.6989,-0.6785,-0.6329,0.0,0.0,0.0,0.0,0.0,0.0,0.0,0.0,0.0,0.0,0.0,0.0,0.0,0.0,0.0,0.0,0.0,0.0,0.0,0.0,0.0,0.0,0.0,-0.3081,-0.3692,-0.4137,-0.4609,-0.5204,-0.5579,-0.5572,-0.598,-0.6186,-0.6188,-0.627,-0.6321,-0.6321,-0.6404,-0.6627,-0.7122,-0.7033,-0.7298,-0.7664,-0.8127,-0.853,-0.8769,-0.9197,-0.9539,-0.9528,-0.9136,-0.8877,-0.8762,-0.8883,-0.8938,-0.8941,-0.9196,-0.9326,-0.9329,-0.945,-0.9365,-0.923,-0.872,-0.8717,-0.8958,-0.9058,-0.9275,-0.9395,-0.9395,-0.9519,-0.9617,-0.9274,-0.9503,-0.9824,-0.9816,-0.9816,-0.9816,-0.9816,-0.9596,-0.9379,-0.9379,-0.9379,-0.9379,-0.9379,-0.9382,-0.9275,-0.8944,-0.9258,-0.947,-0.9255,-0.9023,-0.8815,-0.8601,-0.8279,0.0,-0.8489,-0.8171,-0.8011,-0.7866,-0.816,-0.7982,-0.7256,-0.7399,-0.7458,-0.716,-0.7319,-0.7499,-0.7507,-0.7381,-0.7383,-0.7457,-0.7287,-0.7391,-0.7582,0.0,0.0,0.0,0.0,0.0,0.0,0.0,0.0,0.0,0.0,0.0,0.0,0.0,0.0,0.0,0.0,0.0,0.0,0.0,0.0,0.0,0.0,-0.2752,-0.3197,-0.3759,-0.4263,-0.4564,-0.4954,-0.5185,-0.5361,-0.5706,-0.5915,-0.5973,-0.6267,-0.6417,-0.6417,-0.6441,-0.6702,-0.7188,-0.7367,-0.7636,-0.8249,-0.8397,-0.8617,-0.8769,-0.8974,-0.896,-0.8991,-0.8822,-0.8739,-0.8618,-0.8568,-0.8593,-0.8665,-0.8972,-0.8987,-0.8786,-0.9124,-0.9351,-0.9356,-0.8688,-0.8717,-0.897,-0.9774,-0.9971,-1.006,-1.006,-0.9958,-0.993,-0.9466,-0.9211,-0.9072,-0.9407,-0.9489,-0.9596,-0.9706,-0.9706,-0.9596,-0.9489,-0.9158,-0.9158,-0.9379,-0.9464,-0.9542,-0.9658,-0.9619,-0.955,-0.9332,-0.9287,-0.9215,-0.8893,0.0,0.0,-0.8094,-0.8021,-0.7906,-0.7664,-0.7766,-0.7813,-0.7677,-0.7455,-0.7324,-0.7418,-0.7396,-0.7386,-0.7499,-0.7767,-0.8009,-0.8127,-0.8095,-0.8005,0.0,0.0,0.0,0.0,0.0,0.0,0.0,0.0,0.0,0.0,0.0,0.0,0.0,0.0,0.0,0.0,0.0,0.0,0.0,0.0,0.0,0.0,-0.2632,-0.2907,-0.3455,-0.3871,-0.4184,-0.4525,-0.4763,-0.4996,-0.5211,-0.554,-0.5863,-0.5908,-0.6317,-0.6453,-0.6453,-0.6585,-0.6846,-0.7229,-0.7421,-0.7716,-0.8102,-0.8389,-0.8455,-0.8568,-0.8742,-0.872,-0.8769,-0.8717,-0.8655,0.0,-0.8519,-0.8527,-0.8581,-0.8778,-0.8659,0.0,0.0,0.0,0.0,0.0,-0.8673,-0.8976,-0.9582,-0.9822,-1.0072,-1.0141,-1.0137,-0.9958,-0.9693,-0.9371,-0.9133,-0.9384,-0.9318,-0.9268,-0.9599,-0.9485,-0.9485,-0.9596,-0.9268,-0.9047,-0.9489,-0.9557,-0.951,-0.9514,0.0,0.0,-0.9186,-0.9191,-0.9156,-0.891,-0.8781,-0.8598,0.0,-0.8075,-0.7974,-0.7839,-0.7858,-0.7932,-0.7918,-0.7607,0.0,0.0,0.0,-0.7631,-0.7768,-0.8204,0.0,0.0,0.0,-0.8926,0.0,0.0,0.0,0.0,-0.9695,-1.0024,0.0,0.0,0.0,0.0,0.0,0.0,0.0,0.0,0.0,0.0,0.0,0.0,0.0,0.0,0.0,0.0,-0.2761,-0.2985,-0.3828,-0.3909,-0.4036,-0.4533,-0.4621,-0.4777,-0.5049,-0.5562,-0.5778,-0.5778,-0.6183,-0.6453,-0.6453,0.0,0.0,0.0,0.0,-0.7876,-0.7833,-0.8158,-0.8301,-0.8544,-0.8614,-0.8698,-0.8788,-0.8679,-0.8622,-0.8609,-0.8609,-0.8617,-0.8628,-0.8748,-0.8734,-0.872,-0.8969,-0.8961,-0.8736,-0.8623,-0.8769,0.0,0.0,0.0,0.0,-1.0005,-0.9981,-1.001,-0.9781,-0.9634,-0.9511,-0.9493,-0.9283,-0.896,-0.9382,-0.9172,-0.9071,-0.9732,-0.9404,-0.9071,-0.9621,-0.9625,-0.9404,-0.9075,-0.9398,-0.956,-0.9095,-0.8964,-0.8954,-0.8816,-0.8689,0.0,-0.8459,-0.8241,-0.8084,-0.8275,0.0,0.0,-0.8001,-0.8032,-0.798,-0.7845,-0.7984,-0.8147,-0.8302,-0.8492,-0.886,-0.9389,-0.9411,-0.9953,-1.0967,-1.0967,-1.125,-1.1697,-1.0509,-1.0742,0.0,0.0,0.0,0.0,0.0,0.0,0.0,0.0,0.0,0.0,0.0,0.0,0.0,0.0,0.0,-0.2606,-0.2863,-0.3088,-0.3671,-0.3882,-0.3977,-0.4174,-0.4482,-0.4556,-0.4529,-0.4826,-0.4973,-0.4973,-0.5644,-0.6182,-0.6453,-0.6927,0.0,-0.7538,-0.8033,-0.8228,-0.8258,-0.8377,-0.856,-0.8954,0.0,0.0,-0.8916,-0.8891,-0.8826,-0.8736,-0.9005,-0.9061,-0.8872,-0.9452,-0.9618,-0.9516,-0.9144,-0.8941,-0.888,-0.9357,-0.9484,-0.9516,-0.9761,-1.0005,-1.038,-1.0039,-0.9927,-0.9785,-0.9812,-0.9232,0.0,-0.9184,-0.9246,-0.9195,-0.9629,-0.9579,-0.956,-0.9901,-0.9676,-0.9444,-0.9669,-0.9789,-0.9905,-0.9792,-0.9818,-0.9942,-0.98,-0.9451,-0.9069,-0.8611,-0.8606,-0.8534,-0.7988,-0.81,-0.8161,-0.812,-0.8107,-0.819,-0.8661,-0.8299,-0.8124,-0.829,-0.8247,-0.8324,-0.8827,-0.896,-0.9324,-0.9904,-1.0249,-1.0681,-1.1097,-1.1297,-1.1615,-1.2149,-1.151,-1.1612,0.0,0.0,0.0,0.0,0.0,0.0,0.0,0.0,0.0,0.0,0.0,-0.1199,-0.1713,0.0,-0.2257,-0.2867,-0.3092,-0.3407,-0.3743,-0.3936,-0.3993,-0.3993,-0.4171,-0.4233,-0.4165,-0.4783,-0.5095,-0.5059,-0.5929,-0.6519,-0.6523,-0.7062,-0.7378,-0.7477,-0.7944,-0.8278,-0.8479,-0.8535,-0.8705,-0.9133,-0.8786,-0.8866,-0.9226,-0.9162,-0.9271,-0.9408,-0.9683,-0.9584,-0.9495,-0.9775,-0.9777,-0.9655,-0.9456,-0.9255,-0.9311,-0.9553,-0.9716,-0.9658,-0.9906,-1.0161,-1.0426,-1.0246,-1.0117,-0.9951,-1.0029,-0.9493,-0.9026,-0.9265,-0.9269,-0.9267,-0.9497,-0.955,-0.9588,-0.9738,-0.9716,-0.9582,-0.9507,-0.9716,-0.9853,-0.9596,-0.972,-0.972,-0.961,-0.938,-0.9103,-0.8725,-0.8759,-0.8603,-0.816,-0.8272,-0.8464,-0.8396,-0.8278,-0.8386,-0.8824,-0.8539,-0.8364,-0.8674,-0.8625,-0.8873,-0.9357,-0.9544,-0.9998,-1.05,-1.0697,-1.1057,-1.1462,-1.1564,-1.187,-1.2278,-1.2163,-1.2353,0.0,0.0,0.0,0.0,0.0,0.0,0.0,0.0,0.0293,0.0104,-0.0538,-0.1215,-0.1934,-0.2086,-0.2481,-0.3029,-0.3329,-0.3483,-0.3846,-0.3882,-0.3871,-0.3768,-0.397,-0.404,-0.3924,-0.4718,-0.5205,-0.516,-0.6225,-0.6725,-0.659,-0.7097,-0.7413,-0.7276,-0.7734,-0.8077,-0.8449,-0.8539,-0.8827,-0.9166,-0.9068,-0.9148,-0.9538,-0.9572,-0.9719,-1.0101,-1.0125,-1.0243,-1.0187,-1.0076,-0.9921,-0.9754,-0.9754,-0.9686,-0.9701,-0.9716,-0.9784,-0.9758,-0.9758,-0.9908,-1.0206,-1.029,-1.0159,-0.9853,-1.0171,-0.9852,-0.9362,-0.9547,-0.9408,-0.9256,-0.9435,-0.9473,-0.9456,-0.9525,-0.9599,-0.9567,-0.9446,-0.9643,-0.9791,-0.9469,-0.9514,-0.9639,-0.9384,-0.9264,-0.9212,-0.8947,-0.8933,-0.8826,-0.8484,-0.8595,-0.8589,-0.8786,-0.8669,-0.8669,-0.8893,-0.8669,-0.8635,-0.8955,-0.9009,-0.9289,-0.9739,-0.9955,-1.0389,-1.0941,-1.105,-1.1376,-1.194,-1.1898,-1.2086,-1.2398,-1.256,-1.2751,0.127,0.1256,0.1337,0.1514,0.1521,0.1373,0.0,0.0,0.1431,0.0238,-0.048,-0.1198,-0.195,-0.2103,-0.2126,-0.251,-0.2925,-0.3196,-0.3533,-0.3531,-0.3513,-0.3577,-0.3871,-0.3928,-0.3723,-0.4051,-0.451,-0.4959,-0.5446,-0.5904,-0.659,-0.7152,-0.7349,-0.7283,-0.8159,-0.8407,-0.8133,-0.8577,-0.8866,-0.9283,-0.9272,-0.9352,-0.9677,-1.0085,-1.0226,-1.0248,-1.0361,-1.0558,-1.047,-1.0178,-1.0084,-1.0,-1.0,-1.0117,-1.036,-0.9698,-0.9613,-0.9758,-0.9506,-0.9716,-1.0061,-0.9947,-0.9634,-0.944,-0.9701,-0.9582,-0.9362,-0.9359,-0.9479,-0.9617,-0.9585,-0.9509,-0.9456,-0.9525,-0.9599,-0.9596,-0.9582,-0.9807,-0.9931,-0.9949,-1.0063,-1.0111,-0.9624,-0.9599,-0.9437,-0.8957,-0.894,-0.8826,-0.8484,-0.8712,-0.8776,-0.8429,-0.852,-0.8737,-0.8737,-0.8706,-0.8793,-0.9115,-0.8962,-0.9197,-0.9746,-0.9851,-1.0136,-1.0937,-1.115,-1.1657,-1.237,-1.2191,-1.2524,-1.3246,-1.2837,-1.2735,0.1622,0.1565,0.149,0.0,0.1623,0.1787,0.1647,0.1183,0.0716,0.0125,-0.025,-0.0745,-0.1874,-0.201,-0.2144,0.0,-0.2832,-0.3102,-0.3254,-0.3264,-0.3119,-0.2896,-0.3288,-0.3598,-0.3558,-0.4159,-0.4769,-0.5106,-0.5992,-0.6633,-0.7021,-0.7411,-0.7619,-0.7812,-0.822,-0.8405,-0.8536,-0.8617,-0.8871,-0.9302,-0.9163,-0.9428,-1.0224,-1.0132,-1.0392,-1.0972,-1.1028,-1.0936,-1.0879,-1.0662,-1.047,-1.0353,-1.0267,-1.0234,-1.0234,-1.0104,-1.012,-1.027,-1.014,-1.0179,-1.0336,-1.0187,-1.0085,-0.9856,-0.9895,-0.965,-0.9321,-0.9523,-0.9496,-0.9469,-0.9545,-0.9583,-0.9476,-0.9435,-0.9674,-0.9694,-0.9269,-0.9658,-0.9982,-0.9731,-0.9609,-0.971,-0.9735,-0.9663,-0.955,-0.9182,-0.9051,-0.8826,-0.8712,-0.8826,-0.8803,-0.8633,-0.8732,-0.8845,-0.8845,-0.8869,-0.9071,-0.9272,-0.9448,-0.972,-1.0038,-1.0258,-1.0505,-1.1016,-1.1341,-1.1706,-1.2223,-1.2464,-1.2744,-1.3061,-1.3184,-1.3249,0.1792,0.1725,0.0,0.1457,0.1764,0.2071,0.1928,0.1101,0.0251,-0.0,-0.0382,-0.0752,-0.14,-0.177,-0.2141,-0.2422,-0.2732,-0.2996,-0.3014,-0.3016,-0.2868,-0.2775,-0.301,-0.3307,-0.3692,-0.4409,-0.5011,-0.5506,-0.6399,-0.7081,-0.7274,-0.7402,-0.7732,-0.8059,-0.8071,-0.821,-0.8803,-0.8899,-0.9002,-0.9256,-0.9225,-0.9513,-1.0248,-1.024,-1.0651,-1.1453,-1.1453,-1.1365,-1.1212,-1.1067,-1.0867,-1.0774,-1.062,-1.0432,-1.0432,-1.069,-1.0658,-1.0518,-1.0609,-1.0491,-1.0494,-1.0561,-1.0428,-1.0178,-1.0108,-0.9847,-0.9634,-0.9707,-0.9676,-0.9517,-0.9591,-0.9578,-0.9517,-0.9408,-0.9581,-0.9542,-0.9178,-0.9486,-0.9724,-0.9531,-0.9354,-0.9428,-0.9655,-0.9624,-0.9564,-0.9346,-0.9186,-0.9047,-0.894,-0.894,-0.894,-0.894,-0.894,-0.8937,-0.9047,-0.9163,-0.9363,-0.9592,-0.9918,-1.0229,-1.0359,-1.0692,-1.0911,-1.1236,-1.1568,-1.1896,-1.2223,-1.2663,-1.2989,-1.3098,-1.3537,-1.3753,0.1671,0.1881,0.1989,0.1846,0.1928,0.2016,0.1891,0.1388,0.0767,0.0133,-0.1145,-0.1723,-0.0261,-0.1145,-0.2006,-0.2223,-0.2503,-0.2754,-0.31,-0.2801,-0.2775,-0.3402,-0.2823,-0.2962,0.0,-0.4552,-0.5091,-0.59,-0.6401,-0.6668,-0.6843,-0.7189,-0.7325,-0.7433,-0.7856,-0.8137,-0.8566,-0.896,-0.9247,-0.9141,-0.9556,-0.9697,-0.9706,-1.0539,-1.118,-1.1613,-1.1613,-1.1528,-1.1372,-1.1219,-1.1163,-1.1002,-1.0852,-1.0919,-1.1303,-1.1299,-1.076,-1.0091,-1.0199,-1.0118,-1.0065,-1.0409,-1.0308,-1.0002,-1.007,-1.0187,-1.0261,-1.0123,-0.9943,-0.9778,-0.9646,-0.95,-0.9388,-0.9384,-0.9157,-0.9022,-0.9306,-0.9371,-0.9422,-0.9574,-0.9598,-0.9598,-0.9602,-0.9582,-0.9486,-0.926,-0.936,-0.9268,-0.8937,-0.894,-0.894,-0.894,-0.894,-0.9047,-0.9379,-0.9375,-0.9592,-1.0257,-1.0253,-1.0359,-1.0692,-1.0911,-1.1236,-1.1568,-1.1896,-1.2332,-1.2881,-1.2881,-1.3207,-1.3645,-1.364,-1.3862,0.1846,0.1908,0.1953,0.1981,0.2034,0.2074,0.1927,0.155,0.1171,0.0784,0.0251,-0.0243,-0.0372,-0.0737,-0.11,-0.1986,-0.2205,-0.2511,-0.2939,-0.2597,-0.2599,-0.3124,-0.301,0.0,0.0,0.0,0.0,-0.6054,-0.6357,-0.67,-0.7354,-0.7647,-0.7948,-0.8341,-0.8711,-0.8958,-0.9101,-0.9066,-0.9314,-0.9558,-0.9842,-1.0028,-0.9859,-1.0601,-1.1137,-1.1467,-1.1467,-1.1581,-1.1801,-1.1365,-1.1421,-1.1567,-1.1282,-1.1091,-1.121,-1.1102,-1.0708,-1.0357,-1.0948,-1.0899,-1.0572,-1.0489,-1.0298,-1.0012,-0.9933,-0.9765,-0.9776,-1.0069,-0.9731,-0.9507,-0.9676,-0.9651,-0.9381,-0.9381,-0.9339,-0.9359,-0.9452,-0.9497,-0.9655,-0.9578,-0.9608,-0.9608,-0.9842,-0.9789,-0.9724,-0.9504,-0.9252,-0.9047,-0.894,-0.894,-0.894,-0.894,-0.894,-0.9047,-0.9379,-0.9599,-0.9816,-1.0257,-1.0582,-1.0911,-1.0907,-1.124,-1.1459,-1.1568,-1.1896,-1.2223,-1.255,-1.2772,-1.3207,-1.3753,-1.3753,-1.3964,0.1992,0.2032,0.2049,0.2087,0.2119,0.2129,0.2078,0.1683,0.1291,0.1265,0.1215,0.0939,0.0234,-0.0116,-0.0467,-0.1201,-0.1509,-0.1943,-0.2585,-0.2504,-0.2647,-0.322,-0.322,-0.3621,0.0,0.0,0.0,-0.6231,-0.6513,-0.6853,-0.7544,-0.7806,-0.8103,-0.8828,-0.9157,-0.9402,-0.9446,-0.9518,-0.9743,-0.998,-1.0122,-1.0311,-1.0282,-1.0744,-1.114,-1.1474,-1.1616,-1.1899,-1.203,-1.1727,-1.1812,-1.2138,-1.184,-1.1739,-1.1668,-1.1626,-1.1437,-1.1184,-1.1313,-1.1082,-1.0674,-1.0758,-1.058,-1.0439,-1.0214,-1.0046,-0.9901,-1.0188,-0.9856,-0.9504,-0.9729,-0.9655,-0.9449,-0.9395,-0.9377,-0.9436,-0.9418,-0.9535,-0.9672,-0.9646,-0.9646,-0.9625,-0.9912,-0.9866,-0.9655,-0.9553,-0.922,-0.894,-0.894,-0.894,-0.894,-0.894,-0.894,-0.9047,-0.9489,-0.9816,-1.0147,-1.0582,-1.1021,-1.1236,-1.1236,-1.1568,-1.1787,-1.1787,-1.2005,-1.2219,-1.2441,-1.2881,-1.3207,-1.3532,-1.3753,-1.418,0.2097,0.2136,0.2159,0.2159,0.2177,0.2172,0.2082,0.1656,0.1249,0.1693,0.1734,0.1556,0.0,0.0,-0.011,-0.0,-0.0483,-0.1245,-0.2133,-0.267,-0.308,0.0,0.0,0.0,0.0,0.0,0.0,-0.6439,0.0,-0.7252,-0.7544,-0.7672,-0.8084,-0.8729,-0.9066,-0.9347,-0.9888,-1.0314,-1.0388,-1.0254,-1.026,-1.0546,-1.0969,-1.0969,-1.1193,-1.1619,-1.2051,-1.2191,-1.2173,-1.2444,-1.2463,-1.2554,-1.2785,-1.2731,-1.2672,-1.2746,-1.2548,-1.2166,-1.1404,-1.0918,-1.0631,-1.1084,-1.1273,-1.1148,-1.0899,-1.077,-1.0733,-1.0476,-1.0169,-0.9724,-0.9806,-0.9735,-0.9571,-0.9425,-0.9279,-0.9259,-0.9554,-0.95,-0.9476,-0.9764,-0.9713,-0.9659,-0.9778,-0.9564,-0.9394,-0.9425,-0.9158,-0.894,-0.894,-0.894,-0.894,-0.894,-0.894,-0.9158,-0.9706,-1.0147,-1.0582,-1.1017,-1.1459,-1.1568,-1.1568,-1.1896,-1.2001,-1.2001,-1.2219,-1.2441,-1.2436,-1.2989,-1.3315,-1.3315,-1.3975,-1.4401,0.2166,0.2199,0.2222,0.2222,0.2177,0.2115,0.2048,0.1867,0.1683,0.1704,0.1742,0.1673,0.0,0.0,0.0,0.011,-0.0122,0.0,-0.1324,-0.2369,0.0,-0.3777,0.0,-0.4227,-0.5023,-0.5338,0.0,0.0,-0.6427,-0.6881,-0.7447,-0.7625,-0.7984,-0.8851,-0.891,-0.9205,-0.9587,-0.9928,-1.0054,-1.0113,-1.0214,-1.0546,-1.0969,-1.0969,-1.1193,-1.1619,-1.2051,-1.2269,-1.2437,-1.2537,-1.2873,-1.3365,-1.3047,-1.284,-1.2556,-1.264,-1.2071,-1.1355,-1.1351,-1.1241,-1.1088,-1.1285,-1.091,-1.0525,-1.0292,-1.0055,-0.9863,-1.0177,-0.9821,-0.9473,-0.9863,-0.9815,-0.9479,-0.9196,-0.9399,-0.9426,-0.9131,-0.9297,-0.9486,-0.9425,-0.9549,-0.9707,-0.9527,-0.9432,-0.9283,-0.9095,-0.894,-0.894,-0.894,-0.894,-0.894,-0.894,-0.9161,-0.9379,-0.9816,-1.0147,-1.0582,-1.1017,-1.1459,-1.1678,-1.1896,-1.2114,-1.2332,-1.2332,-1.2332,-1.255,-1.2772,-1.2881,-1.3207,-1.364,-1.3959,-1.4498,0.2251,0.2272,0.2281,0.1843,0.1931,0.2116,0.1991,0.1915,0.1829,0.1682,0.1615,0.1555,0.1373,0.1064,0.0719,0.0,0.0,0.0,-0.1068,-0.2388,-0.3467,0.0,-0.3901,0.0,-0.4999,-0.5353,-0.5747,0.0,-0.6649,-0.707,-0.77,-0.7947,-0.8319,-0.9113,-0.9326,-0.962,-0.9989,-1.0262,-1.044,-1.052,-1.0741,-1.0921,-1.1209,-1.1209,-1.1395,-1.1619,0.0,-1.2525,-1.2518,-1.2799,-1.3287,-1.3625,-1.3411,-1.3252,-1.3168,-1.2927,-1.2377,-1.1744,-1.1725,-1.1606,-1.1522,-1.1394,-1.1031,-1.0653,-1.0325,-1.0,-0.9815,-0.9958,-0.9766,-0.9573,-0.9849,-0.9724,-0.943,-0.9298,-0.9436,-0.9506,-0.9232,-0.9546,-0.9768,-0.9552,-0.97,-0.9727,-0.9432,-0.9381,-0.9279,-0.8984,-0.894,-0.894,-0.894,-0.9047,-0.9047,-0.894,-0.9268,-0.9596,-0.9816,-1.0257,-1.0692,-1.1017,-1.1568,-1.1787,-1.2005,-1.2441,-1.2659,-1.2659,-1.2767,-1.2876,-1.3098,-1.3207,-1.3423,-1.3753,-1.4175,-1.4708,0.2333,0.2191,0.2035,0.1436,0.1814,0.2124,0.1805,0.1707,0.1608,0.1538,0.1478,0.1252,0.0841,0.0971,0.0854,-0.0102,0.0,-0.0483,-0.1216,-0.2649,-0.356,-0.35,-0.3958,-0.4403,-0.513,-0.5501,-0.5878,-0.6146,-0.6946,-0.7504,-0.7991,-0.8393,-0.8902,-0.9208,-0.9641,-1.0067,-1.0483,-1.0894,-1.1034,-1.1044,-1.1329,-1.1476,-1.1619,-1.1619,-1.1619,-1.1763,0.0,0.0,-1.2625,-1.3328,-1.3667,-1.3716,-1.3822,-1.3853,-1.3864,-1.3211,-1.2978,-1.2674,-1.2,-1.1776,-1.1772,-1.1398,-1.1273,-1.1148,-1.0521,-1.0276,-1.0127,-0.9996,-0.9936,-0.9737,-0.9849,-0.9629,-0.9395,-0.9382,-0.9534,-0.9625,-0.9516,-0.9755,-0.9912,-0.9795,-0.9822,-0.9727,-0.9432,-0.9381,-0.9279,-0.8984,-0.8937,-0.894,-0.894,-0.9158,-0.9268,-0.8937,-0.9485,-0.9816,-0.9816,-1.0363,-1.0802,-1.1126,-1.1673,-1.2005,-1.2001,-1.255,-1.2866,-1.295,-1.3197,-1.3305,-1.3383,-1.363,-1.3748,-1.3748,-1.439,-1.4922,0.2363,0.2058,0.1744,0.201,0.2033,0.2014,0.1879,0.1725,0.1566,0.1411,0.1439,0.1396,0.1247,0.1284,0.0662,-0.1307,-0.1676,-0.1727,-0.2005,-0.3098,-0.379,0.0,-0.4226,-0.4717,-0.4819,0.0,0.0,0.0,0.0,0.0,-0.8002,-0.8171,-0.8612,-0.9007,-0.9457,-0.9854,-1.0187,-0.9917,-1.0158,-1.1044,-1.075,-1.1034,-1.1619,-1.1907,-1.2051,-1.2187,0.0,0.0,-1.2862,-1.3554,-1.3883,-1.3923,-1.4159,-1.4074,-1.3748,-1.3486,-1.2935,-1.2323,-1.2143,-1.201,-1.1772,-1.1398,-1.1152,-1.0884,-1.0636,-1.0123,-0.9758,-0.9972,-0.9863,-0.9663,-0.9727,-0.9781,-0.9687,-0.9395,-0.9523,-0.9664,-0.9182,-0.9182,-0.9552,-0.9694,-0.9822,-0.9727,-0.9432,-0.961,-0.9509,-0.8981,-0.9158,-0.9268,-0.9268,-0.9161,-0.894,-0.894,-0.9485,-0.9816,-0.9816,-1.0363,-1.0802,-1.1126,-1.1459,-1.1778,-1.1873,-1.2309,-1.2675,-1.3265,-1.3449,-1.3567,-1.3598,-1.3665,-1.3856,-1.4169,-1.4713,-1.5148,0.2374,0.2209,0.2035,0.2154,0.2153,0.1975,0.1921,0.1745,0.1569,0.1557,0.1253,0.099,0.0953,0.0965,0.0441,-0.1302,-0.0722,-0.0574,-0.1907,-0.2673,-0.3211,-0.3514,-0.4214,-0.4585,-0.4892,-0.5289,0.0,0.0,0.0,0.0,-0.7919,-0.8341,-0.8624,-0.9181,-0.9066,-0.9323,-0.9971,-0.9911,-1.0314,-1.1044,-1.1038,-1.1325,-1.1907,-1.2051,-1.2334,-1.247,0.0,0.0,-1.2947,-1.3684,-1.4026,-1.4002,-1.4087,-1.4166,-1.4173,-1.3505,-1.3116,-1.286,-1.2513,-1.2242,-1.2005,-1.1639,-1.1273,-1.1016,-1.0579,-1.0197,-0.9957,-0.9961,-0.984,-0.9734,-0.9802,-0.97,-0.9579,-0.9579,-0.97,-0.9822,-0.97,-0.9579,-0.9579,-0.9822,-0.9822,-0.9751,-0.9537,-0.9549,-0.9533,-0.9304,-0.9206,-0.9296,-0.9709,-0.9429,-0.9268,-0.9379,-0.9926,-1.0253,-1.0033,-1.0582,-1.0907,-1.1126,-1.1564,-1.1891,-1.21,-1.2644,-1.3038,-1.3479,-1.3814,-1.3927,-1.3923,-1.3922,-1.4078,-1.418,-1.4719,-1.5148,0.2367,0.2351,0.2324,0.229,0.2139,0.1948,0.1969,0.1771,0.158,0.1469,0.1026,0.0643,0.0495,0.0303,-0.0,-0.0786,0.0095,0.0213,-0.1578,-0.2165,-0.255,-0.3194,-0.3893,0.0,-0.4931,-0.5349,0.0,0.0,0.0,0.0,0.0,-0.823,-0.8741,-0.9117,-0.8658,-0.8792,-0.9695,-1.0031,-1.0476,-1.0897,-1.1329,-1.176,-1.2194,-1.2338,-1.2617,-1.2896,0.0,0.0,0.0,-1.3901,-1.4143,-1.4321,-1.4198,-1.4303,-1.4563,-1.3727,-1.3346,-1.3423,-1.2897,-1.2599,-1.2118,-1.1997,-1.1635,-1.1152,-1.0547,-1.0404,-1.0265,-1.0054,-1.0041,-0.9895,-0.9895,-0.9677,-0.9579,-0.97,-0.9822,-0.9943,-1.0183,-1.0061,-0.9933,-0.9781,-0.9774,-0.9837,-0.9658,-0.9644,-0.9624,-0.9691,-0.937,-0.9471,-1.0152,-0.9835,-0.9776,-1.0028,-1.0406,-1.0488,-1.0307,-1.0749,-1.1096,-1.1245,-1.1652,-1.2064,-1.2265,-1.3009,-1.3511,-1.368,-1.4056,-1.4169,-1.4228,-1.4169,-1.4299,-1.4407,-1.4826,-1.525,0.233,0.2335,0.232,0.2264,0.2093,0.1898,0.1743,0.1527,0.1242,0.0823,0.0915,0.0827,0.0144,-0.0597,-0.0877,-0.0181,-0.0776,-0.1276,-0.1093,-0.1685,-0.2341,-0.2503,-0.364,-0.4467,-0.4931,-0.5543,0.0,0.0,0.0,0.0,0.0,-0.7988,-0.8282,-0.8571,-0.855,-0.8695,-0.915,-0.9564,-1.0042,-1.0599,-1.1315,-1.1753,-1.2194,-1.29,-1.3182,-1.3317,0.0,0.0,0.0,-1.4592,-1.4751,-1.4955,-1.4981,-1.4936,-1.4581,-1.4142,-1.3625,-1.3232,-1.3209,-1.2719,-1.2234,-1.2118,-1.1756,-1.1273,-1.091,-1.0688,-1.0484,-1.0627,-1.0565,-1.0458,-1.0458,-1.0321,-1.0183,-0.9822,-1.0061,-1.0183,-0.9943,-1.0061,-1.0144,-0.9652,-0.9863,-0.9884,-0.9695,-1.0092,-1.0257,-0.9861,-1.0066,-1.0385,-1.0401,-1.0389,-1.0549,-1.1044,-1.0663,-1.0429,-1.0478,-1.0831,-1.1235,-1.1625,-1.1707,-1.181,-1.1637,-1.285,-1.3777,-1.4095,-1.4196,-1.4196,-1.4201,-1.4196,-1.4407,-1.4934,-1.4934,-1.5464,0.2262,0.228,0.2266,0.2206,0.2046,0.186,0.1691,0.1495,0.1471,0.1679,0.1051,0.0348,0.0071,-0.0655,-0.1073,-0.0845,-0.0702,-0.085,-0.1315,-0.1394,-0.1868,-0.2908,-0.3444,0.0,0.0,0.0,0.0,0.0,0.0,0.0,0.0,-0.7443,-0.8067,-0.8556,-0.8428,-0.8705,-0.9414,-0.9839,-1.033,-1.075,-1.1613,-1.2187,-1.2617,-1.3039,-1.3468,-1.3611,0.0,0.0,0.0,-1.4658,-1.4849,-1.5147,-1.51,-1.4879,-1.4581,-1.4166,-1.3751,-1.3449,-1.3449,-1.3204,-1.284,-1.284,-1.2479,-1.1997,-1.1273,-1.0917,-1.0802,-1.0629,-1.0528,-1.0401,-1.0401,-1.0406,-1.0408,-1.0289,-1.0481,-1.0547,-1.0425,-1.0353,-1.039,-1.0213,-1.0119,-1.0128,-0.9996,-1.0126,-1.0156,-1.02,-1.0242,-1.0362,-1.0592,-1.0469,-1.0457,-1.0643,-1.0606,-1.0588,-1.087,-1.1255,-1.1607,-1.1901,-1.2312,-1.2525,-1.2599,-1.3207,-1.3835,-1.418,-1.4153,-1.4148,-1.4163,-1.4358,-1.4504,-1.4821,-1.5148,-1.5577,0.2167,0.2198,0.2193,0.2141,0.1999,0.1825,0.1644,0.1385,0.1401,0.2041,0.0994,0.0,0.0,-0.0437,-0.0905,-0.1289,-0.0833,-0.0624,-0.1327,-0.1307,-0.1651,-0.2905,0.0,0.0,0.0,0.0,0.0,0.0,0.0,0.0,0.0,-0.721,-0.796,-0.8313,-0.8203,-0.8615,-0.9445,-0.9903,-1.0414,-1.084,-1.1883,-1.2617,-1.2896,-1.3468,-1.3757,0.0,0.0,0.0,0.0,-1.4894,-1.5257,-1.5491,-1.5203,-1.4955,-1.4671,-1.438,-1.4046,-1.3808,-1.3808,-1.3688,-1.3324,-1.3204,-1.2964,-1.2599,-1.1877,-1.1478,-1.1075,-1.0776,-1.0631,-1.0486,-1.0585,-1.0661,-1.062,-1.0718,-1.0827,-1.0895,-1.0729,-1.0632,-1.0642,-1.0427,-1.0312,-1.033,-1.0281,-1.0292,-1.0328,-1.0663,-1.0478,-1.0443,-1.0822,-1.0582,-1.0429,-1.0629,-1.0634,-1.0765,-1.1072,-1.1469,-1.175,-1.2056,-1.2673,-1.3053,-1.3194,-1.3436,-1.3769,-1.3991,-1.4158,-1.4261,-1.4293,-1.4575,-1.4786,-1.4934,-1.5363,-1.5903,0.2041,0.2088,0.2104,0.2202,0.1952,0.1793,0.1613,0.1201,0.0927,0.1272,0.0583,0.0,0.0,-0.0,-0.0308,-0.1131,-0.1314,-0.1236,-0.0925,-0.1475,-0.1974,-0.2095,0.0,-0.3193,0.0,0.0,0.0,0.0,0.0,0.0,0.0,0.0,-0.7676,-0.7679,-0.8198,-0.8482,-0.8774,-0.9719,-1.0128,-1.0269,-1.1966,-1.3039,-1.3325,-1.4189,0.0,0.0,0.0,0.0,0.0,-1.5465,-1.5891,-1.6136,-1.5715,-1.53,-1.4879,-1.4848,-1.4544,-1.4172,-1.4172,-1.3933,-1.3688,-1.3324,-1.2964,-1.2719,-1.2719,-1.2216,-1.1611,-1.1095,-1.1013,-1.1053,-1.1407,-1.1125,-1.0848,-1.1187,-1.1269,-1.1106,-1.0588,-1.0791,-1.0809,-1.0133,-1.0296,-1.0467,-1.0292,-1.048,-1.0802,-1.1021,-1.1073,-1.1011,-1.1042,-1.0911,-1.0802,-1.1017,-1.0801,-1.0657,-1.0745,-1.1015,-1.1469,-1.21,-1.2843,-1.3197,-1.3082,-1.3535,-1.364,-1.3635,-1.4192,-1.4521,-1.4606,-1.4861,-1.5189,-1.5482,-1.5791,-1.6318,0.18,0.184,0.1847,0.1887,0.183,0.164,0.1825,0.1459,0.1127,0.1136,0.0569,0.0,0.0,0.0,-0.0236,-0.0963,-0.1348,-0.1513,-0.1484,-0.1807,-0.2162,-0.2448,-0.3471,-0.419,0.0,0.0,0.0,0.0,0.0,0.0,0.0,0.0,-0.7813,-0.8088,-0.8397,-0.8946,-0.9446,-1.0222,-1.0783,-1.0969,-1.2248,-1.2896,-1.3039,-1.3472,0.0,0.0,0.0,0.0,0.0,-1.5039,-1.5185,-1.5445,-1.5311,-1.5128,-1.4857,-1.4695,-1.4533,-1.4411,-1.4411,-1.4291,-1.4052,-1.3933,-1.3688,-1.3324,-1.3084,-1.2451,-1.1532,-1.0997,-1.0978,-1.1056,-1.1187,-1.1208,-1.122,-1.1221,-1.1274,-1.1261,-1.1321,-1.1232,-1.106,-1.1189,-1.099,-1.0728,-1.0789,-1.0911,-1.0911,-1.0798,-1.1071,-1.1214,-1.0792,-1.075,-1.0753,-1.0599,-1.0689,-1.0937,-1.141,-1.1591,-1.189,-1.2592,-1.2988,-1.3317,-1.3629,-1.3862,-1.3993,-1.3978,-1.4272,-1.4527,-1.4606,-1.4905,-1.5229,-1.5791,-1.6004,-1.6424,0.1594,0.1634,0.1637,0.1693,0.1565,0.1601,0.1772,0.1706,0.1562,0.1679,0.1132,0.0438,-0.0148,-0.0074,-0.0233,-0.0955,-0.1416,-0.1671,-0.1673,0.0,0.0,-0.232,0.0,0.0,0.0,0.0,0.0,0.0,0.0,0.0,0.0,0.0,-0.7755,-0.8163,-0.8747,-0.9152,-0.9505,-1.0461,-1.1024,-1.1024,-1.2219,-1.2896,-1.3039,0.0,0.0,0.0,0.0,0.0,0.0,-1.4755,-1.4873,-1.5129,-1.4983,-1.4852,-1.4788,-1.4691,-1.4595,-1.4655,-1.4655,-1.4411,-1.4172,-1.4052,-1.3875,-1.367,-1.3117,-1.2337,-1.1608,-1.1011,-1.1017,-1.1186,-1.1339,-1.1356,-1.1498,-1.1699,-1.1554,-1.1434,-1.171,-1.1454,-1.1362,-1.1524,-1.1237,-1.1027,-1.1206,-1.1236,-1.124,-1.1236,-1.135,-1.1428,-1.0937,-1.0884,-1.0839,-1.0551,-1.0622,-1.1057,-1.1914,-1.1796,-1.2022,-1.2922,-1.3228,-1.3414,-1.3591,-1.3984,-1.4172,-1.3962,-1.4492,-1.4746,-1.4713,-1.5143,-1.5678,-1.6205,-1.6324,-1.653,0.0,0.1459,0.147,0.1401,0.1369,0.148,0.1756,0.1875,0.0,0.2559,0.214,0.1244,-0.0151,-0.0223,-0.0377,-0.1145,-0.1544,-0.1736,0.0,-0.1652,0.0,0.0,0.0,0.0,0.0,0.0,0.0,0.0,0.0,0.0,0.0,0.0,0.0,-0.8058,-0.8833,-0.9238,-0.9117,-1.059,-1.1007,-1.0737,-1.2154,-1.302,-1.3309,0.0,0.0,0.0,0.0,0.0,0.0,-1.4625,-1.4792,-1.513,-1.4756,-1.4726,-1.4873,-1.4911,-1.4826,-1.4655,-1.4655,-1.4535,-1.4172,-1.3813,-1.3779,-1.3562,-1.2896,-1.225,-1.1701,-1.1228,-1.1126,-1.1321,-1.1912,-1.1759,-1.1641,-1.2412,-1.2138,-1.1714,-1.1768,-1.1687,-1.1498,-1.1447,-1.1407,-1.1456,-1.1647,-1.1678,-1.1678,-1.1896,-1.1773,-1.1635,-1.1472,-1.1196,-1.1039,-1.0883,-1.082,-1.1264,-1.2201,-1.1791,-1.1971,-1.3138,-1.3552,-1.3568,-1.3178,-1.3999,-1.4213,-1.3779,-1.4631,-1.5063,-1.5041,-1.5678,-1.6205,-1.673,-1.6424,-1.6743,0.1202,0.0,0.13,0.126,0.1275,0.1359,0.0,0.1682,0.1854,0.2332,0.2255,0.1833,0.1226,-0.0077,-0.0977,-0.0849,-0.1361,-0.1718,-0.1767,0.0,0.0,0.0,0.0,0.0,0.0,0.0,0.0,0.0,0.0,0.0,0.0,0.0,0.0,-0.8058,-0.8748,-0.9416,-0.9924,-1.0897,-1.1536,-1.1682,-1.2557,-1.3142,-1.3138,0.0,0.0,0.0,0.0,0.0,-1.4213,-1.4268,-1.429,-1.4515,-1.4678,-1.4903,-1.5032,-1.5095,-1.5168,-1.5364,-1.5364,-1.5007,-1.4411,-1.3928,-1.367,-1.3343,-1.2781,-1.2606,-1.2432,-1.1634,-1.1678,-1.1841,-1.1867,-1.1895,-1.193,-1.1994,-1.1768,-1.1691,-1.1867,-1.181,-1.1814,-1.2459,-1.214,-1.1991,-1.2186,-1.2223,-1.2114,-1.1787,-1.1877,-1.1856,-1.1654,-1.1475,-1.1406,-1.1564,-1.1482,-1.1662,-1.2201,-1.2087,-1.2505,-1.3659,-1.3649,-1.3872,-1.4412,-1.4249,-1.4398,-1.468,-1.5098,-1.5427,-1.5678,-1.5998,-1.6424,-1.673,-1.663,-1.6849,0.1125,0.1178,0.1232,0.1213,0.131,0.1401,0.1647,0.1642,0.1775,0.2391,0.2202,0.1864,0.1571,0.0696,-0.0165,-0.0475,-0.0881,0.0,0.0,0.0,0.0,0.0,0.0,0.0,0.0,0.0,0.0,0.0,0.0,0.0,0.0,0.0,0.0,0.0,-0.8856,-0.9655,-1.019,-1.1001,-1.1486,-1.1493,-1.2421,-1.2959,-1.2959,0.0,0.0,0.0,0.0,0.0,-1.4012,-1.3839,-1.402,-1.4404,-1.4435,-1.4736,-1.5116,-1.5116,-1.5235,-1.5359,-1.5359,-1.4935,-1.4257,-1.3897,-1.3572,-1.3189,-1.2847,-1.2776,-1.2693,-1.2032,-1.1896,-1.2051,-1.2037,-1.205,-1.2078,-1.2262,-1.2108,-1.2114,-1.255,-1.2393,-1.2278,-1.2812,-1.2641,-1.2418,-1.2733,-1.2659,-1.255,-1.2228,-1.2243,-1.214,-1.2051,-1.186,-1.1797,-1.1803,-1.1644,-1.1865,-1.2402,-1.2339,-1.2536,-1.334,-1.3643,-1.3982,-1.4145,-1.4224,-1.4532,-1.5075,-1.537,-1.5671,-1.6105,-1.6318,-1.6636,-1.6955,-1.6736,-1.6948,0.1132,0.1183,0.1236,0.1247,0.1335,0.1413,0.1686,0.1723,0.1885,0.2444,0.2071,0.1592,0.1557,0.1399,0.0,0.0,0.0,0.0,-0.1791,-0.2058,0.0,0.0,0.0,0.0,0.0,0.0,0.0,0.0,0.0,0.0,0.0,0.0,0.0,0.0,-0.8859,-0.9794,-1.0193,-1.0984,-1.1319,-1.1049,-1.2289,-1.2913,-1.2913,-1.3572,0.0,0.0,0.0,0.0,-1.3867,-1.3674,-1.3953,-1.4538,-1.436,-1.4644,-1.5235,-1.5235,-1.5235,-1.5116,-1.5116,-1.4611,-1.3956,-1.3956,-1.3546,-1.3082,-1.2879,-1.2836,-1.2772,-1.2223,-1.2114,-1.2151,-1.2219,-1.2248,-1.2307,-1.2885,-1.2696,-1.2659,-1.3207,-1.2959,-1.2718,-1.3027,-1.2926,-1.2889,-1.3285,-1.3207,-1.2989,-1.2994,-1.2767,-1.2488,-1.2433,-1.2397,-1.2142,-1.1968,-1.1764,-1.1964,-1.2607,-1.2577,-1.2537,-1.2684,-1.3586,-1.3862,-1.3567,-1.4272,-1.4713,-1.5018,-1.5371,-1.5712,-1.6262,-1.6611,-1.6842,-1.7279,-1.6948,-1.7153,0.1184,0.1261,0.1309,0.1237,0.1415,0.1691,0.1729,0.177,0.1821,0.2285,0.1977,0.1746,0.1824,0.1109,0.0539,0.0,0.0,0.0,0.0,0.0,0.0,0.0,0.0,0.0,0.0,0.0,0.0,0.0,0.0,0.0,0.0,0.0,0.0,0.0,0.0,-0.9519,-1.019,-1.0877,-1.1419,-1.1688,-1.2649,-1.3137,-1.3537,-1.3652,-1.3818,0.0,0.0,-1.3738,-1.4024,-1.4067,-1.4456,-1.5043,-1.5007,-1.5235,-1.5477,-1.5477,-1.5477,-1.5477,-1.5235,-1.4611,-1.3956,-1.3956,-1.3441,-1.2874,-1.2767,-1.2611,-1.255,-1.2659,-1.255,-1.2337,-1.237,-1.2574,-1.2787,-1.2855,-1.2816,-1.2881,-1.3207,-1.3073,-1.3048,-1.348,-1.3588,-1.3604,-1.364,-1.3532,-1.3423,-1.3315,-1.3088,-1.2856,-1.2837,-1.2695,-1.2511,-1.2389,-1.2365,-1.2459,-1.2915,-1.3136,-1.3351,-1.3374,-1.3669,-1.4018,-1.4026,-1.4476,-1.4692,-1.4753,-1.5281,-1.5725,-1.6283,-1.6615,-1.6948,-1.7582,-1.7477,-1.7477,0.1151,0.1383,0.162,0.1527,0.1537,0.162,0.1762,0.2083,0.2296,0.2212,0.2013,0.1802,0.1883,0.0,0.0862,0.0763,0.0,0.0,0.0,0.0,0.0,0.0,0.0,0.0,0.0,0.0,0.0,0.0,0.0,0.0,0.0,0.0,0.0,0.0,0.0,-0.935,-0.9814,-1.0464,-1.103,-1.1516,-1.2511,-1.3079,-1.3472,-1.3953,-1.4194,0.0,0.0,-1.3939,-1.4067,-1.4211,-1.4525,-1.5116,-1.5116,-1.5353,-1.5601,-1.5601,-1.5515,-1.5312,-1.5192,-1.4564,-1.3853,-1.3864,-1.338,-1.2592,-1.2812,-1.2631,-1.2441,-1.2772,-1.2772,-1.2659,-1.2876,-1.2989,-1.3098,-1.3315,-1.3315,-1.3388,-1.3372,-1.3229,-1.3171,-1.3474,-1.3342,-1.3423,-1.3862,-1.3645,-1.3537,-1.3769,-1.3428,-1.3093,-1.2989,-1.3133,-1.3074,-1.2553,-1.2807,-1.2984,-1.3063,-1.3175,-1.3436,-1.3896,-1.3869,-1.3987,-1.4277,-1.4383,-1.4589,-1.4695,-1.5105,-1.5543,-1.6094,-1.6484,-1.6932,-1.7348,-1.7348,-1.7539,0.1129,0.1485,0.1804,0.1837,0.1707,0.1711,0.1917,0.2291,0.254,0.2098,0.1983,0.1894,0.1691,0.1614,0.0,0.0906,0.0,0.0,0.0,0.0,0.0,0.0,0.0,0.0,0.0,0.0,0.0,0.0,0.0,0.0,0.0,0.0,0.0,0.0,0.0,0.0,-0.9583,-1.023,-1.0809,-1.1326,-1.237,-1.3021,-1.3413,-1.4313,-1.4487,-1.4232,-1.4199,-1.413,-1.4291,-1.4411,-1.4764,-1.5235,-1.5235,-1.5322,-1.5515,-1.5515,-1.5253,-1.4966,-1.5077,-1.439,-1.3679,-1.3911,-1.3345,-1.2659,-1.2881,-1.2767,-1.2659,-1.2989,-1.3098,-1.3098,-1.3207,-1.3315,-1.3423,-1.364,-1.3706,-1.3618,-1.3541,-1.3391,-1.323,-1.3419,-1.3326,-1.3362,-1.4072,-1.3867,-1.365,-1.4104,-1.3764,-1.3428,-1.3212,-1.3545,-1.3504,-1.2876,-1.3304,-1.3502,-1.3401,-1.3341,-1.369,-1.4233,-1.4156,-1.4237,-1.4501,-1.4447,-1.4517,-1.4714,-1.4906,-1.5326,-1.591,-1.6401,-1.6878,-1.7255,-1.7358,-1.7549,0.1249,0.1264,0.1358,0.1689,0.1889,0.2095,0.2206,0.2058,0.1911,0.1923,0.1942,0.1845,0.146,0.1573,0.179,0.0,0.0,0.0,0.0,0.0,0.0,0.0,0.0,0.0,0.0,0.0,0.0,0.0,0.0,0.0,0.0,0.0,0.0,0.0,0.0,0.0,-1.036,-1.075,-1.1146,-1.1549,-1.258,-1.3229,-1.362,-1.4254,-1.4416,-1.4033,-1.4372,-1.4489,-1.4655,-1.4878,-1.5235,-1.5596,-1.5596,-1.5467,-1.5278,-1.5278,-1.4897,-1.45,-1.4729,-1.4256,-1.3674,-1.3911,-1.3684,-1.3207,-1.3207,-1.3207,-1.3315,-1.3532,-1.364,-1.3645,-1.3315,-1.3532,-1.3645,-1.3753,-1.3581,-1.3525,-1.3714,-1.3346,-1.3164,-1.3677,-1.373,-1.3816,-1.4153,-1.4196,-1.4191,-1.4196,-1.4196,-1.3975,-1.3645,-1.3758,-1.382,-1.3714,-1.3811,-1.3964,-1.4151,-1.4248,-1.433,-1.4599,-1.4666,-1.4724,-1.5071,-1.4841,-1.4714,-1.4714,-1.4714,-1.5146,-1.6017,-1.6189,-1.6769,-1.7549,-1.7877,-1.7845,0.0973,0.0943,0.1141,0.164,0.1883,0.1885,0.1862,0.1918,0.1955,0.1805,0.2014,0.1991,0.0,0.0,0.1805,0.0,0.0,0.0,0.0,0.0,0.0,0.0,0.0,0.0,0.0,0.0,0.0,0.0,0.0,0.0,0.0,0.0,0.0,0.0,0.0,0.0,0.0,-1.077,-1.1351,-1.1854,-1.2594,-1.3093,-1.3594,-1.4111,-1.4279,-1.4014,-1.4132,-1.4372,-1.4655,-1.4769,-1.5126,-1.5585,-1.544,-1.5327,-1.523,-1.5079,-1.4761,-1.4484,-1.4375,-1.404,-1.3696,-1.3699,-1.3563,-1.3315,-1.3532,-1.3423,-1.3315,-1.3645,-1.3753,-1.3753,-1.3862,-1.3975,-1.3932,-1.3779,-1.3673,-1.353,-1.3233,-1.3012,-1.3038,-1.3078,-1.3195,-1.3425,-1.3837,-1.3853,-1.3853,-1.4177,-1.4066,-1.3959,-1.3747,-1.4109,-1.4087,-1.3625,-1.3914,-1.4242,-1.4504,-1.47,-1.4868,-1.5227,-1.5005,-1.4932,-1.4865,-1.4961,-1.4826,-1.4661,-1.5016,-1.5449,-1.5939,-1.6412,-1.6898,-1.7315,-1.7425,-1.7569,0.1008,0.0994,0.1065,0.1703,0.1807,0.1748,0.1511,0.1692,0.1863,0.1925,0.2007,0.1971,0.176,0.0,0.0,0.0,0.0,0.0,0.0,0.0,0.0,0.0,0.0,0.0,0.0,0.0,0.0,0.0,0.0,0.0,0.0,0.0,0.0,0.0,0.0,0.0,0.0,-1.0974,-1.1657,-1.2279,-1.2713,-1.3095,-1.3545,-1.4164,-1.4227,-1.3915,-1.4221,-1.4372,-1.465,-1.4697,-1.5022,-1.5472,-1.5316,-1.516,-1.5004,-1.4837,-1.4627,-1.435,-1.4137,-1.3966,-1.3898,-1.3794,-1.3711,-1.3645,-1.3753,-1.3753,-1.3645,-1.3862,-1.3862,-1.3867,-1.4191,-1.4196,-1.4153,-1.3976,-1.3825,-1.3517,-1.309,-1.293,-1.2915,-1.282,-1.3062,-1.3325,-1.3688,-1.3656,-1.3733,-1.4129,-1.397,-1.3712,-1.3816,-1.4128,-1.4243,-1.3832,-1.4134,-1.451,-1.4872,-1.4894,-1.5119,-1.5481,-1.5252,-1.5065,-1.5068,-1.5091,-1.5047,-1.5045,-1.5259,-1.555,-1.6012,-1.6416,-1.6817,-1.7014,-1.7304,-1.7509,0.1624,0.14,0.1046,0.1729,0.1828,0.1669,0.1247,0.1386,0.1742,0.1978,0.1928,0.1778,0.1868,0.1698,0.0,0.0,0.0,0.0,0.0,0.0,0.0,0.0,0.0,0.0,0.0,0.0,0.0,0.0,0.0,0.0,0.0,0.0,0.0,0.0,0.0,0.0,0.0,-1.1653,-1.2394,-1.3009,-1.3179,-1.3314,-1.3528,-1.4313,-1.4284,-1.3698,-1.4513,-1.4731,-1.4634,-1.4998,-1.5252,-1.5252,-1.5246,-1.4955,-1.4536,-1.453,-1.4385,-1.4223,-1.4119,-1.416,-1.4229,-1.4125,-1.4155,-1.4196,-1.4186,-1.4186,-1.4191,-1.4191,-1.4191,-1.4186,-1.4186,-1.4191,-1.4191,-1.4191,-1.3825,-1.348,-1.3475,-1.3104,-1.2829,-1.3055,-1.3303,-1.3562,-1.3733,-1.3833,-1.3968,-1.4201,-1.3827,-1.3583,-1.389,-1.3888,-1.4011,-1.4572,-1.4596,-1.4872,-1.5452,-1.4994,-1.4903,-1.5475,-1.5246,-1.5324,-1.5909,-1.5382,-1.532,-1.5897,-1.5363,-1.546,-1.6319,-1.6319,-1.6419,-1.672,-1.7626,-1.7688,0.1566,0.1769,0.1591,0.1031,0.1069,0.139,0.1684,0.1739,0.191,0.1897,0.1879,0.1847,0.1853,0.0,0.0,0.0,0.0,0.0,0.0,0.0,0.0,0.0,0.0,0.0,0.0,0.0,0.0,0.0,0.0,0.0,0.0,0.0,0.0,0.0,0.0,0.0,0.0,0.0,-1.2252,-1.2971,-1.3499,-1.377,-1.3878,-1.4133,-1.4046,-1.3834,-1.4323,-1.4641,-1.4764,-1.5389,-1.5588,-1.5555,-1.5219,-1.511,-1.506,-1.4462,-1.4353,-1.4407,-1.3935,-1.4028,-1.4175,-1.3741,-1.389,-1.4132,-1.3793,-1.3803,-1.39,-1.3948,-1.4008,-1.4003,-1.4194,-1.4223,-1.4144,-1.3927,-1.3696,-1.3432,-1.3254,-1.298,-1.2786,-1.285,-1.3095,-1.3252,-1.3601,-1.3568,-1.3746,-1.4228,-1.3869,-1.3483,-1.3561,-1.3745,-1.3817,-1.3778,-1.4029,-1.4218,-1.4608,-1.4517,-1.456,-1.4944,-1.469,-1.4752,-1.5326,-1.5381,-1.5433,-1.5609,-1.5835,-1.6038,-1.6308,-1.6514,-1.6607,-1.6707,-1.6988,-1.6982,0.2023,0.2166,0.2025,0.1519,0.1574,0.1823,0.2132,0.2113,0.185,0.0,0.1888,0.1855,0.1873,0.0,0.0,0.0,0.0,0.0,0.0,0.0,0.0,0.0,0.0,0.0,0.0,0.0,0.0,0.0,0.0,0.0,0.0,0.0,0.0,0.0,0.0,0.0,0.0,0.0,-1.2321,-1.2908,-1.3494,-1.3788,-1.4115,-1.4334,-1.4255,-1.3966,-1.438,-1.4601,-1.5009,-1.5254,-1.5325,-1.5396,-1.5022,-1.4937,-1.5001,-1.4445,-1.4333,-1.4482,-1.4067,-1.3997,-1.4153,-1.3689,-1.3816,-1.4082,-1.38,-1.3784,-1.386,-1.4026,-1.3885,-1.3782,-1.3981,-1.399,-1.392,-1.3903,-1.3751,-1.3437,-1.3287,-1.3095,-1.2861,-1.2861,-1.3073,-1.3292,-1.3181,-1.3424,-1.3698,-1.4097,-1.3825,-1.3656,-1.3707,-1.3841,-1.3881,-1.3674,-1.3873,-1.4027,-1.4139,-1.4109,-1.4217,-1.4401,-1.4236,-1.4339,-1.469,-1.5107,-1.5396,-1.5615,-1.5963,-1.6152,-1.6273,-1.6446,-1.6473,-1.6359,-1.6593,-1.6647,0.2719,0.2601,0.2446,0.2804,0.2811,0.2718,0.2582,0.2265,0.2002,0.1919,0.0,0.1943,0.0,0.0,0.0,0.0,0.0,0.0,0.0,0.0,0.0,0.0,0.0,0.0,0.0,0.0,0.0,0.0,0.0,0.0,0.0,0.0,0.0,0.0,0.0,0.0,-1.1004,-1.1942,-1.2525,0.0,-1.3236,-1.3711,-1.4182,-1.4736,-1.4725,-1.4326,-1.4458,-1.4719,-1.5146,-1.4972,-1.4966,-1.4917,-1.4652,-1.4567,-1.4618,-1.4275,-1.4404,-1.4567,-1.4301,-1.4166,-1.4116,-1.3841,-1.3876,-1.4058,-1.3907,-1.384,-1.3851,-1.4016,-1.3807,-1.3518,-1.3824,-1.3738,-1.3702,-1.4123,-1.3806,-1.3448,-1.355,-1.3281,-1.305,-1.2861,-1.3152,-1.3311,-1.2918,-1.3285,-1.3619,-1.3842,-1.3883,-1.3916,-1.3848,-1.3876,-1.3868,-1.3903,-1.401,-1.4105,-1.3859,-1.3813,-1.3856,-1.3882,-1.3811,-1.3941,-1.4128,-1.4746,-1.5351,-1.5784,-1.583,-1.5939,-1.6233,-1.6206,-1.6066,-1.5845,-1.638,-1.6585,0.2496,0.2696,0.2886,0.2932,0.284,0.2735,0.2349,0.2294,0.2477,0.2582,0.2231,0.1989,0.0,0.0,0.0,0.0,0.0,0.0,0.0,0.0,0.0,0.0,0.0,0.0,0.0,0.0,0.0,0.0,0.0,0.0,0.0,0.0,0.0,0.0,0.0,-1.1006,-1.1512,-1.1975,-1.2436,0.0,-1.3365,-1.3684,-1.4177,-1.4341,-1.4431,-1.4569,-1.4929,-1.5072,-1.5114,-1.4977,-1.4955,-1.4906,-1.4736,-1.4855,-1.4937,-1.4415,-1.4567,-1.4759,-1.3904,-1.3706,-1.383,-1.34,-1.3389,-1.3577,-1.3149,-1.3144,-1.3247,-1.3358,-1.3406,-1.3509,-1.3607,-1.3848,-1.4113,-1.3959,-1.3529,-1.3285,-1.3691,-1.3358,-1.2958,-1.3249,-1.3249,-1.326,-1.3608,-1.3773,-1.3852,-1.3905,-1.4057,-1.4033,-1.3614,-1.3813,-1.3842,-1.3601,-1.3601,-1.3591,-1.3619,-1.3368,-1.3383,-1.3604,-1.3357,-1.3481,-1.396,-1.4654,-1.5045,-1.5197,-1.5425,-1.5538,-1.5639,-1.5604,-1.5765,-1.613,-1.6259,-1.6375,0.2666,0.303,0.3313,0.3193,0.2966,0.281,0.2833,0.2576,0.2534,0.3053,0.2599,0.0,0.0,0.0,0.0,0.0,0.0,0.0,0.0,0.0,0.0,0.0,0.0,0.0,0.0,0.0,0.0,0.0,0.0,0.0,0.0,0.0,0.0,0.0,-1.0194,-1.0989,-1.1558,-1.1781,-1.2284,-1.2836,-1.3179,-1.3698,-1.4252,-1.437,-1.4611,-1.4949,-1.4834,-1.4863,-1.4818,-1.4684,-1.4636,-1.4606,-1.4667,-1.4873,-1.5059,-1.4631,-1.4647,-1.4707,-1.3914,-1.3664,-1.3593,-1.3222,-1.3295,-1.3434,-1.3068,-1.304,-1.3111,-1.3283,-1.3249,-1.3152,-1.3249,-1.3442,-1.3635,-1.3733,-1.3622,-1.3607,-1.3811,-1.3618,-1.3346,-1.3437,-1.3437,-1.3545,-1.3841,-1.3841,-1.3931,-1.4118,-1.4202,-1.4202,-1.3919,-1.3925,-1.3835,-1.3738,-1.3738,-1.3582,-1.3286,-1.3409,-1.3405,-1.3139,-1.3175,-1.3337,-1.3661,-1.4282,-1.4669,-1.4806,-1.5093,-1.5264,-1.5226,-1.5305,-1.557,-1.5819,-1.6062,-1.6312,0.2825,0.3201,0.3496,0.3463,0.3139,0.3011,0.3462,0.2937,0.2582,0.3354,0.0,0.0,0.0,0.0,0.0,0.0,0.0,0.0,0.0,0.0,0.0,0.0,0.0,0.0,0.0,0.0,0.0,0.0,0.0,0.0,0.0,0.0,-0.8769,-0.9713,-1.0191,-1.0876,-1.1465,-1.1656,-1.2055,-1.2671,-1.3084,-1.3673,-1.4427,-1.4665,-1.4877,-1.4934,-1.4655,-1.4484,-1.4351,-1.4304,-1.418,-1.4201,-1.4477,-1.4769,-1.5047,-1.4686,-1.4659,-1.463,-1.3981,-1.3587,-1.3373,-1.3125,-1.3248,-1.3309,-1.311,-1.305,-1.3055,-1.3346,-1.3152,-1.2861,-1.305,-1.305,-1.3055,-1.3443,-1.3699,-1.3946,-1.3946,-1.3883,-1.3732,-1.3528,-1.3727,-1.3931,-1.3943,-1.3937,-1.4022,-1.4298,-1.4298,-1.4298,-1.4298,-1.4118,-1.4027,-1.4027,-1.4027,-1.3826,-1.3341,-1.3677,-1.356,-1.2874,-1.3151,-1.3382,-1.3468,-1.3819,-1.4206,-1.453,-1.4821,-1.4983,-1.5037,-1.5277,-1.5424,-1.557,-1.6014,-1.6224,0.2299,0.2544,0.2893,0.3296,0.3227,0.3075,0.3082,0.3237,0.3318,0.0,0.0,0.0,0.0,0.0,0.0,0.0,0.0,0.0,0.0,0.0,0.0,0.0,0.0,0.0,0.0,0.0,0.0,0.0,0.0,0.0,0.0,-0.8054,-0.9007,-0.9961,-1.0317,-1.093,-1.1994,-1.1829,-1.21,-1.281,-1.3509,-1.4164,-1.4782,-1.4782,-1.4562,-1.4142,-1.4643,-1.4503,-1.4025,-1.4155,-1.4175,-1.4234,-1.455,-1.4676,-1.4746,-1.4481,-1.455,-1.4579,-1.3386,-1.3089,-1.3114,-1.2883,-1.2905,-1.2899,-1.2867,-1.2861,-1.2861,-1.2861,-1.2953,-1.305,-1.305,-1.3443,-1.3738,-1.3835,-1.3864,-1.3978,-1.4159,-1.3846,-1.3636,-1.4106,-1.4202,-1.4202,-1.4208,-1.4202,-1.4298,-1.4298,-1.4298,-1.4298,-1.4298,-1.4298,-1.4298,-1.4598,-1.44,-1.4183,-1.4167,-1.395,-1.3731,-1.3423,-1.3194,-1.3324,-1.3754,-1.3557,-1.373,-1.4202,-1.4703,-1.4993,-1.4963,-1.5285,-1.5624,-1.6069,-1.6204,-1.6414,0.2859,0.3081,0.3202,0.346,0.3459,0.3472,0.3405,0.3483,0.344,0.0,0.0,0.0,0.0,0.0,0.0,0.0,0.0,0.0,0.0,0.0,0.0,0.0,0.0,0.0,0.0,0.0,0.0,0.0,0.0,0.0,-0.7114,-0.778,-0.869,-0.9593,-0.9859,0.0,-1.1419,-1.1569,-1.2197,-1.2981,-1.3502,-1.3932,-1.439,-1.4489,-1.4447,-1.4244,-1.458,-1.4425,-1.3853,-1.4115,-1.4142,-1.4019,-1.4495,-1.4684,-1.4659,-1.444,-1.4275,-1.4179,-1.3308,-1.2833,-1.2697,-1.2797,-1.2667,-1.2565,-1.2764,-1.2764,-1.2764,-1.2764,-1.2953,-1.3147,-1.3147,-1.334,-1.363,-1.3835,-1.3835,-1.3925,-1.4202,-1.4016,-1.3829,-1.4202,-1.4298,-1.4298,-1.4298,-1.4298,-1.4298,-1.4298,-1.4298,-1.4298,-1.4298,-1.4208,-1.4208,-1.4496,-1.4208,-1.4106,-1.4117,-1.4092,-1.3823,-1.332,-1.327,-1.3305,-1.341,-1.3284,-1.3398,-1.3737,-1.4409,-1.4688,-1.4718,-1.5139,-1.547,-1.5535,-1.5803,-1.6158,0.3098,0.328,0.3323,0.3545,0.3582,0.3617,0.3744,0.0,0.3547,0.0,0.0,0.0,0.0,0.0,0.0,0.0,0.0,0.0,0.0,0.0,0.0,0.0,0.0,0.0,0.0,0.0,0.0,0.0,0.0,0.0,-0.729,-0.7627,-0.8237,-0.9144,-0.938,-0.9995,-1.0895,-1.1418,-1.2188,-1.3226,-1.3502,-1.3866,-1.4193,-1.4249,-1.4342,-1.4449,-1.4554,-1.4239,-1.3922,-1.4218,-1.4188,-1.4106,-1.4461,-1.4568,-1.4449,-1.4283,-1.4099,-1.3841,-1.3297,-1.2904,-1.2662,-1.2958,-1.2759,-1.2662,-1.2861,-1.2861,-1.2764,-1.2861,-1.2953,-1.3147,-1.3244,-1.334,-1.3528,-1.3925,-1.3829,-1.3823,-1.4202,-1.4112,-1.4022,-1.4298,-1.4298,-1.4298,-1.4298,-1.4298,-1.4298,-1.4298,-1.4298,-1.4298,-1.4298,-1.4208,-1.4214,-1.44,-1.4154,-1.4064,-1.4115,-1.4068,-1.3823,-1.3248,-1.3416,-1.3424,-1.3149,-1.3205,-1.3382,-1.3483,-1.4182,-1.4502,-1.4435,-1.5037,-1.5177,-1.497,-1.5545,-1.5957,0.242,0.245,0.2529,0.316,0.3167,0.3197,0.3769,0.0,0.0,0.0,0.0,0.0,0.0,0.0,0.0,0.0,0.0,0.0,0.0,0.0,0.0,0.0,0.0,0.0,0.0,0.0,0.0,0.0,0.0,0.0,-0.7163,-0.7502,-0.806,-0.8947,-0.9279,-0.9831,-1.0704,-1.1573,-1.245,-1.334,-1.3548,-1.3977,-1.4536,-1.4525,-1.4406,-1.4213,-1.452,-1.439,-1.4153,-1.4493,-1.4589,-1.4567,-1.4595,-1.4461,-1.4328,-1.3979,-1.3937,-1.3794,-1.3252,-1.3255,-1.3443,-1.3443,-1.3249,-1.305,-1.305,-1.2953,-1.2861,-1.305,-1.305,-1.3244,-1.363,-1.3835,-1.3925,-1.4202,-1.3919,-1.3636,-1.4202,-1.4298,-1.4298,-1.4298,-1.4298,-1.4298,-1.4298,-1.4298,-1.4298,-1.4298,-1.4298,-1.4298,-1.4298,-1.4496,-1.4688,-1.4694,-1.4465,-1.4409,-1.4651,-1.4013,-1.3525,-1.3495,-1.3514,-1.3424,-1.3149,-1.3559,-1.3751,-1.3659,-1.4285,-1.4441,-1.4261,-1.4741,-1.4977,-1.497,-1.5545,-1.5957,0.2435,0.2662,0.2785,0.3045,0.3412,0.3747,0.3561,0.3873,0.0,0.0,0.0,0.0,0.0,0.0,0.0,0.0,0.0,0.0,0.0,0.0,0.0,0.0,0.0,0.0,0.0,0.0,0.0,0.0,0.0,0.0,-0.7037,-0.7155,-0.7668,-0.8729,-0.8685,-0.9333,-1.0837,-1.1469,-1.2283,-1.3098,-1.3209,-1.3474,-1.3977,-1.404,-1.4121,-1.4191,-1.4719,-1.4713,-1.4493,-1.4713,-1.4821,-1.4821,-1.4821,-1.4674,-1.4427,-1.427,-1.4021,-1.3876,-1.3528,-1.3346,-1.3249,-1.3443,-1.3346,-1.3147,-1.3346,-1.3346,-1.3249,-1.3238,-1.3346,-1.3551,-1.3732,-1.3943,-1.4142,-1.4304,-1.4106,-1.4112,-1.4298,-1.4298,-1.4298,-1.4298,-1.4298,-1.4298,-1.4298,-1.4298,-1.4298,-1.4298,-1.4298,-1.4298,-1.4298,-1.4394,-1.4394,-1.4394,-1.4315,-1.4291,-1.4484,-1.4066,-1.3786,-1.3804,-1.3616,-1.3498,-1.3578,-1.3582,-1.3582,-1.3745,-1.3944,-1.4169,-1.4435,-1.4816,-1.4863,-1.4689,-1.5073,-1.5388,0.2305,0.2612,0.2897,0.3078,0.3462,0.3753,0.3578,0.0,0.0,0.0,0.0,0.0,0.0,0.0,0.0,0.0,0.0,0.0,0.0,0.0,0.0,0.0,0.0,0.0,0.0,0.0,0.0,0.0,0.0,0.0,-0.7083,-0.705,-0.7408,-0.852,-0.867,-0.9395,-1.0976,-1.1539,-1.213,-1.2866,-1.306,-1.3325,-1.3625,-1.3857,-1.3979,-1.4177,-1.4753,-1.4928,-1.4708,-1.4944,-1.5016,-1.501,-1.4813,-1.4636,-1.4499,-1.4219,-1.4096,-1.3958,-1.3693,-1.3539,-1.3534,-1.3727,-1.3636,-1.3443,-1.3539,-1.3534,-1.3437,-1.3426,-1.3471,-1.3605,-1.3689,-1.3897,-1.41,-1.4076,-1.407,-1.4189,-1.419,-1.4202,-1.4298,-1.4298,-1.4298,-1.4298,-1.4298,-1.4298,-1.4298,-1.4298,-1.4298,-1.4298,-1.4298,-1.4394,-1.4394,-1.4298,-1.4315,-1.4297,-1.4292,-1.3978,-1.3792,-1.3804,-1.3616,-1.3505,-1.3585,-1.3671,-1.3716,-1.3899,-1.4073,-1.43,-1.4669,-1.477,-1.4763,-1.4676,-1.506,-1.5429,0.0,0.0,0.0,0.3155,0.3111,0.3171,0.3737,0.0,0.0,0.0,0.0,0.0,0.0,0.0,0.0,0.0,0.0,0.0,0.0,0.0,0.0,0.0,0.0,0.0,0.0,0.0,0.0,0.0,0.0,-0.6869,-0.7411,-0.7082,-0.7267,-0.8252,-0.9372,-1.0294,-1.1111,-1.1601,-1.2108,-1.2715,-1.3137,-1.3459,-1.3486,-1.4014,-1.4101,-1.3918,-1.4701,-1.5013,-1.5001,-1.5071,-1.5076,-1.5047,-1.4476,-1.4228,-1.4313,-1.401,-1.4039,-1.4298,-1.4027,-1.4118,-1.4298,-1.4298,-1.4112,-1.3931,-1.3829,-1.363,-1.3329,-1.3516,-1.3423,-1.3315,-1.3491,-1.3689,-1.3713,-1.3526,-1.3725,-1.3896,-1.3878,-1.4112,-1.4298,-1.4298,-1.4298,-1.4292,-1.4286,-1.4286,-1.4286,-1.4286,-1.4286,-1.4286,-1.4298,-1.4496,-1.4592,-1.4298,-1.4264,-1.4309,-1.4274,-1.3827,-1.3519,-1.3513,-1.3533,-1.3442,-1.3174,-1.3844,-1.4193,-1.42,-1.4728,-1.4963,-1.4977,-1.4676,-1.4683,-1.497,-1.5545,-1.6116,0.2229,0.0,0.0,0.0,0.0,0.0,0.2883,0.3152,0.0,0.0,0.0,0.0,0.0,0.0,0.0,0.0,0.0,0.0,0.0,0.0,0.0,0.0,0.0,0.0,0.0,0.0,0.0,0.0,-0.6417,-0.7045,-0.7384,-0.8075,-0.8476,-0.8407,-0.9512,-1.0285,-1.0492,-1.1511,-1.2094,-1.2342,-1.2883,-1.3136,-1.3157,-1.3763,-1.3982,-1.3901,-1.4545,-1.47,-1.4499,-1.5133,-1.5395,-1.5365,-1.4999,-1.4743,-1.4616,-1.4702,-1.4527,-1.4298,-1.4406,-1.44,-1.4298,-1.4298,-1.4202,-1.4208,-1.4208,-1.4106,-1.4004,-1.41,-1.3921,-1.3584,-1.3389,-1.3576,-1.39,-1.3806,-1.3956,-1.4208,-1.419,-1.4202,-1.4298,-1.4298,-1.4298,-1.4238,-1.4045,-1.4014,-1.4014,-1.4014,-1.4014,-1.4081,-1.4274,-1.4394,-1.4394,-1.4298,-1.4327,-1.4315,-1.4292,-1.399,-1.3811,-1.3804,-1.3808,-1.3912,-1.4179,-1.4417,-1.465,-1.506,-1.5013,-1.5053,-1.5277,-1.4983,-1.4883,-1.497,-1.5355,-1.5837,0.2433,0.2387,0.2359,0.2429,0.0,0.0,0.2492,0.2709,0.284,0.0,0.0,0.0,0.0,0.0,0.0,0.0,0.0,0.0,0.0,0.0,0.0,0.0,0.0,0.0,0.0,0.0,0.0,0.0,-0.6172,-0.6901,-0.7458,-0.8952,-0.9369,-0.8737,-0.9817,-1.0471,-1.0671,-1.155,-1.2112,-1.2264,-1.279,-1.3057,-1.2918,-1.3479,-1.3691,-1.3735,-1.4343,-1.4427,-1.4341,-1.4904,-1.5071,-1.494,-1.4871,-1.4777,-1.4741,-1.4728,-1.4624,-1.4496,-1.4496,-1.4429,-1.4242,-1.4135,-1.4063,-1.3884,-1.4078,-1.4163,-1.4254,-1.4343,-1.3954,-1.3499,-1.3243,-1.3459,-1.3767,-1.3882,-1.402,-1.4165,-1.4274,-1.4214,-1.4165,-1.4274,-1.4298,-1.425,-1.4093,-1.4069,-1.4069,-1.4069,-1.4069,-1.4123,-1.428,-1.4298,-1.4298,-1.4298,-1.4298,-1.4298,-1.4298,-1.4254,-1.4147,-1.3884,-1.3964,-1.4176,-1.4411,-1.4611,-1.4852,-1.5391,-1.5351,-1.5404,-1.5578,-1.5284,-1.5204,-1.5331,-1.5498,-1.5765,0.26,0.2424,0.238,0.2495,0.227,0.0,0.2164,0.214,0.2143,0.0,0.0,0.0,0.0,0.0,0.0,0.0,0.0,0.0,0.0,0.0,0.0,0.0,0.0,0.0,0.0,0.0,-0.439,-0.5099,-0.5871,-0.6805,-0.7827,-0.9511,-1.0174,-0.9229,-1.0306,-1.09,-1.1194,-1.1683,-1.2078,-1.2273,-1.2856,-1.2975,-1.2689,-1.3275,-1.3469,-1.348,-1.3998,-1.4277,-1.4272,-1.4568,-1.4487,-1.4289,-1.431,-1.449,-1.4592,-1.4394,-1.4496,-1.4598,-1.44,-1.4355,-1.4166,-1.3918,-1.3564,-1.3379,-1.3628,-1.3897,-1.4092,-1.4142,-1.3676,-1.3243,-1.3063,-1.3314,-1.361,-1.3815,-1.3906,-1.4014,-1.425,-1.4117,-1.402,-1.4256,-1.4298,-1.4292,-1.4256,-1.4256,-1.416,-1.4256,-1.4256,-1.4166,-1.4196,-1.4202,-1.4298,-1.4298,-1.4298,-1.4298,-1.4298,-1.4496,-1.4475,-1.3924,-1.4123,-1.4297,-1.4185,-1.4542,-1.4881,-1.5352,-1.5604,-1.5737,-1.5737,-1.5571,-1.5578,-1.5832,-1.5832,-1.5832,0.3204,0.2715,0.2316,0.0,0.0,0.0,0.101,0.0991,0.1095,0.0,0.0,0.0,0.0,0.0,0.0,0.0,0.0,0.0,0.0,0.0,0.0,0.0,0.0,0.0,0.0,0.0,-0.4818,-0.5391,-0.6691,-0.7578,-0.7985,-0.9338,-0.9839,-0.9533,-1.031,-1.0801,-1.09,-1.1585,-1.1883,-1.1785,-1.2662,-1.2883,-1.2443,-1.3224,-1.3413,-1.3224,-1.3762,-1.3854,-1.3711,-1.4189,-1.4314,-1.4289,-1.431,-1.4298,-1.4394,-1.4592,-1.4406,-1.4124,-1.452,-1.4394,-1.3915,-1.3491,-1.3386,-1.3408,-1.3088,-1.2968,-1.3076,-1.3249,-1.3393,-1.3309,-1.291,-1.3302,-1.3791,-1.3628,-1.3912,-1.4238,-1.4286,-1.4256,-1.4142,-1.4016,-1.4027,-1.3957,-1.402,-1.3596,-1.3408,-1.3596,-1.369,-1.3679,-1.3703,-1.3829,-1.4027,-1.4027,-1.4027,-1.4118,-1.4298,-1.4394,-1.4279,-1.3924,-1.4105,-1.4294,-1.4309,-1.4559,-1.4804,-1.519,-1.5242,-1.5274,-1.5274,-1.5589,-1.5772,-1.5832,-1.5832,-1.5832,0.0,0.0,0.0,0.1939,0.0,0.0,0.0,0.021,0.0159,0.0454,0.0,0.0,0.0,0.0,0.0,0.0,0.0,0.0,0.0,0.0,0.0,0.0,0.0,0.0,0.0,0.0,-0.4923,-0.5696,-0.6903,-0.7748,-0.8318,-0.9458,-1.0112,-1.0023,-1.0609,-1.0951,-1.0854,-1.1633,-1.1925,-1.1626,-1.2512,-1.2726,-1.2345,-1.2916,-1.3019,-1.2926,-1.3299,-1.3539,-1.3539,-1.3919,-1.4098,-1.4107,-1.4069,-1.4208,-1.4298,-1.431,-1.4226,-1.4142,-1.4424,-1.4147,-1.3725,-1.3785,-1.3276,-1.2771,-1.2754,-1.2931,-1.3109,-1.3261,-1.332,-1.326,-1.2988,-1.3212,-1.3513,-1.3513,-1.3722,-1.3909,-1.3909,-1.3921,-1.3823,-1.3738,-1.3545,-1.3499,-1.3654,-1.344,-1.3345,-1.344,-1.3535,-1.3486,-1.3522,-1.3636,-1.3738,-1.3738,-1.3835,-1.3931,-1.3919,-1.4304,-1.4345,-1.3933,-1.4327,-1.453,-1.4496,-1.462,-1.479,-1.5083,-1.5083,-1.5083,-1.5083,-1.5363,-1.5547,-1.5635,-1.5737,-1.5832,0.0,0.0,0.0,0.0,0.0,0.0177,0.0,0.0,0.0,-0.0237,0.0,0.0,0.0,0.0,0.0,0.0,0.0,0.0,0.0,0.0,0.0,0.0,0.0,0.0,0.0,0.0,-0.493,-0.5855,-0.6685,-0.7419,-0.8292,-0.955,-1.0275,-1.031,-1.0904,-1.1099,-1.0896,-1.154,-1.1829,-1.1662,-1.2416,-1.2623,-1.2353,-1.2655,-1.2861,-1.283,-1.3127,-1.3437,-1.3636,-1.3829,-1.3925,-1.4027,-1.4027,-1.4118,-1.4298,-1.4022,-1.4039,-1.425,-1.4322,-1.3908,-1.3525,-1.3848,-1.3189,-1.2227,-1.2651,-1.3016,-1.3363,-1.3363,-1.3248,-1.3109,-1.3055,-1.3033,-1.3153,-1.3315,-1.3395,-1.3432,-1.3432,-1.3452,-1.3443,-1.3443,-1.3244,-1.3147,-1.3443,-1.3443,-1.3346,-1.3443,-1.3443,-1.3443,-1.3346,-1.3443,-1.3443,-1.3443,-1.3636,-1.3642,-1.3539,-1.4118,-1.4406,-1.3931,-1.431,-1.4592,-1.4592,-1.4592,-1.4688,-1.4981,-1.4987,-1.4987,-1.4987,-1.5083,-1.5267,-1.554,-1.5635,-1.573,0.0,0.0,0.0,0.0,0.0705,0.0,0.0,0.0,-0.115,-0.0986,0.0,0.0,0.0,0.0,0.0,0.0,0.0,0.0,0.0,0.0,0.0,0.0,0.0,0.0,0.0,0.0,0.0,-0.5363,-0.5957,-0.6548,-0.7211,-0.8725,-0.9652,-1.0015,-1.0801,-1.1099,-1.0896,-1.1392,-1.1582,-1.1372,-1.2062,-1.2384,-1.2412,-1.2872,-1.3066,-1.3088,-1.3829,-1.4016,-1.3931,-1.4406,-1.4496,-1.4298,-1.4298,-1.4298,-1.4298,-1.4298,-1.4118,-1.3943,-1.4268,-1.3862,-1.321,-1.2941,-1.2786,-1.2598,-1.2665,-1.2783,-1.2795,-1.2795,-1.2952,-1.3067,-1.2819,-1.2933,-1.3152,-1.2951,-1.3088,-1.3245,-1.3245,-1.3357,-1.3443,-1.3147,-1.3147,-1.3147,-1.3443,-1.3152,-1.2958,-1.3147,-1.3346,-1.3346,-1.2958,-1.3249,-1.3443,-1.3147,-1.3147,-1.3249,-1.3443,-1.3835,-1.3931,-1.3931,-1.4208,-1.4394,-1.4394,-1.4394,-1.4394,-1.4394,-1.4394,-1.4394,-1.4394,-1.4885,-1.5267,-1.554,-1.554,-1.5635,0.0,0.0,0.0,0.0,0.0,0.0,-0.0833,0.0,-0.1272,0.0,0.0,0.0,0.0,0.0,0.0,0.0,0.0,0.0,0.0,0.0,0.0,0.0,0.0,0.0,0.0,0.0,0.0,0.0,0.0,-0.6376,-0.7238,-0.859,-0.9519,-1.001,-1.0801,-1.0941,-1.0524,-1.1208,-1.1492,-1.1366,-1.2256,-1.2729,-1.2851,-1.2991,-1.329,-1.3613,-1.3559,-1.3773,-1.4112,-1.401,-1.41,-1.4298,-1.4298,-1.44,-1.4502,-1.4112,-1.4016,-1.4118,-1.4232,-1.3856,-1.3199,-1.3071,-1.3164,-1.3393,-1.3531,-1.332,-1.2998,-1.2998,-1.2686,-1.2464,-1.2499,-1.2476,-1.2539,-1.258,-1.2574,-1.2575,-1.2716,-1.2764,-1.289,-1.2931,-1.2958,-1.2958,-1.3055,-1.2958,-1.2861,-1.2953,-1.305,-1.3055,-1.2861,-1.2958,-1.3055,-1.2958,-1.305,-1.3147,-1.3055,-1.3443,-1.3636,-1.3443,-1.3829,-1.4118,-1.4118,-1.4202,-1.4208,-1.4118,-1.44,-1.4496,-1.4496,-1.479,-1.507,-1.554,-1.5635,-1.5832,0.2795,0.0,0.0,0.0,0.0,0.0,0.0,0.0,0.0,0.0,0.0,0.0,0.0,0.0,-0.1369,-0.1167,0.0,0.0,0.0,0.0,0.0,0.0,0.0,0.0,0.0,0.0,0.0,0.0,0.0,0.0,-0.7143,-0.8359,-0.9218,-0.9926,-1.0568,-1.0687,-1.0297,-1.1042,-1.1389,-1.1319,-1.2134,-1.262,-1.2846,-1.2847,-1.318,-1.3695,-1.3414,-1.3673,-1.4292,-1.4004,-1.41,-1.44,-1.4496,-1.4694,-1.4898,-1.4418,-1.4316,-1.4382,-1.4208,-1.3749,-1.3209,-1.3171,-1.3387,-1.3774,-1.3994,-1.364,-1.305,-1.305,-1.2551,-1.2083,-1.2266,-1.2088,-1.1911,-1.2085,-1.2004,-1.192,-1.2095,-1.2194,-1.2347,-1.2549,-1.2576,-1.2549,-1.2582,-1.2721,-1.2764,-1.2764,-1.2764,-1.2764,-1.2764,-1.2764,-1.2764,-1.2764,-1.3013,-1.3024,-1.2867,-1.3213,-1.3419,-1.3249,-1.3636,-1.3931,-1.3931,-1.4208,-1.4208,-1.4022,-1.44,-1.4592,-1.4592,-1.4688,-1.4879,-1.5255,-1.5547,-1.5743,0.0,0.0,0.0,0.0645,0.0,0.0,0.0,0.0,-0.1285,0.0,0.0,0.0,0.0,-0.1201,-0.1316,-0.1065,-0.1663,0.0,0.0,0.0,0.0,0.0,0.0,0.0,0.0,0.0,0.0,0.0,0.0,0.0,-0.6509,-0.7688,-0.8812,-0.9727,-1.0041,-1.0311,-1.057,-1.0834,-1.1005,-1.1,-1.1541,-1.1844,-1.2162,-1.2334,-1.2744,-1.3256,-1.3719,-1.4057,-1.4298,-1.4885,-1.4987,-1.4796,-1.4987,-1.5191,-1.53,-1.5223,-1.5013,-1.4555,-1.3796,-1.3421,-1.3252,-1.2939,-1.3109,-1.3473,-1.3513,-1.3165,-1.2786,-1.2786,-1.2418,-1.1957,-1.2049,-1.1877,-1.1613,-1.1424,-1.1521,-1.1704,-1.1442,-1.1713,-1.2062,-1.2113,-1.2062,-1.2012,-1.1988,-1.2422,-1.2764,-1.2764,-1.2764,-1.2764,-1.2764,-1.2764,-1.2764,-1.2764,-1.2958,-1.3001,-1.2786,-1.3265,-1.3495,-1.346,-1.3738,-1.3931,-1.3931,-1.4208,-1.4298,-1.4298,-1.4298,-1.4298,-1.4298,-1.4592,-1.4694,-1.4688,-1.4981,-1.5363,0.0,0.0,0.1148,0.0892,0.0,0.0,0.0,0.0,0.0,0.0,0.0,0.0,0.0,-0.1112,-0.1308,-0.1263,-0.1606,-0.1877,0.0,0.0,0.0,0.0,0.0,0.0,0.0,0.0,0.0,0.0,0.0,0.0,0.0,-0.7587,-0.8601,-0.9355,-1.0075,-1.0416,-1.0371,-1.0576,-1.0721,-1.0811,-1.1258,-1.1822,-1.2318,-1.2254,-1.2763,-1.3614,-1.3338,-1.3602,-1.4298,-1.4898,-1.5108,-1.5115,-1.5198,-1.5293,-1.5293,-1.5089,-1.4981,-1.4848,-1.4278,-1.3999,-1.3882,-1.3609,-1.3668,-1.3794,-1.3797,-1.3409,-1.2986,-1.2638,-1.215,-1.1824,-1.1805,-1.1641,-1.1392,-1.1367,-1.1258,-1.1289,-1.1318,-1.141,-1.1677,-1.1993,-1.1971,-1.2052,-1.2271,-1.2221,-1.2273,-1.2273,-1.2273,-1.237,-1.2467,-1.237,-1.237,-1.2764,-1.2536,-1.2454,-1.257,-1.2634,-1.2937,-1.3249,-1.334,-1.3346,-1.3346,-1.3636,-1.3727,-1.3727,-1.4106,-1.4394,-1.4592,-1.4688,-1.479,-1.4981,-1.4885,-1.5166,0.271,0.1926,0.0,0.0,-0.0195,0.0,-0.1036,0.0,0.0,0.0,0.0,0.0,0.0,-0.1026,-0.1165,-0.1018,-0.1318,-0.1638,0.0,-0.2284,0.0,0.0,0.0,0.0,0.0,0.0,0.0,0.0,0.0,0.0,0.0,0.0,-0.8237,-0.8893,-0.956,-1.0053,-1.0092,-1.0281,-1.0509,-1.0691,-1.1045,-1.1483,-1.198,-1.1827,-1.2277,-1.3182,-1.2923,-1.3333,-1.4298,-1.4802,-1.5006,-1.5115,-1.5287,-1.5287,-1.5185,-1.5064,-1.5095,-1.4999,-1.444,-1.4291,-1.4285,-1.3999,-1.3906,-1.3906,-1.3812,-1.3383,-1.28,-1.2365,-1.197,-1.1559,-1.1449,-1.1287,-1.1126,-1.1009,-1.0994,-1.1009,-1.094,-1.1074,-1.1371,-1.1601,-1.1657,-1.1671,-1.1961,-1.1768,-1.1696,-1.2063,-1.198,-1.198,-1.2175,-1.1975,-1.2078,-1.2467,-1.234,-1.2387,-1.2588,-1.2612,-1.2662,-1.2953,-1.305,-1.3147,-1.3147,-1.3346,-1.3539,-1.3636,-1.3919,-1.4112,-1.4406,-1.431,-1.4406,-1.47,-1.4502,-1.479]}]]